LH460 / D-AIMG 7700 Squawk Report (23rd of January, 2020)

Aircraft A388 Reg No. D-AIMG Age 9 years old
Model A380 Jet engines 4 First flight 22-11-10
Registered 07-05-11 Rollout 11-10 Delivered 07-05-11
Construction No. 069 Line No. N/A Series 841
ADSHEX 3C65A7 Airline name Lufthansa Owner N/A
Airfield based Frankfurt-Main~Hessen~D First tracked 2017-07-13 12:16:00

Flight history for D-AIMG

Route Flight No Date Playback
Miami Intl (MIA) - Munich Airport (MUC) LH461 2020-02-16 08:52:00
Munich Airport (MUC) - Miami Intl (MIA) LH460 2020-02-15 21:57:00
???? N/A 2020-02-12 19:00:00
Miami Intl (MIA) - Munich Airport (MUC) LH461 2020-02-11 14:54:00
Munich Airport (MUC) - Miami Intl (MIA) LH460 2020-02-11 03:57:00
???? N/A 2020-02-08 20:45:00
Miami Intl (MIA) - Munich Airport (MUC) LH461 2020-02-04 09:37:00
Munich Airport (MUC) - Miami Intl (MIA) LH460 2020-02-03 21:50:00
San Francisco Intl (SFO) - Munich Airport (MUC) LH459 2020-02-01 17:56:00
Munich Airport (MUC) - San Francisco Intl (SFO) LH458 2020-02-01 03:55:00
San Francisco Intl (SFO) - Munich Airport (MUC) LH459 2020-01-28 16:46:00
Munich Airport (MUC) - San Francisco Intl (SFO) LH458 2020-01-28 05:47:00
Munich Airport (MUC) - Miami Intl (MIA) LH460 2020-01-23 16:04:00
Pudong (PVG) - Munich Airport (MUC) LH727 2020-01-23 04:14:00
Munich Airport (MUC) - Pudong (PVG) LH726 2020-01-22 07:40:00
Miami Intl (MIA) - Munich Airport (MUC) LH461 2020-01-21 09:04:00
Munich Airport (MUC) - Miami Intl (MIA) LH460 2020-01-20 21:36:00
Pudong (PVG) - Munich Airport (MUC) LH727 2020-01-20 04:10:00
Munich Airport (MUC) - Pudong (PVG) LH726 2020-01-19 07:07:00
San Francisco Intl (SFO) - Munich Airport (MUC) LH459 2020-01-18 16:28:00
Time Lat Lon Altitude Heading Speed Vertical Rate
2020-01-23 16:03:55 GMT 48.353252 11.797889 0 84 0 0
2020-01-23 16:03:40 GMT 48.353245 11.797890 0 84 0 0
2020-01-23 16:03:34 GMT 48.353245 11.797908 0 84 0 0
2020-01-23 16:03:19 GMT 48.353222 11.797908 0 84 0 0
2020-01-23 16:03:15 GMT 48.353214 11.797925 0 84 0 0
2020-01-23 16:03:05 GMT 48.353188 11.797943 0 84 0 0
2020-01-23 16:02:55 GMT 48.353168 11.797925 0 33 6 0
2020-01-23 16:02:45 GMT 48.353146 11.797762 0 84 5 0
2020-01-23 16:02:34 GMT 48.353111 11.797365 0 84 6 0
2020-01-23 16:02:24 GMT 48.353146 11.796895 0 61 8 0
2020-01-23 16:02:14 GMT 48.353027 11.796341 0 11 9 0
2020-01-23 16:02:04 GMT 48.352646 11.796245 0 354 12 0
2020-01-23 16:01:53 GMT 48.351795 11.796389 0 354 19 0
2020-01-23 16:01:43 GMT 48.350956 11.796535 0 354 19 0
2020-01-23 16:01:33 GMT 48.350109 11.796675 0 354 18 0
2020-01-23 16:01:22 GMT 48.349331 11.796805 0 354 15 0
2020-01-23 16:01:12 GMT 48.348759 11.796895 0 354 12 0
2020-01-23 16:00:57 GMT 48.347988 11.797003 0 351 12 0
2020-01-23 16:00:50 GMT 48.347637 11.797133 0 2 13 0
2020-01-23 16:00:39 GMT 48.347019 11.796957 0 50 15 0
2020-01-23 16:00:31 GMT 48.346581 11.796100 0 53 24 0
2020-01-23 16:00:20 GMT 48.345772 11.794439 0 53 30 0
2020-01-23 16:00:10 GMT 48.344860 11.792576 0 53 32 0
2020-01-23 16:00:00 GMT 48.344067 11.790848 0 64 32 0
2020-01-23 15:59:49 GMT 48.343586 11.788594 0 84 41 0
2020-01-23 15:59:40 GMT 48.343288 11.784879 0 84 74 0
2020-01-23 15:59:29 GMT 48.342796 11.778471 1,100 84 100 0
2020-01-23 15:59:18 GMT 48.342178 11.770372 1,075 83 122 -128
2020-01-23 15:59:07 GMT 48.341400 11.760442 1,100 83 145 -256
2020-01-23 15:58:58 GMT 48.340729 11.751034 1,150 83 148 -576
2020-01-23 15:58:52 GMT 48.340210 11.744596 1,275 83 147 -896
2020-01-23 15:58:48 GMT 48.339935 11.740988 1,350 83 147 -896
2020-01-23 15:58:38 GMT 48.339146 11.730507 1,675 83 148 -896
2020-01-23 15:58:33 GMT 48.338699 11.725018 1,525 83 148 -832
2020-01-23 15:58:29 GMT 48.338448 11.721545 1,575 83 148 -832
2020-01-23 15:58:26 GMT 48.337601 11.711144 2,000 82 147 -832
2020-01-23 15:58:19 GMT 48.337601 11.711144 1,775 82 147 -832
2020-01-23 15:58:16 GMT 48.337372 11.708116 1,775 82 147 -832
2020-01-23 15:58:07 GMT 48.336540 11.698054 1,925 83 143 -832
2020-01-23 15:57:57 GMT 48.335838 11.689092 2,075 83 140 -768
2020-01-23 15:57:53 GMT 48.335541 11.685298 2,125 82 138 -896
2020-01-23 15:57:48 GMT 48.335140 11.679479 2,150 82 139 -832
2020-01-23 15:57:45 GMT 48.334488 11.671354 2,400 82 138 -832
2020-01-23 15:57:39 GMT 48.334488 11.671354 2,350 83 136 -832
2020-01-23 15:57:35 GMT 48.334209 11.668203 2,350 83 136 -832
2020-01-23 15:57:29 GMT 48.333652 11.661120 2,425 83 136 -832
2020-01-23 15:57:25 GMT 48.333481 11.658748 2,450 83 136 -832
2020-01-23 15:57:22 GMT 48.333279 11.655916 2,575 83 135 -704
2020-01-23 15:57:18 GMT 48.332767 11.649049 2,575 83 134 -704
2020-01-23 15:57:12 GMT 48.332520 11.646423 2,625 83 134 -704
2020-01-23 15:57:09 GMT 48.332348 11.643629 2,650 83 134 -768
2020-01-23 15:57:05 GMT 48.332062 11.640296 3,150 83 135 -768
2020-01-23 15:57:01 GMT 48.331696 11.635244 2,775 83 135 -704
2020-01-23 15:56:58 GMT 48.331512 11.633004 2,825 82 136 -704
2020-01-23 15:56:55 GMT 48.331326 11.630691 2,850 82 136 -768
2020-01-23 15:56:52 GMT 48.331043 11.627510 2,975 82 136 -768
2020-01-23 15:56:49 GMT 48.330860 11.625125 2,925 82 137 -832
2020-01-23 15:56:45 GMT 48.330299 11.618259 3,075 83 142 -896
2020-01-23 15:56:38 GMT 48.329636 11.609943 3,125 83 144 -896
2020-01-23 15:56:30 GMT 48.329361 11.606070 3,250 83 152 -832
2020-01-23 15:56:27 GMT 48.329090 11.602936 3,250 83 155 -896
2020-01-23 15:56:24 GMT 48.328903 11.600406 3,275 83 154 -832
2020-01-23 15:56:20 GMT 48.328438 11.594118 3,350 83 157 -896
2020-01-23 15:56:14 GMT 48.328018 11.589420 3,450 82 164 -832
2020-01-23 15:56:11 GMT 48.327694 11.585517 3,500 83 167 -896
2020-01-23 15:56:07 GMT 48.327301 11.580646 3,550 83 168 -960
2020-01-23 15:56:04 GMT 48.327072 11.577266 3,575 83 168 -896
2020-01-23 15:55:58 GMT 48.326248 11.566491 3,650 83 166 -384
2020-01-23 15:55:54 GMT 48.326248 11.566491 3,650 83 163 -64
2020-01-23 15:55:50 GMT 48.325787 11.559930 3,650 83 173 64
2020-01-23 15:55:46 GMT 48.325504 11.556461 3,650 83 167 192
2020-01-23 15:55:42 GMT 48.325150 11.551631 3,650 83 170 128
2020-01-23 15:55:39 GMT 48.324966 11.549166 3,650 83 222 0
2020-01-23 15:55:35 GMT 48.324482 11.543595 3,625 83 183 -64
2020-01-23 15:55:32 GMT 48.324295 11.541065 3,625 82 179 0
2020-01-23 15:55:29 GMT 48.323921 11.536656 3,650 83 193 0
2020-01-23 15:55:26 GMT 48.323318 11.529067 3,650 83 189 -64
2020-01-23 15:55:18 GMT 48.322815 11.522827 3,650 82 194 0
2020-01-23 15:55:15 GMT 48.322388 11.517719 3,650 83 199 0
2020-01-23 15:55:12 GMT 48.322083 11.514235 3,650 83 199 0
2020-01-23 15:55:09 GMT 48.321690 11.509335 3,650 83 213 0
2020-01-23 15:55:05 GMT 48.321213 11.503108 3,650 83 222 0
2020-01-23 15:55:00 GMT 48.320709 11.496686 3,650 83 217 0
2020-01-23 15:54:57 GMT 48.320385 11.492567 3,650 83 222 0
2020-01-23 15:54:53 GMT 48.319885 11.486488 3,650 83 217 0
2020-01-23 15:54:50 GMT 48.319267 11.477533 3,650 82 237 192
2020-01-23 15:54:44 GMT 48.318375 11.465219 3,650 83 231 0
2020-01-23 15:54:40 GMT 48.318375 11.465219 3,650 83 231 0
2020-01-23 15:54:37 GMT 48.317596 11.455219 3,625 82 252 64
2020-01-23 15:54:33 GMT 48.317596 11.455219 3,625 82 239 128
2020-01-23 15:54:30 GMT 48.317184 11.450853 3,625 82 244 64
2020-01-23 15:54:27 GMT 48.316681 11.444726 3,625 81 269 -64
2020-01-23 15:54:24 GMT 48.316177 11.439585 3,625 82 259 0
2020-01-23 15:54:21 GMT 48.315777 11.435033 3,625 82 267 -64
2020-01-23 15:54:17 GMT 48.315079 11.427260 3,625 81 271 -64
2020-01-23 15:54:14 GMT 48.314438 11.420359 3,625 82 280 -256
2020-01-23 15:54:11 GMT 48.314026 11.416063 3,650 82 281 -320
2020-01-23 15:54:07 GMT 48.312653 11.399161 3,800 84 293 -1600
2020-01-23 15:54:03 GMT 48.312653 11.399161 3,725 83 291 -1024
2020-01-23 15:54:00 GMT 48.312332 11.394412 3,750 83 290 -896
2020-01-23 15:53:57 GMT 48.311817 11.387329 3,800 83 292 -1344
2020-01-23 15:53:54 GMT 48.311279 11.379371 3,925 85 293 -1536
2020-01-23 15:53:50 GMT 48.310841 11.373090 3,975 84 293 -1600
2020-01-23 15:53:46 GMT 48.310501 11.366483 4,125 86 293 -1536
2020-01-23 15:53:43 GMT 48.310188 11.360586 4,175 86 293 -1536
2020-01-23 15:53:40 GMT 48.309814 11.346764 4,275 88 294 -1600
2020-01-23 15:53:37 GMT 48.309814 11.346764 4,375 90 294 -1600
2020-01-23 15:53:33 GMT 48.309864 11.337168 4,450 92 293 -1536
2020-01-23 15:53:27 GMT 48.310501 11.326130 4,600 97 293 -1600
2020-01-23 15:53:23 GMT 48.311417 11.318101 4,725 103 293 -1600
2020-01-23 15:53:20 GMT 48.312653 11.310707 4,850 106 292 -1664
2020-01-23 15:53:16 GMT 48.313637 11.306088 5,125 111 292 -1600
2020-01-23 15:53:12 GMT 48.315857 11.297114 5,050 110 292 -1600
2020-01-23 15:53:09 GMT 48.317173 11.292138 5,450 111 292 -1600
2020-01-23 15:53:06 GMT 48.318878 11.285635 5,150 111 292 -1600
2020-01-23 15:53:02 GMT 48.320759 11.278695 5,250 111 292 -1600
2020-01-23 15:52:59 GMT 48.322338 11.272623 5,325 111 292 -1600
2020-01-23 15:52:56 GMT 48.324062 11.266118 5,425 111 292 -1600
2020-01-23 15:52:53 GMT 48.325333 11.261338 5,500 111 292 -1536
2020-01-23 15:52:48 GMT 48.327805 11.251901 6,075 111 293 -1600
2020-01-23 15:52:42 GMT 48.330780 11.240563 5,800 111 293 -1600
2020-01-23 15:52:36 GMT 48.333744 11.229256 5,950 111 293 -1600
2020-01-23 15:52:32 GMT 48.335770 11.221548 6,025 111 293 -1600
2020-01-23 15:52:26 GMT 48.340961 11.201863 6,300 111 293 -1600
2020-01-23 15:52:22 GMT 48.340961 11.201863 6,350 111 293 -1600
2020-01-23 15:52:18 GMT 48.342499 11.195913 6,400 111 293 -1600
2020-01-23 15:52:15 GMT 48.343987 11.190370 6,475 111 293 -1600
2020-01-23 15:52:12 GMT 48.345520 11.184575 6,575 111 292 -1600
2020-01-23 15:52:08 GMT 48.347672 11.176476 6,700 111 292 -1600
2020-01-23 15:52:05 GMT 48.349247 11.170421 6,825 111 292 -1600
2020-01-23 15:52:02 GMT 48.350739 11.164784 6,975 111 292 -1600
2020-01-23 15:51:57 GMT 48.353119 11.155912 6,975 111 292 -1600
2020-01-23 15:51:54 GMT 48.355042 11.148517 7,200 111 292 -1600
2020-01-23 15:51:48 GMT 48.357395 11.139775 7,175 111 292 -1600
2020-01-23 15:51:45 GMT 48.359207 11.132764 7,300 111 292 -1600
2020-01-23 15:51:41 GMT 48.361176 11.125277 7,425 111 292 -1600
2020-01-23 15:51:37 GMT 48.362915 11.118587 7,575 111 292 -1600
2020-01-23 15:51:34 GMT 48.367451 11.101468 7,700 111 291 -1600
2020-01-23 15:51:29 GMT 48.369415 11.094079 7,800 111 291 -1600
2020-01-23 15:51:25 GMT 48.369415 11.094079 8,050 111 291 -1600
2020-01-23 15:51:21 GMT 48.371311 11.086651 7,950 111 291 -1600
2020-01-23 15:51:18 GMT 48.372391 11.082599 8,050 111 291 -1600
2020-01-23 15:51:14 GMT 48.376804 11.065762 8,225 111 290 -1600
2020-01-23 15:51:09 GMT 48.376804 11.065762 8,250 111 290 -1600
2020-01-23 15:51:06 GMT 48.378529 11.059329 8,275 111 290 -1600
2020-01-23 15:51:02 GMT 48.380493 11.051824 8,450 111 290 -1600
2020-01-23 15:50:56 GMT 48.383331 11.040908 8,600 111 290 -1600
2020-01-23 15:50:53 GMT 48.384720 11.035622 8,675 111 290 -1600
2020-01-23 15:50:50 GMT 48.386349 11.029334 8,750 111 288 -1600
2020-01-23 15:50:46 GMT 48.387978 11.023046 8,825 111 288 -1600
2020-01-23 15:50:43 GMT 48.389648 11.016611 8,875 111 288 -1600
2020-01-23 15:50:39 GMT 48.391617 11.009146 9,125 111 287 -1600
2020-01-23 15:50:36 GMT 48.393238 11.002880 9,150 111 287 -1600
2020-01-23 15:50:33 GMT 48.394226 10.999005 9,300 111 287 -1600
2020-01-23 15:50:30 GMT 48.395660 10.993701 9,300 111 287 -1600
2020-01-23 15:50:27 GMT 48.397430 10.986821 9,475 111 287 -1600
2020-01-23 15:50:24 GMT 48.399105 10.980401 9,450 111 287 -1600
2020-01-23 15:50:20 GMT 48.401012 10.972957 9,575 111 286 -1536
2020-01-23 15:50:17 GMT 48.402225 10.968403 9,625 111 286 -1472
2020-01-23 15:50:13 GMT 48.404087 10.961247 9,700 111 286 -1344
2020-01-23 15:50:09 GMT 48.407391 10.948599 9,850 111 287 -1280
2020-01-23 15:50:03 GMT 48.408882 10.942816 9,975 111 288 -640
2020-01-23 15:49:59 GMT 48.411026 10.934566 9,975 111 288 -576
2020-01-23 15:49:56 GMT 48.412582 10.928650 10,000 111 288 -128
2020-01-23 15:49:53 GMT 48.414001 10.923229 10,000 111 288 -64
2020-01-23 15:49:48 GMT 48.416142 10.914845 10,000 111 288 0
2020-01-23 15:49:43 GMT 48.418900 10.904353 10,000 111 289 64
2020-01-23 15:49:36 GMT 48.422287 10.891282 10,000 111 296 64
2020-01-23 15:49:32 GMT 48.423779 10.885427 10,000 111 295 64
2020-01-23 15:49:28 GMT 48.426292 10.875742 10,000 111 298 0
2020-01-23 15:49:23 GMT 48.428852 10.865912 9,975 111 304 0
2020-01-23 15:49:19 GMT 48.430984 10.857661 9,975 111 308 0
2020-01-23 15:49:15 GMT 48.432495 10.851886 10,000 111 311 0
2020-01-23 15:49:12 GMT 48.434254 10.845096 10,050 111 333 -960
2020-01-23 15:49:09 GMT 48.436203 10.837731 10,000 111 318 -128
2020-01-23 15:49:06 GMT 48.437881 10.831074 10,000 111 322 -256
2020-01-23 15:49:02 GMT 48.439728 10.824069 10,025 111 324 -320
2020-01-23 15:48:58 GMT 48.442024 10.815100 10,025 111 331 -960
2020-01-23 15:48:55 GMT 48.443710 10.808645 10,050 111 329 -704
2020-01-23 15:48:51 GMT 48.445862 10.800476 10,100 111 330 -960
2020-01-23 15:48:48 GMT 48.447693 10.793363 10,175 111 332 -1024
2020-01-23 15:48:44 GMT 48.450211 10.783715 10,250 111 334 -1024
2020-01-23 15:48:41 GMT 48.451035 10.780405 10,625 111 339 -1024
2020-01-23 15:48:37 GMT 48.453278 10.771672 10,425 111 339 -1024
2020-01-23 15:48:32 GMT 48.456596 10.758868 10,450 111 340 -1024
2020-01-23 15:48:27 GMT 48.459343 10.748243 10,525 111 342 -1024
2020-01-23 15:48:24 GMT 48.461205 10.741160 10,575 111 344 -1024
2020-01-23 15:48:21 GMT 48.462975 10.734149 10,625 111 346 -1024
2020-01-23 15:48:18 GMT 48.464371 10.728800 10,675 111 346 -1024
2020-01-23 15:48:15 GMT 48.466839 10.719187 10,750 111 351 -1024
2020-01-23 15:48:11 GMT 48.468327 10.713405 10,775 111 350 -1024
2020-01-23 15:48:08 GMT 48.472412 10.697514 10,875 111 352 -1024
2020-01-23 15:48:05 GMT 48.472412 10.697514 10,900 110 354 -1024
2020-01-23 15:48:01 GMT 48.474567 10.689047 10,975 111 355 -1024
2020-01-23 15:47:57 GMT 48.476753 10.680518 11,050 111 358 -1088
2020-01-23 15:47:54 GMT 48.478802 10.672495 11,125 111 360 -1408
2020-01-23 15:47:51 GMT 48.480606 10.665541 11,175 111 360 -1600
2020-01-23 15:47:46 GMT 48.483456 10.654498 11,275 111 360 -1664
2020-01-23 15:47:43 GMT 48.485138 10.647935 11,350 111 361 -1664
2020-01-23 15:47:40 GMT 48.491325 10.623852 11,475 111 362 -1728
2020-01-23 15:47:34 GMT 48.491325 10.623852 11,675 111 363 -1728
2020-01-23 15:47:30 GMT 48.492954 10.617491 11,750 111 363 -1728
2020-01-23 15:47:27 GMT 48.495392 10.608074 11,875 111 363 -1664
2020-01-23 15:47:24 GMT 48.499054 10.593849 11,950 111 364 -1664
2020-01-23 15:47:16 GMT 48.501480 10.584412 12,425 111 366 -1728
2020-01-23 15:47:13 GMT 48.506035 10.566679 12,275 111 366 -1728
2020-01-23 15:47:09 GMT 48.507843 10.559622 12,425 111 366 -1728
2020-01-23 15:47:06 GMT 48.507843 10.559622 12,825 111 368 -1728
2020-01-23 15:47:03 GMT 48.509491 10.553143 12,600 111 368 -1728
2020-01-23 15:46:54 GMT 48.515301 10.530540 12,800 111 369 -1728
2020-01-23 15:46:50 GMT 48.517731 10.521099 12,875 111 369 -1728
2020-01-23 15:46:47 GMT 48.519302 10.515000 12,975 110 371 -1728
2020-01-23 15:46:44 GMT 48.521118 10.507845 13,025 110 371 -1728
2020-01-23 15:46:41 GMT 48.523132 10.499901 13,250 110 371 -1728
2020-01-23 15:46:37 GMT 48.525696 10.489831 14,325 111 379 -1792
2020-01-23 15:46:34 GMT 48.527634 10.482330 13,425 111 372 -1728
2020-01-23 15:46:30 GMT 48.530148 10.472428 13,500 111 373 -1728
2020-01-23 15:46:27 GMT 48.532013 10.465182 13,575 111 374 -1728
2020-01-23 15:46:23 GMT 48.533966 10.457611 13,775 111 376 -1792
2020-01-23 15:46:20 GMT 48.535736 10.450600 13,750 111 375 -1792
2020-01-23 15:46:17 GMT 48.538204 10.441059 14,450 111 376 -1728
2020-01-23 15:46:14 GMT 48.540203 10.433181 13,950 111 376 -1728
2020-01-23 15:46:09 GMT 48.543137 10.421659 14,050 110 377 -1792
2020-01-23 15:46:05 GMT 48.545609 10.412011 14,325 110 377 -1792
2020-01-23 15:46:01 GMT 48.548351 10.401234 14,350 111 379 -1792
2020-01-23 15:45:56 GMT 48.551563 10.388585 14,500 110 380 -1792
2020-01-23 15:45:53 GMT 48.554855 10.375531 14,600 110 380 -1792
2020-01-23 15:45:50 GMT 48.554855 10.375531 14,650 110 380 -1792
2020-01-23 15:45:47 GMT 48.556778 10.367995 14,750 110 381 -1792
2020-01-23 15:45:44 GMT 48.558792 10.360037 16,575 110 381 -1792
2020-01-23 15:45:41 GMT 48.561295 10.350350 14,975 110 382 -1792
2020-01-23 15:45:38 GMT 48.564468 10.337783 15,100 110 382 -1792
2020-01-23 15:45:32 GMT 48.567951 10.324040 15,275 110 383 -1792
2020-01-23 15:45:29 GMT 48.567951 10.324040 15,275 110 383 -1792
2020-01-23 15:45:26 GMT 48.570465 10.314066 15,400 110 384 -1792
2020-01-23 15:45:23 GMT 48.572205 10.307289 15,450 110 384 -1792
2020-01-23 15:45:20 GMT 48.576828 10.289048 15,675 110 385 -1856
2020-01-23 15:45:15 GMT 48.576828 10.289048 15,700 110 385 -1792
2020-01-23 15:45:12 GMT 48.579353 10.279011 15,750 110 385 -1792
2020-01-23 15:45:08 GMT 48.581635 10.269963 15,950 110 385 -1792
2020-01-23 15:45:02 GMT 48.587036 10.248726 16,175 110 385 -1792
2020-01-23 15:44:59 GMT 48.589039 10.240920 16,275 110 385 -1792
2020-01-23 15:44:56 GMT 48.589039 10.240920 16,275 110 385 -1792
2020-01-23 15:44:52 GMT 48.591614 10.230666 16,400 110 386 -1792
2020-01-23 15:44:49 GMT 48.593552 10.222995 16,475 110 386 -1856
2020-01-23 15:44:46 GMT 48.598022 10.205287 18,100 110 386 -1856
2020-01-23 15:44:42 GMT 48.598022 10.205287 16,750 110 386 -1856
2020-01-23 15:44:38 GMT 48.600220 10.196439 16,800 110 386 -1792
2020-01-23 15:44:35 GMT 48.602829 10.186157 16,900 110 388 -1856
2020-01-23 15:44:31 GMT 48.604935 10.177847 16,975 110 387 -1856
2020-01-23 15:44:27 GMT 48.608170 10.164956 17,200 110 388 -1856
2020-01-23 15:44:24 GMT 48.609428 10.159824 17,275 110 388 -1856
2020-01-23 15:44:21 GMT 48.611115 10.153198 17,475 110 389 -1856
2020-01-23 15:44:17 GMT 48.613850 10.142405 17,450 110 389 -1856
2020-01-23 15:44:14 GMT 48.617706 10.126930 17,600 110 390 -1856
2020-01-23 15:44:11 GMT 48.620556 10.115734 17,750 110 391 -1856
2020-01-23 15:44:06 GMT 48.620556 10.115734 17,800 110 391 -1856
2020-01-23 15:44:03 GMT 48.625301 10.096725 17,925 110 392 -1856
2020-01-23 15:44:00 GMT 48.625301 10.096725 18,150 110 392 -1856
2020-01-23 15:43:57 GMT 48.627182 10.089111 18,100 110 392 -1856
2020-01-23 15:43:54 GMT 48.628746 10.082992 18,250 110 393 -1856
2020-01-23 15:43:51 GMT 48.630516 10.075836 18,275 110 393 -1856
2020-01-23 15:43:48 GMT 48.632519 10.067813 18,375 110 394 -1856
2020-01-23 15:43:45 GMT 48.634735 10.058969 18,525 110 394 -1856
2020-01-23 15:43:42 GMT 48.636658 10.051293 18,575 110 395 -1856
2020-01-23 15:43:39 GMT 48.638245 10.044901 18,650 110 395 -1856
2020-01-23 15:43:36 GMT 48.640572 10.035649 18,800 110 396 -1856
2020-01-23 15:43:32 GMT 48.642563 10.027771 19,200 110 396 -1856
2020-01-23 15:43:25 GMT 48.648102 10.005587 19,125 110 397 -1856
2020-01-23 15:43:21 GMT 48.650581 9.995824 19,225 110 398 -1856
2020-01-23 15:43:16 GMT 48.656067 9.973896 19,450 110 400 -1856
2020-01-23 15:43:13 GMT 48.656067 9.973896 19,550 110 400 -1856
2020-01-23 15:43:07 GMT 48.661926 9.950585 21,150 111 416 -1408
2020-01-23 15:43:04 GMT 48.661926 9.950585 19,775 110 403 -1856
2020-01-23 15:43:00 GMT 48.663620 9.943824 19,850 110 404 -1856
2020-01-23 15:42:57 GMT 48.666500 9.932436 20,000 110 405 -1856
2020-01-23 15:42:54 GMT 48.667709 9.927521 20,050 110 405 -1920
2020-01-23 15:42:51 GMT 48.671761 9.911619 20,250 110 408 -1920
2020-01-23 15:42:44 GMT 48.675110 9.898470 20,375 111 408 -1920
2020-01-23 15:42:41 GMT 48.676987 9.891217 20,550 111 409 -1920
2020-01-23 15:42:38 GMT 48.678314 9.885864 20,800 111 410 -1920
2020-01-23 15:42:35 GMT 48.684906 9.860370 20,750 111 411 -1984
2020-01-23 15:42:30 GMT 48.684906 9.860370 20,800 111 412 -1984
2020-01-23 15:42:25 GMT 48.687836 9.848961 21,000 111 414 -1856
2020-01-23 15:42:21 GMT 48.690521 9.838401 21,125 111 415 -1664
2020-01-23 15:42:18 GMT 48.692848 9.829294 21,200 111 416 -1408
2020-01-23 15:42:13 GMT 48.696110 9.816646 21,350 110 421 -1024
2020-01-23 15:42:10 GMT 48.698135 9.808537 21,375 110 422 -1024
2020-01-23 15:42:07 GMT 48.700809 9.797925 21,425 110 425 -1024
2020-01-23 15:42:03 GMT 48.702766 9.789903 21,475 110 426 -1024
2020-01-23 15:41:59 GMT 48.705780 9.777550 21,700 109 431 -1088
2020-01-23 15:41:56 GMT 48.707474 9.770578 21,625 109 433 -1152
2020-01-23 15:41:53 GMT 48.709515 9.761858 21,700 109 434 -1280
2020-01-23 15:41:50 GMT 48.712029 9.751089 21,700 109 436 -1728
2020-01-23 15:41:46 GMT 48.714523 9.740507 21,900 109 438 -1984
2020-01-23 15:41:43 GMT 48.719833 9.717548 22,350 109 442 -1984
2020-01-23 15:41:39 GMT 48.720978 9.712407 22,175 109 441 -1984
2020-01-23 15:41:32 GMT 48.723667 9.700711 22,275 109 443 -1984
2020-01-23 15:41:29 GMT 48.725739 9.691843 22,475 109 444 -2048
2020-01-23 15:41:26 GMT 48.729858 9.673679 25,025 109 446 64
2020-01-23 15:41:23 GMT 48.729858 9.673679 22,725 109 447 -2048
2020-01-23 15:41:19 GMT 48.735214 9.650292 22,900 109 448 -2048
2020-01-23 15:41:12 GMT 48.737091 9.641982 23,425 109 451 -1920
2020-01-23 15:41:08 GMT 48.742538 9.618389 23,150 109 451 -1984
2020-01-23 15:41:05 GMT 48.742538 9.618389 23,225 109 453 -2240
2020-01-23 15:40:59 GMT 48.748154 9.593883 23,525 109 454 -2496
2020-01-23 15:40:56 GMT 48.751041 9.581379 23,675 109 455 -2688
2020-01-23 15:40:49 GMT 48.755184 9.563382 24,050 109 455 -3328
2020-01-23 15:40:42 GMT 48.757965 9.551415 24,300 109 453 -3584
2020-01-23 15:40:39 GMT 48.760254 9.541344 24,475 109 450 -2944
2020-01-23 15:40:35 GMT 48.763424 9.527532 24,725 109 450 -2368
2020-01-23 15:40:32 GMT 48.767239 9.510980 24,850 109 447 -1536
2020-01-23 15:40:28 GMT 48.767239 9.510980 24,900 109 447 -1536
2020-01-23 15:40:25 GMT 48.769272 9.502188 24,950 109 447 -960
2020-01-23 15:40:22 GMT 48.772079 9.489947 25,000 109 446 -192
2020-01-23 15:40:19 GMT 48.773712 9.482864 25,000 109 446 0
2020-01-23 15:40:16 GMT 48.775341 9.475780 25,000 109 446 0
2020-01-23 15:40:13 GMT 48.779572 9.457116 25,000 109 446 0
2020-01-23 15:40:10 GMT 48.781769 9.447679 25,000 109 446 0
2020-01-23 15:40:07 GMT 48.781769 9.447679 25,000 109 446 0
2020-01-23 15:40:04 GMT 48.785675 9.430389 25,025 109 446 64
2020-01-23 15:40:01 GMT 48.785675 9.430389 25,000 109 446 64
2020-01-23 15:39:58 GMT 48.787724 9.421427 25,000 108 446 0
2020-01-23 15:39:55 GMT 48.790470 9.409356 25,000 108 447 -64
2020-01-23 15:39:52 GMT 48.791912 9.402996 25,000 109 447 -1088
2020-01-23 15:39:49 GMT 48.793396 9.396621 25,025 108 447 -256
2020-01-23 15:39:46 GMT 48.795639 9.386691 25,025 108 447 -256
2020-01-23 15:39:43 GMT 48.797470 9.378662 25,025 108 447 -320
2020-01-23 15:39:40 GMT 48.799873 9.368013 27,400 108 459 -1472
2020-01-23 15:39:37 GMT 48.803513 9.352182 25,125 109 447 -1216
2020-01-23 15:39:31 GMT 48.805878 9.341776 25,175 109 447 -1408
2020-01-23 15:39:28 GMT 48.809555 9.325441 25,400 108 447 -1472
2020-01-23 15:39:21 GMT 48.812675 9.311708 25,500 108 447 -1472
2020-01-23 15:39:18 GMT 48.814396 9.304119 25,500 108 447 -1472
2020-01-23 15:39:15 GMT 48.816444 9.295156 25,600 108 449 -1472
2020-01-23 15:39:12 GMT 48.818680 9.285182 25,725 108 449 -1472
2020-01-23 15:39:09 GMT 48.823475 9.263932 25,825 108 450 -1472
2020-01-23 15:39:06 GMT 48.823475 9.263932 25,950 108 450 -1472
2020-01-23 15:39:01 GMT 48.825665 9.254391 26,000 108 451 -1536
2020-01-23 15:38:58 GMT 48.829834 9.235981 26,075 108 453 -1536
2020-01-23 15:38:52 GMT 48.832226 9.225408 26,200 108 454 -1472
2020-01-23 15:38:49 GMT 48.834324 9.216011 26,275 108 455 -1472
2020-01-23 15:38:43 GMT 48.838394 9.198092 26,450 108 458 -1472
2020-01-23 15:38:40 GMT 48.840748 9.187606 26,575 108 459 -1472
2020-01-23 15:38:36 GMT 48.842793 9.178354 26,575 108 459 -1536
2020-01-23 15:38:33 GMT 48.844841 9.169320 26,725 108 468 -1536
2020-01-23 15:38:30 GMT 48.847172 9.158839 26,775 108 465 -1536
2020-01-23 15:38:27 GMT 48.849289 9.149499 26,950 108 464 -1536
2020-01-23 15:38:24 GMT 48.851395 9.140132 26,900 108 465 -1536
2020-01-23 15:38:21 GMT 48.853359 9.131157 27,250 108 476 -1536
2020-01-23 15:38:18 GMT 48.855362 9.122266 27,025 108 468 -1536
2020-01-23 15:38:15 GMT 48.857620 9.112244 27,125 108 474 -1536
2020-01-23 15:38:12 GMT 48.859737 9.102751 27,225 108 474 -1536
2020-01-23 15:38:09 GMT 48.862717 9.089669 27,300 108 475 -1536
2020-01-23 15:38:06 GMT 48.863892 9.084355 27,375 108 478 -1536
2020-01-23 15:38:03 GMT 48.866180 9.074214 27,600 108 480 -1600
2020-01-23 15:38:00 GMT 48.868744 9.062735 27,500 108 481 -1728
2020-01-23 15:37:57 GMT 48.870575 9.054565 27,600 108 483 -1920
2020-01-23 15:37:53 GMT 48.876022 9.030057 27,800 108 486 -1984
2020-01-23 15:37:50 GMT 48.876022 9.030057 27,850 108 487 -1984
2020-01-23 15:37:47 GMT 48.878220 9.020281 27,950 108 488 -1984
2020-01-23 15:37:41 GMT 48.882362 9.001489 28,125 108 493 -1984
2020-01-23 15:37:38 GMT 48.883808 8.994984 28,250 108 494 -1984
2020-01-23 15:37:35 GMT 48.886276 8.983929 28,525 108 500 -1984
2020-01-23 15:37:32 GMT 48.888519 8.973717 28,425 108 496 -1984
2020-01-23 15:37:29 GMT 48.891113 8.962097 28,525 108 496 -1984
2020-01-23 15:37:25 GMT 48.894142 8.948364 28,675 108 498 -1984
2020-01-23 15:37:22 GMT 48.896469 8.938028 28,850 108 499 -1984
2020-01-23 15:37:19 GMT 48.898453 8.928997 28,850 108 499 -1984
2020-01-23 15:37:16 GMT 48.900330 8.920476 29,075 108 500 -1984
2020-01-23 15:37:12 GMT 48.903351 8.906954 29,400 108 502 -1984
2020-01-23 15:37:09 GMT 48.905407 8.897625 29,100 108 501 -1984
2020-01-23 15:37:06 GMT 48.908108 8.885627 29,325 108 502 -1984
2020-01-23 15:37:02 GMT 48.910721 8.873925 30,250 109 501 -1984
2020-01-23 15:36:59 GMT 48.913460 8.861630 29,550 108 502 -2048
2020-01-23 15:36:56 GMT 48.915161 8.854135 29,600 109 502 -1984
2020-01-23 15:36:53 GMT 48.917313 8.844558 30,100 109 502 -1984
2020-01-23 15:36:50 GMT 48.919693 8.833923 29,800 109 501 -1920
2020-01-23 15:36:47 GMT 48.921753 8.824838 30,100 110 504 -1856
2020-01-23 15:36:44 GMT 48.923813 8.815754 30,100 109 501 -1920
2020-01-23 15:36:41 GMT 48.929077 8.793006 30,100 109 501 -1920
2020-01-23 15:36:38 GMT 48.929077 8.793006 30,300 110 504 -1856
2020-01-23 15:36:34 GMT 48.931568 8.782413 30,300 109 501 -1984
2020-01-23 15:36:31 GMT 48.934113 8.771527 30,475 109 502 -1920
2020-01-23 15:36:28 GMT 48.936829 8.760151 30,500 109 502 -1920
2020-01-23 15:36:25 GMT 48.938831 8.751911 30,625 110 504 -1856
2020-01-23 15:36:22 GMT 48.943626 8.731963 30,750 110 506 -1600
2020-01-23 15:36:16 GMT 48.946186 8.721554 30,825 110 506 -1472
2020-01-23 15:36:13 GMT 48.948395 8.712510 30,975 110 506 -1216
2020-01-23 15:36:10 GMT 48.950794 8.702617 30,975 110 506 -384
2020-01-23 15:36:07 GMT 48.957596 8.674622 31,000 110 506 -192
2020-01-23 15:36:03 GMT 48.957596 8.674622 31,000 109 506 -320
2020-01-23 15:36:00 GMT 48.959084 8.668141 31,000 109 506 -320
2020-01-23 15:35:57 GMT 48.962082 8.655325 31,025 109 506 -384
2020-01-23 15:35:54 GMT 48.963638 8.648564 31,050 107 506 -1152
2020-01-23 15:35:51 GMT 48.966763 8.634314 31,100 107 506 -1280
2020-01-23 15:35:48 GMT 48.968624 8.625352 31,125 107 506 -1152
2020-01-23 15:35:45 GMT 48.970207 8.617473 31,175 106 506 -1472
2020-01-23 15:35:42 GMT 48.971836 8.609017 32,250 103 497 -1600
2020-01-23 15:35:39 GMT 48.973663 8.599196 31,300 105 506 -1600
2020-01-23 15:35:36 GMT 48.975677 8.587646 31,400 104 505 -1600
2020-01-23 15:35:33 GMT 48.979523 8.564265 31,550 104 503 -1600
2020-01-23 15:35:30 GMT 48.981148 8.554447 31,650 103 501 -1600
2020-01-23 15:35:27 GMT 48.981148 8.554447 31,700 104 503 -1600
2020-01-23 15:35:24 GMT 48.982868 8.544038 31,800 104 502 -1600
2020-01-23 15:35:21 GMT 48.985897 8.525680 31,950 103 501 -1600
2020-01-23 15:35:18 GMT 48.985897 8.525680 31,925 103 500 -1600
2020-01-23 15:35:15 GMT 48.989868 8.501446 32,100 103 500 -1600
2020-01-23 15:35:12 GMT 48.989868 8.501446 32,025 104 499 -1600
2020-01-23 15:35:09 GMT 48.990967 8.494615 32,125 104 499 -1600
2020-01-23 15:35:05 GMT 48.993065 8.481807 32,250 104 498 -1600
2020-01-23 15:35:02 GMT 48.994858 8.470952 32,350 103 497 -1600
2020-01-23 15:34:59 GMT 48.996597 8.460388 32,450 103 497 -1600
2020-01-23 15:34:56 GMT 48.998749 8.447360 32,525 103 496 -1600
2020-01-23 15:34:53 GMT 49.000328 8.437645 32,575 103 496 -1600
2020-01-23 15:34:50 GMT 49.001957 8.427598 32,700 103 495 -1600
2020-01-23 15:34:47 GMT 49.003262 8.419792 32,750 103 495 -1600
2020-01-23 15:34:44 GMT 49.004654 8.411161 33,250 103 494 -1600
2020-01-23 15:34:41 GMT 49.006485 8.399823 33,075 103 487 -1600
2020-01-23 15:34:38 GMT 49.008381 8.388206 32,900 103 494 -1600
2020-01-23 15:34:35 GMT 49.011406 8.369631 33,100 103 493 -1600
2020-01-23 15:34:32 GMT 49.013077 8.359398 33,200 103 493 -1600
2020-01-23 15:34:26 GMT 49.014999 8.347497 33,250 103 493 -1600
2020-01-23 15:34:22 GMT 49.017014 8.335172 33,950 103 489 -1600
2020-01-23 15:34:19 GMT 49.018902 8.323589 33,625 103 490 -1600
2020-01-23 15:34:16 GMT 49.020538 8.313411 33,825 103 490 -1600
2020-01-23 15:34:13 GMT 49.022461 8.301579 33,625 103 491 -1536
2020-01-23 15:34:10 GMT 49.023514 8.295171 33,675 103 490 -1600
2020-01-23 15:34:07 GMT 49.027634 8.269536 33,925 103 489 -1600
2020-01-23 15:34:03 GMT 49.027634 8.269536 34,125 103 481 -1600
2020-01-23 15:34:00 GMT 49.028725 8.262803 34,275 103 488 -1600
2020-01-23 15:33:57 GMT 49.030540 8.251600 34,050 103 489 -1600
2020-01-23 15:33:54 GMT 49.031937 8.243127 34,175 103 489 -1600
2020-01-23 15:33:51 GMT 49.034122 8.229483 34,175 103 488 -1600
2020-01-23 15:33:47 GMT 49.036171 8.216689 34,325 103 487 -1600
2020-01-23 15:33:44 GMT 49.037521 8.208450 34,350 103 487 -1600
2020-01-23 15:33:40 GMT 49.039570 8.195729 34,500 103 487 -1536
2020-01-23 15:33:37 GMT 49.043434 8.171804 34,600 103 482 -1600
2020-01-23 15:33:30 GMT 49.045486 8.159039 34,750 103 485 -1600
2020-01-23 15:33:27 GMT 49.047020 8.149470 35,350 103 485 -1600
2020-01-23 15:33:24 GMT 49.048370 8.141014 34,900 103 484 -1536
2020-01-23 15:33:21 GMT 49.049671 8.132846 35,025 103 481 -1600
2020-01-23 15:33:18 GMT 49.051208 8.123333 35,350 103 482 -1536
2020-01-23 15:33:15 GMT 49.053116 8.111163 35,175 103 482 -1600
2020-01-23 15:33:12 GMT 49.054459 8.102769 35,325 103 481 -1536
2020-01-23 15:33:09 GMT 49.055958 8.093310 35,275 103 481 -1600
2020-01-23 15:33:06 GMT 49.057434 8.083825 35,350 103 483 -192
2020-01-23 15:33:03 GMT 49.061188 8.060162 35,500 103 481 -1536
2020-01-23 15:32:59 GMT 49.061188 8.060162 36,000 103 482 -1408
2020-01-23 15:32:56 GMT 49.062927 8.049105 35,600 103 481 -1536
2020-01-23 15:32:53 GMT 49.064896 8.036429 36,000 103 481 -64
2020-01-23 15:32:50 GMT 49.066292 8.027464 35,775 103 482 -1344
2020-01-23 15:32:47 GMT 49.067081 8.022477 36,000 103 482 -1408
2020-01-23 15:32:44 GMT 49.069153 8.009033 35,975 103 481 -960
2020-01-23 15:32:41 GMT 49.070667 7.999276 35,950 103 481 -512
2020-01-23 15:32:38 GMT 49.072220 7.989244 36,000 103 481 -64
2020-01-23 15:32:35 GMT 49.073822 7.978962 36,000 103 481 -64
2020-01-23 15:32:32 GMT 49.074810 7.972316 36,000 103 481 0
2020-01-23 15:32:29 GMT 49.077759 7.953397 36,000 103 481 0
2020-01-23 15:32:23 GMT 49.079681 7.941214 36,000 103 482 0
2020-01-23 15:32:20 GMT 49.081375 7.930439 36,025 103 482 0
2020-01-23 15:32:17 GMT 49.082611 7.922762 36,000 103 483 -128
2020-01-23 15:32:14 GMT 49.084076 7.913537 36,000 103 483 -192
2020-01-23 15:32:11 GMT 49.085609 7.904013 36,025 103 484 -256
2020-01-23 15:32:07 GMT 49.088078 7.889195 36,050 104 485 -448
2020-01-23 15:32:04 GMT 49.089981 7.877831 36,225 105 487 -960
2020-01-23 15:32:01 GMT 49.091850 7.867006 36,100 104 487 -960
2020-01-23 15:31:58 GMT 49.093552 7.857197 36,325 105 489 -1024
2020-01-23 15:31:55 GMT 49.095428 7.846562 36,175 105 489 -1024
2020-01-23 15:31:52 GMT 49.096893 7.838393 36,250 104 489 -1024
2020-01-23 15:31:49 GMT 49.100281 7.819237 36,300 104 489 -1024
2020-01-23 15:31:43 GMT 49.102554 7.805931 36,400 101 491 -1024
2020-01-23 15:31:40 GMT 49.104034 7.796772 36,425 102 491 -1024
2020-01-23 15:31:37 GMT 49.105534 7.786271 37,000 95 488 -960
2020-01-23 15:31:34 GMT 49.106514 7.778971 36,550 100 490 -1024
2020-01-23 15:31:31 GMT 49.107723 7.768057 36,625 98 489 -960
2020-01-23 15:31:27 GMT 49.108978 7.753883 36,625 97 489 -960
2020-01-23 15:31:24 GMT 49.109894 7.739093 36,700 92 487 -896
2020-01-23 15:31:21 GMT 49.110168 7.734164 36,900 91 488 -768
2020-01-23 15:31:17 GMT 49.110935 7.709439 36,900 92 487 -896
2020-01-23 15:31:11 GMT 49.111401 7.685298 37,000 91 487 0
2020-01-23 15:31:07 GMT 49.111401 7.685298 37,000 91 488 0
2020-01-23 15:31:04 GMT 49.111679 7.673806 36,975 91 488 -320
2020-01-23 15:31:01 GMT 49.111862 7.663386 37,000 91 488 -128
2020-01-23 15:30:57 GMT 49.112137 7.651273 37,000 91 488 0
2020-01-23 15:30:54 GMT 49.112640 7.627117 37,000 91 488 0
2020-01-23 15:30:51 GMT 49.112640 7.627117 37,000 91 488 0
2020-01-23 15:30:48 GMT 49.112778 7.621131 37,000 91 487 0
2020-01-23 15:30:45 GMT 49.112961 7.612046 37,000 91 487 0
2020-01-23 15:30:42 GMT 49.113171 7.601383 37,000 91 487 0
2020-01-23 15:30:39 GMT 49.113419 7.588736 37,000 91 487 0
2020-01-23 15:30:36 GMT 49.113636 7.579121 37,000 91 487 -64
2020-01-23 15:30:33 GMT 49.113876 7.567326 37,000 91 487 0
2020-01-23 15:30:30 GMT 49.114006 7.558883 37,000 91 487 0
2020-01-23 15:30:26 GMT 49.114471 7.536339 37,000 91 487 0
2020-01-23 15:30:20 GMT 49.114700 7.522959 37,000 91 487 0
2020-01-23 15:30:17 GMT 49.114838 7.515846 37,000 91 487 0
2020-01-23 15:30:14 GMT 49.115032 7.506264 37,000 91 487 0
2020-01-23 15:30:11 GMT 49.115295 7.491479 37,000 91 487 0
2020-01-23 15:30:07 GMT 49.115753 7.468168 37,000 91 487 0
2020-01-23 15:30:04 GMT 49.115753 7.468168 37,000 91 487 0
2020-01-23 15:30:01 GMT 49.115917 7.459934 37,000 91 487 64
2020-01-23 15:29:58 GMT 49.116119 7.448167 37,000 91 487 0
2020-01-23 15:29:55 GMT 49.116348 7.436124 37,000 91 487 0
2020-01-23 15:29:52 GMT 49.116486 7.429786 37,000 91 487 0
2020-01-23 15:29:49 GMT 49.116669 7.419081 37,000 91 489 0
2020-01-23 15:29:46 GMT 49.116852 7.409222 37,000 91 487 0
2020-01-23 15:29:43 GMT 49.117126 7.394926 37,000 91 491 0
2020-01-23 15:29:40 GMT 49.117401 7.379010 37,000 91 488 0
2020-01-23 15:29:37 GMT 49.117733 7.362285 37,000 91 489 0
2020-01-23 15:29:33 GMT 49.117733 7.362285 37,000 91 488 0
2020-01-23 15:29:30 GMT 49.117825 7.355130 37,000 91 488 0
2020-01-23 15:29:27 GMT 49.118042 7.343304 37,000 91 490 0
2020-01-23 15:29:23 GMT 49.118317 7.328796 37,000 91 488 0
2020-01-23 15:29:20 GMT 49.118568 7.315594 37,000 91 489 0
2020-01-23 15:29:16 GMT 49.118729 7.307317 37,000 91 489 0
2020-01-23 15:29:13 GMT 49.118988 7.292464 37,000 91 489 0
2020-01-23 15:29:10 GMT 49.119129 7.285887 37,000 91 491 0
2020-01-23 15:29:07 GMT 49.119370 7.271822 37,000 91 489 0
2020-01-23 15:29:02 GMT 49.119690 7.255272 37,000 91 490 0
2020-01-23 15:28:59 GMT 49.119827 7.247869 37,000 91 490 0
2020-01-23 15:28:56 GMT 49.120056 7.236821 37,000 91 490 0
2020-01-23 15:28:52 GMT 49.120331 7.222525 37,000 91 490 0
2020-01-23 15:28:49 GMT 49.120422 7.215623 37,000 91 490 0
2020-01-23 15:28:46 GMT 49.120743 7.199637 37,000 91 491 0
2020-01-23 15:28:43 GMT 49.120926 7.188580 37,000 91 490 0
2020-01-23 15:28:40 GMT 49.121109 7.178650 37,000 91 490 0
2020-01-23 15:28:35 GMT 49.121410 7.162869 37,000 91 491 0
2020-01-23 15:28:32 GMT 49.121658 7.150480 37,000 91 491 0
2020-01-23 15:28:29 GMT 49.121841 7.141606 37,000 91 491 0
2020-01-23 15:28:25 GMT 49.122013 7.131717 37,000 91 491 0
2020-01-23 15:28:22 GMT 49.122295 7.117840 37,000 91 491 0
2020-01-23 15:28:16 GMT 49.122711 7.095759 37,000 91 491 0
2020-01-23 15:28:10 GMT 49.123123 7.075829 37,000 91 491 0
2020-01-23 15:28:07 GMT 49.123489 7.057659 37,000 91 491 0
2020-01-23 15:28:04 GMT 49.123489 7.057659 37,000 91 491 0
2020-01-23 15:28:01 GMT 49.123737 7.044911 37,000 91 491 0
2020-01-23 15:27:58 GMT 49.124107 7.026118 37,000 91 491 0
2020-01-23 15:27:55 GMT 49.124107 7.026118 37,000 91 490 0
2020-01-23 15:27:52 GMT 49.124249 7.018384 37,000 91 491 0
2020-01-23 15:27:49 GMT 49.124542 7.005122 37,000 91 490 0
2020-01-23 15:27:46 GMT 49.124714 6.995183 37,000 91 490 0
2020-01-23 15:27:43 GMT 49.124947 6.984414 37,000 91 490 0
2020-01-23 15:27:40 GMT 49.125137 6.974769 37,000 91 490 0
2020-01-23 15:27:37 GMT 49.125275 6.966199 37,000 91 490 0
2020-01-23 15:27:33 GMT 49.125599 6.949937 37,000 91 490 0
2020-01-23 15:27:30 GMT 49.125832 6.937577 37,000 91 490 0
2020-01-23 15:27:27 GMT 49.126019 6.927892 37,000 91 490 0
2020-01-23 15:27:24 GMT 49.126160 6.917990 37,000 91 490 0
2020-01-23 15:27:21 GMT 49.126282 6.911105 37,000 91 490 0
2020-01-23 15:27:18 GMT 49.126530 6.898113 37,000 91 490 0
2020-01-23 15:27:15 GMT 49.126694 6.888216 37,000 91 487 0
2020-01-23 15:27:12 GMT 49.126877 6.877441 37,000 91 490 0
2020-01-23 15:27:09 GMT 49.127014 6.869765 37,000 91 489 0
2020-01-23 15:27:06 GMT 49.127274 6.856264 37,000 91 489 0
2020-01-23 15:27:03 GMT 49.127609 6.836384 37,000 91 489 0
2020-01-23 15:27:00 GMT 49.127609 6.836384 37,000 91 488 0
2020-01-23 15:26:57 GMT 49.127975 6.816876 37,000 91 489 0
2020-01-23 15:26:51 GMT 49.128159 6.804763 37,000 91 489 0
2020-01-23 15:26:48 GMT 49.128387 6.792368 37,000 91 488 0
2020-01-23 15:26:45 GMT 49.128532 6.786081 37,000 91 488 0
2020-01-23 15:26:42 GMT 49.128719 6.776468 37,000 91 488 0
2020-01-23 15:26:39 GMT 49.128937 6.763564 37,000 91 488 0
2020-01-23 15:26:35 GMT 49.129166 6.751732 37,000 91 488 0
2020-01-23 15:26:32 GMT 49.129463 6.736354 37,000 91 488 0
2020-01-23 15:26:29 GMT 49.129669 6.725886 37,000 91 488 0
2020-01-23 15:26:26 GMT 49.129761 6.720393 37,000 91 487 0
2020-01-23 15:26:23 GMT 49.130020 6.706431 37,000 91 487 0
2020-01-23 15:26:20 GMT 49.130161 6.699853 37,000 91 487 0
2020-01-23 15:26:17 GMT 49.130356 6.688350 37,000 91 487 0
2020-01-23 15:26:14 GMT 49.130768 6.666941 37,000 91 487 0
2020-01-23 15:26:10 GMT 49.131001 6.654607 37,000 91 487 0
2020-01-23 15:26:07 GMT 49.131001 6.654607 37,000 91 487 0
2020-01-23 15:26:03 GMT 49.131512 6.629888 37,000 91 487 0
2020-01-23 15:25:57 GMT 49.131958 6.606586 37,000 91 487 0
2020-01-23 15:25:53 GMT 49.131958 6.606586 37,000 91 487 0
2020-01-23 15:25:50 GMT 49.132256 6.591291 37,000 91 487 0
2020-01-23 15:25:46 GMT 49.132416 6.582782 37,000 91 487 0
2020-01-23 15:25:43 GMT 49.132599 6.572360 37,000 91 487 0
2020-01-23 15:25:40 GMT 49.132782 6.562148 37,000 91 488 0
2020-01-23 15:25:36 GMT 49.133232 6.534769 37,000 91 488 0
2020-01-23 15:25:32 GMT 49.133232 6.534769 37,000 91 488 0
2020-01-23 15:25:28 GMT 49.133469 6.521583 37,000 91 488 0
2020-01-23 15:25:25 GMT 49.133652 6.512797 37,000 91 488 0
2020-01-23 15:25:22 GMT 49.133835 6.501793 37,000 91 488 0
2020-01-23 15:25:19 GMT 49.134258 6.476513 37,000 91 488 0
2020-01-23 15:25:16 GMT 49.134258 6.476513 37,000 91 488 0
2020-01-23 15:25:12 GMT 49.134430 6.466651 37,000 91 488 0
2020-01-23 15:25:09 GMT 49.134583 6.456492 37,000 91 488 0
2020-01-23 15:25:05 GMT 49.135071 6.426298 37,000 91 487 0
2020-01-23 15:24:58 GMT 49.135254 6.416438 37,000 91 487 0
2020-01-23 15:24:55 GMT 49.135620 6.394747 37,000 91 487 0
2020-01-23 15:24:52 GMT 49.135620 6.394747 37,000 91 487 0
2020-01-23 15:24:49 GMT 49.135746 6.386815 37,000 91 487 0
2020-01-23 15:24:46 GMT 49.135895 6.377775 37,000 91 487 0
2020-01-23 15:24:43 GMT 49.136078 6.365662 37,000 91 487 0
2020-01-23 15:24:40 GMT 49.136215 6.358267 37,000 91 486 0
2020-01-23 15:24:36 GMT 49.136536 6.339675 37,000 91 486 0
2020-01-23 15:24:32 GMT 49.136772 6.326246 37,000 91 486 0
2020-01-23 15:24:29 GMT 49.136864 6.321042 37,000 91 486 0
2020-01-23 15:24:24 GMT 49.137238 6.300515 37,000 91 486 0
2020-01-23 15:24:21 GMT 49.137379 6.292058 37,000 91 486 0
2020-01-23 15:24:18 GMT 49.137589 6.280588 37,000 91 486 0
2020-01-23 15:24:15 GMT 49.137680 6.272912 37,400 91 486 0
2020-01-23 15:24:12 GMT 49.137955 6.258122 37,000 91 486 0
2020-01-23 15:24:09 GMT 49.138046 6.250728 37,000 91 486 0
2020-01-23 15:24:06 GMT 49.138412 6.229952 37,000 91 486 0
2020-01-23 15:24:03 GMT 49.138634 6.216021 37,000 91 486 0
2020-01-23 15:23:55 GMT 49.138821 6.202071 37,000 91 486 0
2020-01-23 15:23:52 GMT 49.139008 6.191641 37,000 90 495 0
2020-01-23 15:23:49 GMT 49.139145 6.183496 37,000 91 486 0
2020-01-23 15:23:46 GMT 49.139328 6.173049 37,000 91 486 0
2020-01-23 15:23:43 GMT 49.139473 6.162390 37,000 91 486 0
2020-01-23 15:23:40 GMT 49.139660 6.151187 37,000 91 486 0
2020-01-23 15:23:37 GMT 49.139832 6.142414 37,000 91 486 0
2020-01-23 15:23:33 GMT 49.140121 6.123505 37,000 91 486 0
2020-01-23 15:23:30 GMT 49.140198 6.118892 37,000 91 486 0
2020-01-23 15:23:27 GMT 49.140381 6.109032 37,000 91 486 0
2020-01-23 15:23:24 GMT 49.140591 6.095316 37,000 91 486 0
2020-01-23 15:23:21 GMT 49.140728 6.086859 37,000 91 486 0
2020-01-23 15:23:18 GMT 49.140915 6.073199 37,000 91 486 0
2020-01-23 15:23:14 GMT 49.141102 6.062791 37,000 91 486 0
2020-01-23 15:23:11 GMT 49.141239 6.052672 37,000 91 486 0
2020-01-23 15:23:08 GMT 49.141380 6.042480 37,000 93 485 0
2020-01-23 15:23:04 GMT 49.141663 6.024452 37,000 91 486 0
2020-01-23 15:23:01 GMT 49.141705 6.019496 37,000 91 486 0
2020-01-23 15:22:58 GMT 49.141891 6.007197 37,000 91 486 0
2020-01-23 15:22:53 GMT 49.142078 5.989356 37,000 91 486 64
2020-01-23 15:22:50 GMT 49.142265 5.977358 37,000 91 487 0
2020-01-23 15:22:47 GMT 49.142357 5.970202 37,000 91 487 0
2020-01-23 15:22:44 GMT 49.142670 5.945294 37,000 91 487 0
2020-01-23 15:22:41 GMT 49.142670 5.945294 37,000 91 487 0
2020-01-23 15:22:37 GMT 49.142822 5.935147 37,000 91 487 0
2020-01-23 15:22:34 GMT 49.142918 5.925823 37,000 91 487 0
2020-01-23 15:22:31 GMT 49.143055 5.915415 37,000 91 487 0
2020-01-23 15:22:28 GMT 49.143196 5.906597 37,000 91 487 0
2020-01-23 15:22:25 GMT 49.143383 5.892936 37,000 91 486 0
2020-01-23 15:22:22 GMT 49.143520 5.882528 37,000 91 486 0
2020-01-23 15:22:19 GMT 49.143616 5.875951 37,000 91 486 0
2020-01-23 15:22:16 GMT 49.143753 5.863591 37,000 91 486 0
2020-01-23 15:22:13 GMT 49.143860 5.853459 37,000 91 486 0
2020-01-23 15:22:10 GMT 49.143997 5.845290 37,000 91 486 0
2020-01-23 15:22:07 GMT 49.144135 5.833529 37,000 91 486 0
2020-01-23 15:22:04 GMT 49.144264 5.819790 37,000 90 486 0
2020-01-23 15:22:00 GMT 49.144501 5.802049 37,000 90 486 0
2020-01-23 15:21:57 GMT 49.144547 5.795216 37,000 90 486 0
2020-01-23 15:21:53 GMT 49.144638 5.785314 37,000 90 485 0
2020-01-23 15:21:50 GMT 49.144779 5.771942 37,000 90 485 0
2020-01-23 15:21:47 GMT 49.144867 5.764864 37,000 90 485 0
2020-01-23 15:21:43 GMT 49.145004 5.750920 37,000 90 485 0
2020-01-23 15:21:39 GMT 49.145149 5.737538 37,000 90 485 0
2020-01-23 15:21:36 GMT 49.145233 5.727680 37,000 90 485 0
2020-01-23 15:21:33 GMT 49.145336 5.719179 37,000 90 485 0
2020-01-23 15:21:29 GMT 49.145477 5.704217 37,000 90 485 0
2020-01-23 15:21:26 GMT 49.145615 5.691352 37,000 90 485 0
2020-01-23 15:21:22 GMT 49.145710 5.680438 37,000 90 484 0
2020-01-23 15:21:19 GMT 49.145847 5.665693 37,000 90 484 0
2020-01-23 15:21:16 GMT 49.145897 5.659115 37,000 90 484 0
2020-01-23 15:21:12 GMT 49.146034 5.645238 37,000 90 484 0
2020-01-23 15:21:08 GMT 49.146149 5.628592 37,000 90 484 0
2020-01-23 15:21:05 GMT 49.146267 5.618784 37,000 90 484 0
2020-01-23 15:21:01 GMT 49.146362 5.605991 37,000 90 483 0
2020-01-23 15:20:56 GMT 49.146454 5.591029 37,000 90 484 0
2020-01-23 15:20:53 GMT 49.146698 5.565984 37,000 90 483 0
2020-01-23 15:20:48 GMT 49.146698 5.565984 37,000 90 483 0
2020-01-23 15:20:45 GMT 49.146835 5.543377 37,025 90 483 0
2020-01-23 15:20:39 GMT 49.146919 5.533568 37,000 90 483 0
2020-01-23 15:20:36 GMT 49.147015 5.522148 37,000 90 483 0
2020-01-23 15:20:33 GMT 49.147110 5.512883 37,000 90 483 0
2020-01-23 15:20:30 GMT 49.147202 5.502319 37,000 90 481 0
2020-01-23 15:20:26 GMT 49.147293 5.491192 37,000 90 482 0
2020-01-23 15:20:23 GMT 49.147385 5.477552 37,000 90 482 0
2020-01-23 15:20:20 GMT 49.147476 5.467529 37,000 90 482 0
2020-01-23 15:20:17 GMT 49.147522 5.457177 37,000 90 482 0
2020-01-23 15:20:13 GMT 49.147713 5.434113 37,000 90 481 -64
2020-01-23 15:20:06 GMT 49.147888 5.416753 37,000 90 481 0
2020-01-23 15:20:03 GMT 49.147934 5.410274 37,000 90 482 0
2020-01-23 15:19:59 GMT 49.148083 5.393420 37,000 90 481 0
2020-01-23 15:19:55 GMT 49.148163 5.386118 37,000 90 481 0
2020-01-23 15:19:52 GMT 49.148315 5.372604 37,000 90 481 0
2020-01-23 15:19:46 GMT 49.148483 5.352243 37,000 90 481 0
2020-01-23 15:19:43 GMT 49.148598 5.344126 37,000 90 481 0
2020-01-23 15:19:39 GMT 49.148849 5.318650 37,000 90 482 0
2020-01-23 15:19:33 GMT 49.149124 5.288508 37,000 90 481 0
2020-01-23 15:19:27 GMT 49.149246 5.278497 37,000 90 481 0
2020-01-23 15:19:21 GMT 49.149529 5.248140 37,000 90 482 0
2020-01-23 15:19:15 GMT 49.149529 5.248140 37,000 90 481 0
2020-01-23 15:19:12 GMT 49.149628 5.239986 37,000 90 482 0
2020-01-23 15:19:06 GMT 49.149853 5.216627 37,000 90 482 0
2020-01-23 15:19:03 GMT 49.150040 5.190899 37,000 90 482 0
2020-01-23 15:18:58 GMT 49.150131 5.177885 37,000 90 482 0
2020-01-23 15:18:55 GMT 49.150223 5.166743 37,000 90 482 0
2020-01-23 15:18:47 GMT 49.150318 5.150998 37,000 90 482 0
2020-01-23 15:18:43 GMT 49.150406 5.140686 37,000 90 482 64
2020-01-23 15:18:40 GMT 49.150459 5.127435 37,000 90 482 0
2020-01-23 15:18:35 GMT 49.150543 5.110051 37,000 90 482 0
2020-01-23 15:18:32 GMT 49.150635 5.091036 37,000 90 482 0
2020-01-23 15:18:29 GMT 49.150635 5.091036 37,000 90 482 0
2020-01-23 15:18:23 GMT 49.150726 5.071458 37,000 90 482 0
2020-01-23 15:18:20 GMT 49.150784 5.057614 37,000 90 482 0
2020-01-23 15:18:15 GMT 49.150784 5.046772 37,000 90 482 0
2020-01-23 15:18:12 GMT 49.150879 5.020969 37,000 90 482 0
2020-01-23 15:18:08 GMT 49.150879 5.020969 37,000 90 482 0
2020-01-23 15:18:03 GMT 49.150909 5.000892 37,000 90 482 0
2020-01-23 15:18:00 GMT 49.150925 4.992491 37,000 90 482 0
2020-01-23 15:17:56 GMT 49.150955 4.981877 37,000 90 482 0
2020-01-23 15:17:52 GMT 49.150970 4.966688 37,000 90 482 0
2020-01-23 15:17:49 GMT 49.151001 4.954975 37,000 90 482 0
2020-01-23 15:17:42 GMT 49.151062 4.932717 37,000 90 482 0
2020-01-23 15:17:39 GMT 49.151062 4.921586 37,000 90 482 0
2020-01-23 15:17:35 GMT 49.151093 4.910959 37,000 90 482 0
2020-01-23 15:17:32 GMT 49.151112 4.898168 37,000 90 482 0
2020-01-23 15:17:29 GMT 49.151138 4.885676 37,000 90 482 64
2020-01-23 15:17:26 GMT 49.151157 4.879737 37,000 90 482 64
2020-01-23 15:17:22 GMT 49.151203 4.853933 37,000 90 483 64
2020-01-23 15:17:19 GMT 49.151203 4.843597 37,000 90 483 0
2020-01-23 15:17:11 GMT 49.151203 4.828925 37,000 90 483 0
2020-01-23 15:17:08 GMT 49.151203 4.817216 37,000 90 483 0
2020-01-23 15:17:05 GMT 49.151203 4.795966 37,000 89 482 0
2020-01-23 15:17:02 GMT 49.151203 4.795966 37,000 89 482 0
2020-01-23 15:16:56 GMT 49.151184 4.775038 37,000 89 483 -64
2020-01-23 15:16:50 GMT 49.151112 4.758237 37,000 89 482 0
2020-01-23 15:16:46 GMT 49.151093 4.740319 37,000 89 482 -64
2020-01-23 15:16:41 GMT 49.151047 4.725600 37,000 89 482 0
2020-01-23 15:16:38 GMT 49.151001 4.705036 37,000 89 482 0
2020-01-23 15:16:32 GMT 49.150970 4.691957 37,000 89 482 64
2020-01-23 15:16:29 GMT 49.150955 4.681091 37,000 89 482 0
2020-01-23 15:16:26 GMT 49.150909 4.670809 37,000 89 482 -64
2020-01-23 15:16:23 GMT 49.150879 4.654228 37,000 89 482 0
2020-01-23 15:16:20 GMT 49.150829 4.646133 37,000 89 482 0
2020-01-23 15:16:17 GMT 49.150784 4.630882 37,000 89 482 -64
2020-01-23 15:16:13 GMT 49.150784 4.630882 37,000 89 482 0
2020-01-23 15:16:10 GMT 49.150692 4.610282 37,025 89 482 0
2020-01-23 15:16:07 GMT 49.150635 4.593201 37,000 89 482 0
2020-01-23 15:16:02 GMT 49.150635 4.593201 37,000 89 482 0
2020-01-23 15:15:59 GMT 49.150597 4.585274 37,000 89 482 0
2020-01-23 15:15:56 GMT 49.150543 4.573622 37,000 89 482 0
2020-01-23 15:15:53 GMT 49.150406 4.552425 37,000 89 482 0
2020-01-23 15:15:47 GMT 49.150364 4.542413 37,000 89 482 0
2020-01-23 15:15:44 GMT 49.150314 4.532635 37,000 89 482 0
2020-01-23 15:15:39 GMT 49.150227 4.517405 37,000 89 482 0
2020-01-23 15:15:36 GMT 49.150131 4.507071 37,000 89 482 64
2020-01-23 15:15:32 GMT 49.149948 4.477492 37,000 89 482 -64
2020-01-23 15:15:26 GMT 49.149899 4.470424 37,000 89 482 -64
2020-01-23 15:15:23 GMT 49.149761 4.448957 37,000 89 482 0
2020-01-23 15:15:19 GMT 49.149761 4.448957 37,000 89 482 0
2020-01-23 15:15:16 GMT 49.149666 4.437609 37,000 89 482 0
2020-01-23 15:15:12 GMT 49.149582 4.422349 37,000 89 482 0
2020-01-23 15:15:09 GMT 49.149536 4.413123 37,000 89 482 0
2020-01-23 15:15:06 GMT 49.149445 4.399602 37,000 89 482 0
2020-01-23 15:15:02 GMT 49.149399 4.391151 37,000 89 482 0
2020-01-23 15:14:59 GMT 49.149353 4.380024 37,000 89 482 0
2020-01-23 15:14:56 GMT 49.149261 4.368896 37,000 89 482 0
2020-01-23 15:14:51 GMT 49.149155 4.349863 37,000 89 482 0
2020-01-23 15:14:47 GMT 49.149109 4.337431 37,000 89 482 0
2020-01-23 15:14:44 GMT 49.149033 4.329811 37,000 89 482 0
2020-01-23 15:14:40 GMT 49.148941 4.315655 37,000 89 482 0
2020-01-23 15:14:37 GMT 49.148876 4.303966 37,000 89 482 0
2020-01-23 15:14:34 GMT 49.148849 4.296640 37,000 89 482 0
2020-01-23 15:14:30 GMT 49.148758 4.279527 37,000 89 482 0
2020-01-23 15:14:27 GMT 49.148689 4.267610 37,000 89 482 0
2020-01-23 15:14:24 GMT 49.148643 4.260816 37,000 89 482 0
2020-01-23 15:14:21 GMT 49.148575 4.248329 37,000 89 482 0
2020-01-23 15:14:18 GMT 49.148457 4.229014 37,000 89 482 0
2020-01-23 15:14:15 GMT 49.148457 4.229014 37,000 89 482 0
2020-01-23 15:14:11 GMT 49.148361 4.215497 37,000 89 482 0
2020-01-23 15:14:08 GMT 49.148300 4.205158 37,000 89 482 0
2020-01-23 15:14:05 GMT 49.148209 4.195651 37,000 89 482 0
2020-01-23 15:14:02 GMT 49.148083 4.181527 37,000 89 482 -64
2020-01-23 15:13:58 GMT 49.148026 4.171213 37,000 89 482 -64
2020-01-23 15:13:54 GMT 49.147888 4.157903 37,000 89 481 0
2020-01-23 15:13:51 GMT 49.147804 4.149218 37,000 89 481 0
2020-01-23 15:13:48 GMT 49.147705 4.134310 37,000 89 481 0
2020-01-23 15:13:45 GMT 49.147617 4.127029 37,000 88 480 0
2020-01-23 15:13:42 GMT 49.147385 4.099661 37,000 89 481 0
2020-01-23 15:13:36 GMT 49.147385 4.099661 37,000 89 481 0
2020-01-23 15:13:32 GMT 49.147247 4.085613 37,000 88 480 0
2020-01-23 15:13:28 GMT 49.147110 4.072618 37,000 89 480 0
2020-01-23 15:13:25 GMT 49.147018 4.062547 37,000 88 480 0
2020-01-23 15:13:22 GMT 49.146835 4.049307 37,000 89 480 0
2020-01-23 15:13:14 GMT 49.146545 4.022586 37,000 88 480 0
2020-01-23 15:13:09 GMT 49.146362 4.005529 37,000 88 480 0
2020-01-23 15:13:06 GMT 49.146103 3.987403 37,000 88 480 0
2020-01-23 15:13:03 GMT 49.146103 3.987403 37,000 88 480 0
2020-01-23 15:13:00 GMT 49.145988 3.975244 37,000 88 480 0
2020-01-23 15:12:54 GMT 49.145756 3.956596 37,000 88 480 0
2020-01-23 15:12:51 GMT 49.145569 3.944742 37,000 89 478 0
2020-01-23 15:12:48 GMT 49.145432 3.932600 37,000 88 480 0
2020-01-23 15:12:45 GMT 49.145103 3.909326 37,000 88 480 0
2020-01-23 15:12:41 GMT 49.145103 3.909326 37,000 88 480 0
2020-01-23 15:12:36 GMT 49.144913 3.893667 37,000 88 480 0
2020-01-23 15:12:33 GMT 49.144730 3.880709 37,000 89 478 0
2020-01-23 15:12:29 GMT 49.144592 3.872329 37,000 88 480 0
2020-01-23 15:12:25 GMT 49.144409 3.857187 37,000 88 480 0
2020-01-23 15:12:21 GMT 49.144218 3.843408 37,000 88 480 0
2020-01-23 15:12:15 GMT 49.143940 3.822375 37,000 88 479 0
2020-01-23 15:12:12 GMT 49.143848 3.813991 37,000 88 479 -64
2020-01-23 15:12:09 GMT 49.143753 3.804522 37,000 88 479 0
2020-01-23 15:12:06 GMT 49.143585 3.794579 37,000 88 480 0
2020-01-23 15:12:03 GMT 49.143448 3.783804 37,000 88 479 0
2020-01-23 15:12:00 GMT 49.143311 3.772466 37,000 88 480 0
2020-01-23 15:11:57 GMT 49.143173 3.762184 37,000 88 480 64
2020-01-23 15:11:53 GMT 49.143009 3.747567 37,000 88 480 0
2020-01-23 15:11:49 GMT 49.142853 3.735422 37,000 88 480 0
2020-01-23 15:11:46 GMT 49.142731 3.724365 37,000 88 479 -64
2020-01-23 15:11:43 GMT 49.142635 3.715981 37,000 88 479 -64
2020-01-23 15:11:39 GMT 49.142487 3.702533 37,000 88 479 -64
2020-01-23 15:11:36 GMT 49.142220 3.679842 37,000 89 479 0
2020-01-23 15:11:29 GMT 49.142033 3.664519 37,000 89 479 0
2020-01-23 15:11:24 GMT 49.141891 3.650982 37,000 89 478 0
2020-01-23 15:11:19 GMT 49.141708 3.634573 37,000 89 478 0
2020-01-23 15:11:15 GMT 49.141571 3.621122 37,000 89 478 0
2020-01-23 15:11:11 GMT 49.141479 3.610347 37,000 89 478 0
2020-01-23 15:11:08 GMT 49.141342 3.596121 37,000 89 478 0
2020-01-23 15:11:05 GMT 49.141102 3.575905 37,000 89 478 0
2020-01-23 15:11:02 GMT 49.141102 3.575905 37,000 89 478 0
2020-01-23 15:10:57 GMT 49.140884 3.551683 37,000 89 477 0
2020-01-23 15:10:51 GMT 49.140682 3.531309 37,000 89 477 0
2020-01-23 15:10:48 GMT 49.140682 3.531309 37,000 89 477 64
2020-01-23 15:10:44 GMT 49.140518 3.518160 37,000 89 477 0
2020-01-23 15:10:41 GMT 49.140404 3.507674 37,000 89 477 0
2020-01-23 15:10:38 GMT 49.140308 3.497483 37,000 88 476 0
2020-01-23 15:10:33 GMT 49.140106 3.481610 37,000 88 476 0
2020-01-23 15:10:28 GMT 49.139877 3.463651 37,000 88 474 0
2020-01-23 15:10:22 GMT 49.139660 3.443563 37,000 88 476 0
2020-01-23 15:10:19 GMT 49.139473 3.430409 37,000 88 476 0
2020-01-23 15:10:16 GMT 49.139191 3.411183 37,000 88 475 0
2020-01-23 15:10:12 GMT 49.138958 3.392679 37,000 88 475 0
2020-01-23 15:10:07 GMT 49.138958 3.392679 37,000 88 474 0
2020-01-23 15:10:04 GMT 49.138821 3.380392 37,000 88 474 0
2020-01-23 15:10:01 GMT 49.138687 3.370267 37,000 89 474 0
2020-01-23 15:09:57 GMT 49.138458 3.350478 37,000 89 474 0
2020-01-23 15:09:50 GMT 49.138309 3.337169 37,000 89 473 -64
2020-01-23 15:09:46 GMT 49.138168 3.324376 37,000 89 473 0
2020-01-23 15:09:43 GMT 49.138092 3.314491 37,000 89 473 -64
2020-01-23 15:09:40 GMT 49.138000 3.304631 37,000 89 473 -64
2020-01-23 15:09:35 GMT 49.137817 3.286321 37,000 88 472 0
2020-01-23 15:09:32 GMT 49.137680 3.274630 37,000 88 472 0
2020-01-23 15:09:27 GMT 49.137379 3.261060 37,000 87 472 64
2020-01-23 15:09:23 GMT 49.136948 3.248009 37,000 86 473 0
2020-01-23 15:09:20 GMT 49.136444 3.236882 37,000 83 472 0
2020-01-23 15:09:16 GMT 49.135529 3.222797 37,000 83 473 0
2020-01-23 15:09:12 GMT 49.134350 3.208586 37,000 78 475 -64
2020-01-23 15:09:09 GMT 49.133698 3.201936 37,000 76 474 -64
2020-01-23 15:09:06 GMT 49.132370 3.190120 37,000 79 473 0
2020-01-23 15:09:03 GMT 49.131134 3.180683 37,000 76 475 0
2020-01-23 15:09:00 GMT 49.129440 3.168711 37,000 76 474 -64
2020-01-23 15:08:57 GMT 49.128204 3.160882 37,000 76 475 0
2020-01-23 15:08:54 GMT 49.126740 3.151527 37,000 76 474 -64
2020-01-23 15:08:51 GMT 49.124714 3.138765 37,000 76 474 -64
2020-01-23 15:08:48 GMT 49.122341 3.124020 37,000 76 474 -64
2020-01-23 15:08:45 GMT 49.122341 3.124020 37,000 76 474 0
2020-01-23 15:08:41 GMT 49.119827 3.108427 37,000 76 474 64
2020-01-23 15:08:35 GMT 49.116852 3.089764 37,000 76 474 0
2020-01-23 15:08:31 GMT 49.114986 3.078340 37,000 76 474 64
2020-01-23 15:08:28 GMT 49.113403 3.068221 37,000 76 474 -64
2020-01-23 15:08:25 GMT 49.111542 3.056805 37,000 76 474 0
2020-01-23 15:08:22 GMT 49.110489 3.050044 37,000 76 474 0
2020-01-23 15:08:19 GMT 49.107212 3.029841 37,000 76 473 0
2020-01-23 15:08:16 GMT 49.104904 3.015606 37,000 76 474 -64
2020-01-23 15:08:13 GMT 49.104904 3.015606 37,000 76 473 0
2020-01-23 15:08:10 GMT 49.103394 3.005989 37,000 76 473 0
2020-01-23 15:08:07 GMT 49.102066 2.998000 37,000 76 473 0
2020-01-23 15:08:02 GMT 49.100006 2.985323 37,000 76 473 0
2020-01-23 15:07:59 GMT 49.098225 2.974187 37,000 76 473 0
2020-01-23 15:07:56 GMT 49.096737 2.965152 37,000 76 473 0
2020-01-23 15:07:52 GMT 49.094410 2.950624 37,000 76 472 0
2020-01-23 15:07:49 GMT 49.090359 2.925833 37,000 76 473 0
2020-01-23 15:07:44 GMT 49.090359 2.925833 37,000 76 472 0
2020-01-23 15:07:40 GMT 49.088123 2.912100 37,000 76 472 0
2020-01-23 15:07:37 GMT 49.086540 2.902342 37,000 76 472 0
2020-01-23 15:07:34 GMT 49.085052 2.893018 37,000 76 472 0
2020-01-23 15:07:29 GMT 49.082428 2.877009 37,000 76 472 0
2020-01-23 15:07:26 GMT 49.079315 2.857643 37,000 76 472 0
2020-01-23 15:07:23 GMT 49.079315 2.857643 37,000 76 472 0
2020-01-23 15:07:18 GMT 49.075275 2.832883 37,000 76 472 0
2020-01-23 15:07:11 GMT 49.070946 2.806284 37,000 76 471 0
2020-01-23 15:07:08 GMT 49.070946 2.806284 37,000 76 471 0
2020-01-23 15:07:02 GMT 49.068153 2.789299 37,000 76 471 0
2020-01-23 15:06:59 GMT 49.066406 2.778485 37,000 76 471 0
2020-01-23 15:06:53 GMT 49.063202 2.758906 37,000 76 471 0
2020-01-23 15:06:47 GMT 49.060410 2.741934 37,000 76 471 0
2020-01-23 15:06:44 GMT 49.058441 2.730103 37,000 76 471 0
2020-01-23 15:06:40 GMT 49.056473 2.717989 37,000 75 472 0
2020-01-23 15:06:37 GMT 49.054607 2.706684 37,000 75 472 0
2020-01-23 15:06:33 GMT 49.050976 2.684567 37,000 75 472 0
2020-01-23 15:06:27 GMT 49.049953 2.678351 37,000 75 472 0
2020-01-23 15:06:24 GMT 49.048229 2.668088 37,000 75 472 0
2020-01-23 15:06:21 GMT 49.046539 2.657776 37,000 75 472 0
2020-01-23 15:06:18 GMT 49.044643 2.646187 37,000 75 472 0
2020-01-23 15:06:12 GMT 49.041321 2.626085 37,000 75 472 -64
2020-01-23 15:06:08 GMT 49.039570 2.615541 37,000 75 472 -64
2020-01-23 15:06:05 GMT 49.035233 2.589323 37,000 75 472 0
2020-01-23 15:06:01 GMT 49.035233 2.589323 37,000 75 472 0
2020-01-23 15:05:58 GMT 49.034168 2.582871 37,000 75 472 0
2020-01-23 15:05:55 GMT 49.032589 2.573041 37,000 76 471 0
2020-01-23 15:05:50 GMT 49.029831 2.556364 37,000 76 471 0
2020-01-23 15:05:44 GMT 49.026257 2.534445 37,000 76 472 64
2020-01-23 15:05:40 GMT 49.024906 2.526422 37,000 76 472 64
2020-01-23 15:05:37 GMT 49.023136 2.515363 37,000 76 472 64
2020-01-23 15:05:34 GMT 49.021500 2.505587 37,000 76 472 0
2020-01-23 15:05:31 GMT 49.019760 2.494742 37,000 76 472 -64
2020-01-23 15:05:28 GMT 49.018154 2.484934 37,000 76 472 -64
2020-01-23 15:05:25 GMT 49.016388 2.474092 37,000 76 472 0
2020-01-23 15:05:21 GMT 49.014130 2.460163 37,000 76 472 64
2020-01-23 15:05:18 GMT 49.013130 2.453999 37,000 76 472 64
2020-01-23 15:05:12 GMT 49.009918 2.434387 37,000 76 472 0
2020-01-23 15:05:09 GMT 49.008453 2.425373 37,000 75 473 0
2020-01-23 15:05:06 GMT 49.006889 2.415836 37,000 75 472 -64
2020-01-23 15:05:03 GMT 49.004791 2.403259 37,000 75 472 -64
2020-01-23 15:04:59 GMT 49.003212 2.394008 37,000 75 472 -64
2020-01-23 15:04:56 GMT 49.001305 2.382660 37,000 75 472 -64
2020-01-23 15:04:53 GMT 48.999252 2.370864 37,000 75 472 0
2020-01-23 15:04:50 GMT 48.998154 2.364455 37,025 75 471 0
2020-01-23 15:04:47 GMT 48.996368 2.354254 37,000 75 471 0
2020-01-23 15:04:44 GMT 48.994446 2.343539 37,000 74 471 64
2020-01-23 15:04:41 GMT 48.993019 2.335318 37,000 74 471 0
2020-01-23 15:04:38 GMT 48.989182 2.313890 37,000 74 471 0
2020-01-23 15:04:35 GMT 48.987759 2.305683 37,000 75 470 0
2020-01-23 15:04:28 GMT 48.985802 2.293685 37,000 76 470 0
2020-01-23 15:04:24 GMT 48.982590 2.270990 37,000 82 467 0
2020-01-23 15:04:18 GMT 48.980530 2.251845 37,000 81 467 -64
2020-01-23 15:04:12 GMT 48.978493 2.228924 37,000 82 466 0
2020-01-23 15:04:08 GMT 48.978493 2.228924 37,000 82 466 0
2020-01-23 15:04:05 GMT 48.977692 2.219309 37,000 82 465 0
2020-01-23 15:04:02 GMT 48.976868 2.209449 37,000 82 466 0
2020-01-23 15:03:59 GMT 48.976181 2.201421 37,000 82 466 0
2020-01-23 15:03:56 GMT 48.975235 2.189965 37,000 82 466 0
2020-01-23 15:03:52 GMT 48.973801 2.173391 37,000 82 466 0
2020-01-23 15:03:49 GMT 48.972164 2.154115 37,000 82 466 0
2020-01-23 15:03:45 GMT 48.972164 2.154115 37,000 82 466 0
2020-01-23 15:03:42 GMT 48.971092 2.141683 37,000 82 466 0
2020-01-23 15:03:38 GMT 48.970207 2.130986 37,000 82 466 0
2020-01-23 15:03:34 GMT 48.969276 2.120361 37,000 82 467 0
2020-01-23 15:03:31 GMT 48.968170 2.107333 37,000 82 467 0
2020-01-23 15:03:28 GMT 48.966389 2.086535 37,000 82 467 0
2020-01-23 15:03:24 GMT 48.966389 2.086535 37,000 82 467 0
2020-01-23 15:03:21 GMT 48.965691 2.078440 37,000 82 467 0
2020-01-23 15:03:18 GMT 48.964600 2.065711 37,000 82 467 0
2020-01-23 15:03:15 GMT 48.964016 2.058708 37,000 82 467 0
2020-01-23 15:03:11 GMT 48.962769 2.044373 37,000 82 467 0
2020-01-23 15:03:08 GMT 48.961945 2.034795 37,000 82 467 0
2020-01-23 15:03:05 GMT 48.960991 2.023870 37,000 82 467 0
2020-01-23 15:03:02 GMT 48.960197 2.015052 37,000 82 467 0
2020-01-23 15:02:59 GMT 48.959034 2.001536 37,000 82 467 0
2020-01-23 15:02:53 GMT 48.957779 1.986976 37,000 82 467 0
2020-01-23 15:02:49 GMT 48.956543 1.972680 37,000 82 467 0
2020-01-23 15:02:46 GMT 48.955856 1.964651 37,000 82 467 0
2020-01-23 15:02:43 GMT 48.955032 1.955285 37,000 82 467 0
2020-01-23 15:02:40 GMT 48.954193 1.945664 37,000 82 467 0
2020-01-23 15:02:37 GMT 48.953075 1.932726 37,000 82 467 0
2020-01-23 15:02:31 GMT 48.951279 1.911973 37,000 82 467 0
2020-01-23 15:02:27 GMT 48.949997 1.897395 37,000 82 467 0
2020-01-23 15:02:24 GMT 48.949165 1.888058 37,000 82 467 0
2020-01-23 15:02:21 GMT 48.948467 1.880252 37,000 82 467 0
2020-01-23 15:02:18 GMT 48.947723 1.871723 37,000 82 467 0
2020-01-23 15:02:15 GMT 48.946747 1.860563 37,000 82 467 0
2020-01-23 15:02:07 GMT 48.943859 1.827055 37,000 82 466 0
2020-01-23 15:02:01 GMT 48.942993 1.817463 37,000 82 466 0
2020-01-23 15:01:58 GMT 48.942307 1.809434 37,000 82 466 0
2020-01-23 15:01:55 GMT 48.940933 1.793870 37,000 82 466 0
2020-01-23 15:01:52 GMT 48.940384 1.787673 37,000 82 466 0
2020-01-23 15:01:48 GMT 48.939194 1.774222 37,000 82 466 0
2020-01-23 15:01:45 GMT 48.938412 1.765908 37,000 82 466 0
2020-01-23 15:01:41 GMT 48.937271 1.752742 37,000 82 465 0
2020-01-23 15:01:38 GMT 48.936363 1.742634 37,000 82 466 0
2020-01-23 15:01:35 GMT 48.935528 1.733310 37,000 82 465 0
2020-01-23 15:01:32 GMT 48.934525 1.722177 37,000 82 465 0
2020-01-23 15:01:27 GMT 48.933380 1.709501 37,000 82 465 0
2020-01-23 15:01:24 GMT 48.932373 1.698374 37,000 82 465 0
2020-01-23 15:01:21 GMT 48.931412 1.687528 37,000 82 465 0
2020-01-23 15:01:17 GMT 48.930359 1.675908 37,000 82 465 0
2020-01-23 15:01:14 GMT 48.929150 1.662477 37,000 82 465 0
2020-01-23 15:01:08 GMT 48.927338 1.642315 37,000 82 465 0
2020-01-23 15:01:05 GMT 48.926586 1.633999 37,000 82 465 0
2020-01-23 15:01:02 GMT 48.925873 1.625765 37,000 82 465 0
2020-01-23 15:00:59 GMT 48.925095 1.616962 37,000 82 465 0
2020-01-23 15:00:55 GMT 48.923904 1.604074 37,000 82 465 0
2020-01-23 15:00:50 GMT 48.921844 1.581327 37,000 82 465 0
2020-01-23 15:00:47 GMT 48.921280 1.574876 37,000 82 465 0
2020-01-23 15:00:44 GMT 48.920700 1.568439 37,000 82 465 0
2020-01-23 15:00:41 GMT 48.919746 1.558107 37,000 82 465 0
2020-01-23 15:00:37 GMT 48.918488 1.544663 37,000 82 465 0
2020-01-23 15:00:34 GMT 48.917770 1.536396 37,000 82 464 0
2020-01-23 15:00:31 GMT 48.916763 1.525269 37,000 82 464 0
2020-01-23 15:00:26 GMT 48.915344 1.510057 37,000 82 464 0
2020-01-23 15:00:22 GMT 48.914299 1.498694 37,000 82 464 0
2020-01-23 15:00:19 GMT 48.913506 1.489659 37,000 82 464 0
2020-01-23 15:00:16 GMT 48.912048 1.473717 37,000 82 464 0
2020-01-23 15:00:13 GMT 48.911598 1.469060 37,000 82 464 0
2020-01-23 15:00:10 GMT 48.910713 1.459230 37,000 82 464 0
2020-01-23 15:00:07 GMT 48.909851 1.449984 37,000 82 464 0
2020-01-23 15:00:04 GMT 48.909039 1.440655 37,000 82 464 0
2020-01-23 15:00:01 GMT 48.908112 1.430899 37,000 82 464 0
2020-01-23 14:59:58 GMT 48.905869 1.406391 37,000 82 464 0
2020-01-23 14:59:54 GMT 48.905869 1.406391 37,000 82 464 0
2020-01-23 14:59:48 GMT 48.904266 1.389137 37,000 82 464 0
2020-01-23 14:59:45 GMT 48.903172 1.377049 37,000 82 464 0
2020-01-23 14:59:41 GMT 48.901775 1.361799 37,000 82 463 0
2020-01-23 14:59:37 GMT 48.901031 1.354065 37,000 82 463 0
2020-01-23 14:59:34 GMT 48.899689 1.339417 37,000 81 462 0
2020-01-23 14:59:31 GMT 48.899261 1.334550 37,000 82 463 -64
2020-01-23 14:59:28 GMT 48.898098 1.321901 37,000 81 463 -64
2020-01-23 14:59:25 GMT 48.897079 1.311106 37,000 81 462 0
2020-01-23 14:59:22 GMT 48.896484 1.304697 37,000 81 463 -64
2020-01-23 14:59:19 GMT 48.895477 1.293922 37,000 81 462 0
2020-01-23 14:59:16 GMT 48.894608 1.284678 37,000 81 462 64
2020-01-23 14:59:12 GMT 48.893600 1.273639 37,000 81 462 0
2020-01-23 14:59:09 GMT 48.892651 1.263645 37,000 81 462 0
2020-01-23 14:59:06 GMT 48.891632 1.252582 37,000 81 462 64
2020-01-23 14:59:03 GMT 48.890602 1.241816 37,000 81 462 0
2020-01-23 14:59:00 GMT 48.890030 1.235610 37,000 81 462 0
2020-01-23 14:58:57 GMT 48.888927 1.224108 37,000 81 462 0
2020-01-23 14:58:54 GMT 48.887650 1.210468 37,000 81 462 0
2020-01-23 14:58:50 GMT 48.886787 1.200979 37,000 81 462 0
2020-01-23 14:58:46 GMT 48.885361 1.186101 37,000 81 462 0
2020-01-23 14:58:43 GMT 48.884689 1.178934 37,000 81 463 0
2020-01-23 14:58:39 GMT 48.883247 1.163467 37,000 81 463 0
2020-01-23 14:58:36 GMT 48.881607 1.146522 37,000 81 464 0
2020-01-23 14:58:33 GMT 48.881607 1.146522 37,000 81 463 0
2020-01-23 14:58:30 GMT 48.880920 1.139109 37,000 81 463 0
2020-01-23 14:58:27 GMT 48.880005 1.129549 37,000 81 463 0
2020-01-23 14:58:24 GMT 48.878731 1.115980 37,000 81 463 0
2020-01-23 14:58:21 GMT 48.877800 1.106150 37,000 81 463 0
2020-01-23 14:58:18 GMT 48.877029 1.097929 37,000 81 463 0
2020-01-23 14:58:14 GMT 48.875839 1.085604 37,000 81 463 0
2020-01-23 14:58:11 GMT 48.874786 1.074336 37,000 81 463 0
2020-01-23 14:58:08 GMT 48.873779 1.064054 37,000 81 463 0
2020-01-23 14:58:04 GMT 48.872868 1.054254 37,000 81 463 0
2020-01-23 14:58:01 GMT 48.871948 1.044758 37,000 81 463 0
2020-01-23 14:57:58 GMT 48.871006 1.034450 37,000 81 463 0
2020-01-23 14:57:55 GMT 48.869797 1.021869 37,000 81 463 0
2020-01-23 14:57:52 GMT 48.869190 1.015657 37,000 81 463 0
2020-01-23 14:57:49 GMT 48.868351 1.006695 37,000 81 463 0
2020-01-23 14:57:46 GMT 48.866116 0.983493 37,000 81 463 0
2020-01-23 14:57:42 GMT 48.866116 0.983493 37,000 81 464 0
2020-01-23 14:57:39 GMT 48.864990 0.971938 37,000 81 464 0
2020-01-23 14:57:35 GMT 48.863697 0.958340 37,000 81 464 0
2020-01-23 14:57:32 GMT 48.861835 0.939042 37,000 81 464 0
2020-01-23 14:57:28 GMT 48.861835 0.939042 37,000 81 464 0
2020-01-23 14:57:25 GMT 48.860718 0.927405 37,000 81 464 0
2020-01-23 14:57:22 GMT 48.859924 0.919165 37,000 81 464 0
2020-01-23 14:57:19 GMT 48.858994 0.909682 37,000 81 464 0
2020-01-23 14:57:16 GMT 48.856712 0.886206 37,000 81 464 0
2020-01-23 14:57:13 GMT 48.856712 0.886206 37,000 81 464 0
2020-01-23 14:57:07 GMT 48.855240 0.871019 37,000 81 464 0
2020-01-23 14:57:03 GMT 48.854107 0.859174 37,000 81 464 0
2020-01-23 14:57:00 GMT 48.853081 0.848622 37,000 81 464 0
2020-01-23 14:56:57 GMT 48.852058 0.837780 37,000 81 464 0
2020-01-23 14:56:54 GMT 48.849747 0.813833 37,000 81 464 0
2020-01-23 14:56:50 GMT 48.849747 0.813833 37,000 81 464 0
2020-01-23 14:56:46 GMT 48.848518 0.800990 37,000 81 464 0
2020-01-23 14:56:43 GMT 48.847820 0.793762 37,000 81 464 0
2020-01-23 14:56:39 GMT 48.845535 0.769536 37,000 81 464 0
2020-01-23 14:56:33 GMT 48.844666 0.760522 37,000 81 464 0
2020-01-23 14:56:30 GMT 48.842888 0.742011 37,000 81 464 0
2020-01-23 14:56:24 GMT 48.841965 0.732211 37,000 81 464 0
2020-01-23 14:56:21 GMT 48.840000 0.711365 37,000 81 464 0
2020-01-23 14:56:18 GMT 48.840000 0.711365 37,000 81 464 0
2020-01-23 14:56:15 GMT 48.839115 0.702113 37,000 81 463 0
2020-01-23 14:56:11 GMT 48.837997 0.690549 37,000 80 464 0
2020-01-23 14:56:08 GMT 48.836975 0.679996 37,000 81 464 0
2020-01-23 14:56:05 GMT 48.835190 0.661504 37,000 81 462 0
2020-01-23 14:55:59 GMT 48.833267 0.642489 37,000 81 464 0
2020-01-23 14:55:53 GMT 48.832134 0.631714 37,000 80 464 0
2020-01-23 14:55:47 GMT 48.830063 0.612488 37,000 80 464 0
2020-01-23 14:55:43 GMT 48.828964 0.602276 37,000 80 463 -64
2020-01-23 14:55:40 GMT 48.827663 0.590732 37,025 92 459 0
2020-01-23 14:55:37 GMT 48.826595 0.581336 37,025 80 463 -64
2020-01-23 14:55:34 GMT 48.825382 0.571072 37,025 80 463 0
2020-01-23 14:55:31 GMT 48.824219 0.560592 37,025 80 463 0
2020-01-23 14:55:28 GMT 48.823059 0.550373 37,025 80 462 64
2020-01-23 14:55:25 GMT 48.822266 0.542450 37,000 81 462 64
2020-01-23 14:55:22 GMT 48.821411 0.533259 37,000 82 462 64
2020-01-23 14:55:19 GMT 48.820587 0.521428 37,000 84 461 64
2020-01-23 14:55:15 GMT 48.819798 0.503130 37,000 88 461 0
2020-01-23 14:55:09 GMT 48.819656 0.491783 37,000 90 460 -64
2020-01-23 14:55:06 GMT 48.819763 0.479173 37,000 91 460 -64
2020-01-23 14:55:03 GMT 48.819946 0.470933 37,000 92 459 64
2020-01-23 14:55:00 GMT 48.820221 0.461426 37,000 92 459 64
2020-01-23 14:54:57 GMT 48.820496 0.454487 37,000 92 459 0
2020-01-23 14:54:54 GMT 48.820869 0.442417 37,000 92 459 0
2020-01-23 14:54:50 GMT 48.821239 0.431647 37,000 92 459 0
2020-01-23 14:54:47 GMT 48.821659 0.419360 37,000 92 459 0
2020-01-23 14:54:41 GMT 48.822266 0.400350 37,000 92 459 0
2020-01-23 14:54:38 GMT 48.822498 0.393629 37,000 92 459 0
2020-01-23 14:54:35 GMT 48.822830 0.384169 37,000 92 459 0
2020-01-23 14:54:31 GMT 48.823242 0.370507 37,000 92 459 0
2020-01-23 14:54:28 GMT 48.823566 0.361537 37,000 92 459 0
2020-01-23 14:54:25 GMT 48.823883 0.350999 37,000 92 459 0
2020-01-23 14:54:21 GMT 48.824265 0.339492 37,000 92 459 0
2020-01-23 14:54:18 GMT 48.825058 0.315062 37,000 92 458 0
2020-01-23 14:54:15 GMT 48.825336 0.305304 37,000 92 459 0
2020-01-23 14:54:11 GMT 48.825336 0.305304 37,000 92 458 0
2020-01-23 14:54:08 GMT 48.826035 0.283259 37,000 92 458 0
2020-01-23 14:54:05 GMT 48.826035 0.283259 37,000 92 458 0
2020-01-23 14:53:59 GMT 48.826538 0.267404 37,000 92 458 0
2020-01-23 14:53:56 GMT 48.826813 0.258179 37,000 92 458 0
2020-01-23 14:53:53 GMT 48.827133 0.246911 37,000 92 458 0
2020-01-23 14:53:50 GMT 48.827408 0.238178 37,000 92 458 0
2020-01-23 14:53:47 GMT 48.827728 0.227685 37,000 92 458 0
2020-01-23 14:53:44 GMT 48.828083 0.214884 37,000 92 458 0
2020-01-23 14:53:41 GMT 48.828270 0.208451 37,000 92 458 0
2020-01-23 14:53:38 GMT 48.828548 0.199272 37,000 92 458 0
2020-01-23 14:53:34 GMT 48.829155 0.178239 37,000 92 458 0
2020-01-23 14:53:31 GMT 48.829762 0.158290 37,000 92 458 0
2020-01-23 14:53:26 GMT 48.829990 0.149327 37,000 92 458 0
2020-01-23 14:53:20 GMT 48.830227 0.141883 37,000 92 458 0
2020-01-23 14:53:17 GMT 48.830505 0.132414 37,000 92 458 0
2020-01-23 14:53:13 GMT 48.831024 0.115990 37,000 92 458 0
2020-01-23 14:53:09 GMT 48.831760 0.093167 37,000 92 458 0
2020-01-23 14:53:05 GMT 48.832123 0.081623 37,000 92 458 0
2020-01-23 14:53:01 GMT 48.832123 0.081623 37,000 92 458 0
2020-01-23 14:52:58 GMT 48.832600 0.068303 37,000 92 458 0
2020-01-23 14:52:55 GMT 48.832809 0.061411 37,000 92 458 0
2020-01-23 14:52:52 GMT 48.833221 0.049650 37,000 92 458 0
2020-01-23 14:52:48 GMT 48.833908 0.027325 37,000 92 458 0
2020-01-23 14:52:45 GMT 48.833908 0.027325 37,000 92 458 0
2020-01-23 14:52:41 GMT 48.834324 0.015034 37,000 92 458 0
2020-01-23 14:52:37 GMT 48.834732 0.001409 37,000 92 458 0
2020-01-23 14:52:34 GMT 48.835144 -0.013662 37,000 92 458 0
2020-01-23 14:52:28 GMT 48.835438 -0.022912 37,000 92 458 0
2020-01-23 14:52:25 GMT 48.835876 -0.037537 37,000 92 458 0
2020-01-23 14:52:19 GMT 48.836334 -0.054227 37,000 92 458 0
2020-01-23 14:52:16 GMT 48.836700 -0.066763 37,000 92 458 0
2020-01-23 14:52:12 GMT 48.837021 -0.077045 37,000 92 458 0
2020-01-23 14:52:05 GMT 48.837662 -0.099652 37,000 92 459 0
2020-01-23 14:52:02 GMT 48.837936 -0.109370 37,000 92 459 0
2020-01-23 14:51:58 GMT 48.838230 -0.119621 37,000 92 459 0
2020-01-23 14:51:54 GMT 48.838577 -0.132188 37,000 92 459 0
2020-01-23 14:51:50 GMT 48.839035 -0.147329 37,000 92 459 0
2020-01-23 14:51:46 GMT 48.839676 -0.171011 37,000 92 459 0
2020-01-23 14:51:42 GMT 48.839676 -0.171011 37,000 92 459 0
2020-01-23 14:51:39 GMT 48.840050 -0.184382 37,000 92 459 0
2020-01-23 14:51:36 GMT 48.840328 -0.193851 37,000 92 459 0
2020-01-23 14:51:33 GMT 48.840511 -0.200573 37,000 92 459 0
2020-01-23 14:51:30 GMT 48.840820 -0.212121 37,000 92 458 0
2020-01-23 14:51:26 GMT 48.841095 -0.222403 37,000 92 458 0
2020-01-23 14:51:23 GMT 48.841370 -0.232192 37,000 92 459 0
2020-01-23 14:51:20 GMT 48.841724 -0.244229 37,000 92 459 0
2020-01-23 14:51:15 GMT 48.842377 -0.269658 37,000 92 459 0
2020-01-23 14:51:09 GMT 48.842655 -0.278417 37,000 92 459 0
2020-01-23 14:51:06 GMT 48.842880 -0.287687 37,000 92 459 0
2020-01-23 14:51:03 GMT 48.843201 -0.299237 37,000 92 459 0
2020-01-23 14:51:00 GMT 48.843521 -0.310505 37,000 92 459 0
2020-01-23 14:50:57 GMT 48.843658 -0.316913 37,000 92 459 0
2020-01-23 14:50:54 GMT 48.844025 -0.329238 37,000 92 459 0
2020-01-23 14:50:48 GMT 48.844421 -0.345419 37,000 92 459 0
2020-01-23 14:50:45 GMT 48.844704 -0.355176 37,000 92 458 0
2020-01-23 14:50:42 GMT 48.845028 -0.366958 37,000 92 458 0
2020-01-23 14:50:38 GMT 48.845402 -0.381052 37,000 92 458 0
2020-01-23 14:50:35 GMT 48.845535 -0.386493 37,000 92 458 0
2020-01-23 14:50:32 GMT 48.846146 -0.410325 37,000 92 458 0
2020-01-23 14:50:28 GMT 48.846405 -0.419804 37,000 92 458 0
2020-01-23 14:50:25 GMT 48.846405 -0.419804 37,000 92 458 0
2020-01-23 14:50:22 GMT 48.846752 -0.432876 37,000 92 458 0
2020-01-23 14:50:19 GMT 48.846954 -0.440510 37,000 91 459 0
2020-01-23 14:50:14 GMT 48.847549 -0.464384 37,000 92 458 0
2020-01-23 14:50:11 GMT 48.847549 -0.464384 37,000 92 458 0
2020-01-23 14:50:08 GMT 48.847820 -0.475376 37,000 92 458 0
2020-01-23 14:50:05 GMT 48.848057 -0.484338 37,000 92 458 0
2020-01-23 14:49:59 GMT 48.848511 -0.502554 37,000 92 458 0
2020-01-23 14:49:53 GMT 48.849243 -0.532274 37,000 92 458 0
2020-01-23 14:49:50 GMT 48.849243 -0.532274 37,000 92 458 0
2020-01-23 14:49:47 GMT 48.849518 -0.542556 37,000 92 458 0
2020-01-23 14:49:44 GMT 48.849747 -0.552274 37,000 92 458 0
2020-01-23 14:49:40 GMT 48.850010 -0.562543 37,000 92 458 0
2020-01-23 14:49:37 GMT 48.850296 -0.573824 37,000 92 458 0
2020-01-23 14:49:34 GMT 48.850475 -0.582565 37,000 92 458 0
2020-01-23 14:49:31 GMT 48.850708 -0.590726 37,000 92 458 0
2020-01-23 14:49:28 GMT 48.851028 -0.605375 37,000 92 458 0
2020-01-23 14:49:24 GMT 48.851257 -0.615094 37,000 92 458 0
2020-01-23 14:49:21 GMT 48.851547 -0.626871 37,000 92 458 0
2020-01-23 14:49:16 GMT 48.851826 -0.638942 37,000 92 458 0
2020-01-23 14:49:13 GMT 48.852173 -0.651785 37,000 92 458 0
2020-01-23 14:49:10 GMT 48.852310 -0.658968 37,000 91 459 0
2020-01-23 14:49:06 GMT 48.852615 -0.671828 37,000 92 458 64
2020-01-23 14:49:02 GMT 48.853035 -0.690259 37,000 91 459 0
2020-01-23 14:48:59 GMT 48.853176 -0.694885 37,000 91 459 0
2020-01-23 14:48:56 GMT 48.853409 -0.706233 37,000 91 459 0
2020-01-23 14:48:53 GMT 48.853638 -0.714675 37,000 91 459 0
2020-01-23 14:48:50 GMT 48.853828 -0.724447 37,000 91 459 0
2020-01-23 14:48:47 GMT 48.854107 -0.736518 37,000 91 459 0
2020-01-23 14:48:44 GMT 48.854233 -0.741648 37,000 91 459 0
2020-01-23 14:48:40 GMT 48.854664 -0.760153 37,000 91 459 0
2020-01-23 14:48:37 GMT 48.854782 -0.764747 37,000 91 459 0
2020-01-23 14:48:34 GMT 48.855011 -0.774747 37,000 91 459 0
2020-01-23 14:48:28 GMT 48.855457 -0.795063 37,000 91 459 0
2020-01-23 14:48:24 GMT 48.856064 -0.820242 37,000 91 459 0
2020-01-23 14:48:20 GMT 48.856064 -0.820242 37,000 91 459 0
2020-01-23 14:48:16 GMT 48.856293 -0.831781 37,000 91 459 0
2020-01-23 14:48:13 GMT 48.856575 -0.843345 37,000 91 459 0
2020-01-23 14:48:10 GMT 48.856853 -0.856211 37,000 91 460 64
2020-01-23 14:48:06 GMT 48.857117 -0.868835 37,000 91 459 0
2020-01-23 14:48:03 GMT 48.857273 -0.875220 37,000 91 459 0
2020-01-23 14:48:00 GMT 48.857483 -0.884470 37,000 91 459 0
2020-01-23 14:47:57 GMT 48.857738 -0.897626 37,000 91 459 0
2020-01-23 14:47:54 GMT 48.857876 -0.904059 37,000 91 459 0
2020-01-23 14:47:51 GMT 48.858078 -0.913555 37,000 91 459 0
2020-01-23 14:47:48 GMT 48.858261 -0.922077 37,000 91 459 0
2020-01-23 14:47:45 GMT 48.858490 -0.932570 37,000 91 459 64
2020-01-23 14:47:41 GMT 48.858761 -0.943668 37,000 91 460 64
2020-01-23 14:47:35 GMT 48.859180 -0.964484 37,000 91 460 64
2020-01-23 14:47:32 GMT 48.859459 -0.976844 37,000 91 460 0
2020-01-23 14:47:28 GMT 48.859646 -0.986601 37,000 91 460 0
2020-01-23 14:47:25 GMT 48.859955 -1.000531 37,000 91 459 -64
2020-01-23 14:47:19 GMT 48.860275 -1.016728 37,000 91 460 -64
2020-01-23 14:47:14 GMT 48.860641 -1.034757 37,000 91 459 -64
2020-01-23 14:47:11 GMT 48.860855 -1.046086 37,000 91 459 0
2020-01-23 14:47:08 GMT 48.861008 -1.052223 37,000 91 459 0
2020-01-23 14:47:05 GMT 48.861229 -1.062277 37,000 91 459 0
2020-01-23 14:47:02 GMT 48.861320 -1.068710 37,000 91 459 0
2020-01-23 14:46:59 GMT 48.861603 -1.081286 37,000 91 458 0
2020-01-23 14:46:55 GMT 48.861835 -1.093356 37,000 91 458 0
2020-01-23 14:46:51 GMT 48.862106 -1.105675 37,000 91 458 0
2020-01-23 14:46:48 GMT 48.862610 -1.132085 37,000 91 458 0
2020-01-23 14:46:43 GMT 48.862610 -1.132085 37,000 91 458 0
2020-01-23 14:46:40 GMT 48.862793 -1.141310 37,000 91 458 0
2020-01-23 14:46:36 GMT 48.863205 -1.163354 37,000 91 458 0
2020-01-23 14:46:30 GMT 48.863651 -1.184933 37,000 91 458 0
2020-01-23 14:46:27 GMT 48.863651 -1.184933 37,000 91 458 0
2020-01-23 14:46:22 GMT 48.863880 -1.197437 37,000 91 458 0
2020-01-23 14:46:16 GMT 48.864258 -1.217722 37,000 91 458 0
2020-01-23 14:46:12 GMT 48.864670 -1.239061 37,000 91 458 0
2020-01-23 14:46:09 GMT 48.864899 -1.251596 37,000 91 458 0
2020-01-23 14:46:05 GMT 48.864899 -1.251596 37,000 91 458 0
2020-01-23 14:46:02 GMT 48.865128 -1.264414 37,000 91 458 0
2020-01-23 14:45:59 GMT 48.865280 -1.272679 37,000 91 458 0
2020-01-23 14:45:55 GMT 48.865604 -1.288581 37,000 91 458 0
2020-01-23 14:45:52 GMT 48.865700 -1.294507 37,000 91 459 0
2020-01-23 14:45:49 GMT 48.865883 -1.305783 37,000 91 459 0
2020-01-23 14:45:46 GMT 48.866211 -1.324286 37,000 91 459 0
2020-01-23 14:45:40 GMT 48.866444 -1.336068 37,000 91 459 0
2020-01-23 14:45:37 GMT 48.866535 -1.342500 37,000 91 459 0
2020-01-23 14:45:34 GMT 48.866730 -1.352023 37,000 91 459 64
2020-01-23 14:45:31 GMT 48.866867 -1.361248 37,000 91 459 0
2020-01-23 14:45:28 GMT 48.867096 -1.373573 37,000 91 459 0
2020-01-23 14:45:24 GMT 48.867374 -1.389265 37,000 91 459 0
2020-01-23 14:45:21 GMT 48.867466 -1.395625 37,000 91 459 0
2020-01-23 14:45:18 GMT 48.867653 -1.404877 37,000 91 458 0
2020-01-23 14:45:15 GMT 48.867794 -1.413912 37,000 91 459 0
2020-01-23 14:45:12 GMT 48.867966 -1.423152 37,000 91 459 64
2020-01-23 14:45:09 GMT 48.868103 -1.431885 37,000 91 459 0
2020-01-23 14:45:06 GMT 48.868305 -1.443401 37,000 91 459 0
2020-01-23 14:45:03 GMT 48.868538 -1.456773 37,000 91 459 0
2020-01-23 14:44:59 GMT 48.869019 -1.485337 37,000 91 459 0
2020-01-23 14:44:54 GMT 48.869156 -1.493296 37,000 91 459 0
2020-01-23 14:44:50 GMT 48.869385 -1.508437 37,000 91 459 0
2020-01-23 14:44:44 GMT 48.869469 -1.513078 37,000 91 459 0
2020-01-23 14:44:41 GMT 48.869656 -1.524859 37,000 91 459 0
2020-01-23 14:44:37 GMT 48.869888 -1.540269 37,000 91 459 0
2020-01-23 14:44:34 GMT 48.870209 -1.559566 37,000 91 458 0
2020-01-23 14:44:30 GMT 48.870209 -1.559566 37,000 91 459 0
2020-01-23 14:44:26 GMT 48.870392 -1.571115 37,000 91 458 0
2020-01-23 14:44:23 GMT 48.870575 -1.581397 37,000 91 458 0
2020-01-23 14:44:20 GMT 48.870678 -1.590054 37,000 91 458 0
2020-01-23 14:44:17 GMT 48.870850 -1.601116 37,000 91 458 0
2020-01-23 14:44:14 GMT 48.871052 -1.611665 37,000 91 458 0
2020-01-23 14:44:11 GMT 48.871124 -1.618793 37,000 91 458 0
2020-01-23 14:44:08 GMT 48.871471 -1.641661 37,000 91 458 0
2020-01-23 14:44:04 GMT 48.871471 -1.641661 37,000 91 458 0
2020-01-23 14:44:01 GMT 48.871658 -1.652141 37,000 91 458 0
2020-01-23 14:43:58 GMT 48.871811 -1.661682 37,000 91 458 0
2020-01-23 14:43:55 GMT 48.871902 -1.669640 37,000 91 458 0
2020-01-23 14:43:52 GMT 48.872086 -1.680908 37,000 91 458 0
2020-01-23 14:43:49 GMT 48.872223 -1.689641 37,000 91 458 0
2020-01-23 14:43:46 GMT 48.872360 -1.698867 37,000 91 458 0
2020-01-23 14:43:43 GMT 48.872540 -1.710398 37,000 91 458 0
2020-01-23 14:43:40 GMT 48.872822 -1.731142 37,000 91 458 0
2020-01-23 14:43:37 GMT 48.872910 -1.738305 37,000 91 458 0
2020-01-23 14:43:31 GMT 48.873093 -1.748305 37,000 91 458 0
2020-01-23 14:43:25 GMT 48.873367 -1.767320 37,000 91 458 0
2020-01-23 14:43:21 GMT 48.873550 -1.780630 37,000 91 458 0
2020-01-23 14:43:17 GMT 48.873707 -1.791422 37,000 91 458 0
2020-01-23 14:43:14 GMT 48.873844 -1.802408 37,000 91 458 0
2020-01-23 14:43:10 GMT 48.874031 -1.817081 37,000 91 459 0
2020-01-23 14:43:06 GMT 48.874264 -1.832187 37,000 91 459 0
2020-01-23 14:43:03 GMT 48.874451 -1.845559 37,000 91 458 0
2020-01-23 14:42:57 GMT 48.874638 -1.860665 37,000 91 458 0
2020-01-23 14:42:53 GMT 48.874729 -1.868905 37,000 91 459 0
2020-01-23 14:42:50 GMT 48.874870 -1.879457 37,000 91 459 0
2020-01-23 14:42:46 GMT 48.875008 -1.890227 37,000 91 458 0
2020-01-23 14:42:43 GMT 48.875336 -1.913875 37,000 91 459 0
2020-01-23 14:42:39 GMT 48.875336 -1.913875 37,000 91 459 0
2020-01-23 14:42:34 GMT 48.875565 -1.930565 37,000 91 459 0
2020-01-23 14:42:31 GMT 48.875660 -1.941038 37,000 91 458 0
2020-01-23 14:42:27 GMT 48.875839 -1.953876 37,000 91 458 0
2020-01-23 14:42:24 GMT 48.875938 -1.961349 37,000 91 458 0
2020-01-23 14:42:21 GMT 48.876068 -1.971342 37,000 91 457 0
2020-01-23 14:42:18 GMT 48.876171 -1.981081 37,000 91 458 0
2020-01-23 14:42:14 GMT 48.876312 -1.993440 37,000 91 457 0
2020-01-23 14:42:11 GMT 48.876450 -2.004427 37,000 91 457 0
2020-01-23 14:42:08 GMT 48.876591 -2.014907 37,000 91 457 0
2020-01-23 14:42:05 GMT 48.876732 -2.024665 37,000 91 457 0
2020-01-23 14:41:59 GMT 48.876919 -2.040566 37,000 91 457 0
2020-01-23 14:41:56 GMT 48.877010 -2.051552 37,000 91 457 0
2020-01-23 14:41:53 GMT 48.877167 -2.062542 37,000 91 457 0
2020-01-23 14:41:50 GMT 48.877243 -2.070706 37,000 91 457 0
2020-01-23 14:41:47 GMT 48.877380 -2.080680 37,000 91 456 0
2020-01-23 14:41:44 GMT 48.877476 -2.091450 37,000 91 456 0
2020-01-23 14:41:40 GMT 48.877670 -2.105713 37,000 91 456 0
2020-01-23 14:41:37 GMT 48.877716 -2.112122 37,000 90 456 0
2020-01-23 14:41:33 GMT 48.877987 -2.135395 37,000 91 456 0
2020-01-23 14:41:30 GMT 48.878082 -2.144588 37,000 90 455 0
2020-01-23 14:41:27 GMT 48.878082 -2.144588 37,000 90 456 0
2020-01-23 14:41:23 GMT 48.878448 -2.177687 37,000 90 455 0
2020-01-23 14:41:18 GMT 48.878448 -2.177687 37,000 90 455 0
2020-01-23 14:41:14 GMT 48.878540 -2.187406 37,000 90 455 0
2020-01-23 14:41:08 GMT 48.878826 -2.218010 37,000 90 455 0
2020-01-23 14:41:05 GMT 48.878826 -2.218010 37,000 90 455 0
2020-01-23 14:41:02 GMT 48.878872 -2.224370 37,000 90 455 0
2020-01-23 14:40:59 GMT 48.878998 -2.235014 37,000 90 455 0
2020-01-23 14:40:56 GMT 48.879089 -2.243958 37,000 90 455 0
2020-01-23 14:40:53 GMT 48.879181 -2.255155 37,000 90 455 0
2020-01-23 14:40:50 GMT 48.879246 -2.262316 37,000 90 455 0
2020-01-23 14:40:47 GMT 48.879383 -2.273809 37,000 90 455 0
2020-01-23 14:40:41 GMT 48.879570 -2.292890 37,000 90 455 0
2020-01-23 14:40:38 GMT 48.879639 -2.300016 37,000 90 455 0
2020-01-23 14:40:35 GMT 48.879711 -2.310526 37,000 90 455 0
2020-01-23 14:40:32 GMT 48.879822 -2.319946 37,000 90 455 0
2020-01-23 14:40:27 GMT 48.879990 -2.336763 37,000 90 456 0
2020-01-23 14:40:24 GMT 48.880051 -2.344947 37,000 90 456 0
2020-01-23 14:40:21 GMT 48.880142 -2.354384 37,000 90 456 0
2020-01-23 14:40:18 GMT 48.880222 -2.363362 37,000 90 456 0
2020-01-23 14:40:15 GMT 48.880325 -2.375371 37,000 90 456 0
2020-01-23 14:40:11 GMT 48.880455 -2.391189 37,000 90 456 0
2020-01-23 14:40:07 GMT 48.880600 -2.403682 37,000 90 456 0
2020-01-23 14:40:01 GMT 48.880688 -2.418004 37,000 90 456 0
2020-01-23 14:39:58 GMT 48.880779 -2.428990 37,000 90 456 0
2020-01-23 14:39:54 GMT 48.880920 -2.441278 37,000 90 456 0
2020-01-23 14:39:50 GMT 48.881016 -2.454505 37,000 90 456 0
2020-01-23 14:39:45 GMT 48.881153 -2.473153 37,000 90 456 0
2020-01-23 14:39:42 GMT 48.881199 -2.478067 37,000 90 456 0
2020-01-23 14:39:39 GMT 48.881287 -2.488755 37,000 90 456 0
2020-01-23 14:39:36 GMT 48.881432 -2.508641 37,000 90 455 0
2020-01-23 14:39:30 GMT 48.881527 -2.519122 37,000 90 455 0
2020-01-23 14:39:27 GMT 48.881561 -2.528053 37,000 90 455 0
2020-01-23 14:39:24 GMT 48.881664 -2.536974 37,000 90 455 0
2020-01-23 14:39:21 GMT 48.881699 -2.546927 37,000 90 455 0
2020-01-23 14:39:16 GMT 48.881851 -2.565814 37,000 90 455 0
2020-01-23 14:39:12 GMT 48.881897 -2.574993 37,000 90 455 0
2020-01-23 14:39:08 GMT 48.881973 -2.587210 37,000 90 455 0
2020-01-23 14:39:05 GMT 48.882084 -2.597110 37,000 90 455 0
2020-01-23 14:39:01 GMT 48.882156 -2.610098 37,000 90 454 0
2020-01-23 14:38:57 GMT 48.882248 -2.623620 37,000 90 454 0
2020-01-23 14:38:54 GMT 48.882294 -2.633550 37,000 90 454 0
2020-01-23 14:38:51 GMT 48.882385 -2.645451 37,000 90 454 0
2020-01-23 14:38:47 GMT 48.882431 -2.655170 37,000 90 454 0
2020-01-23 14:38:44 GMT 48.882595 -2.681604 37,000 90 454 0
2020-01-23 14:38:39 GMT 48.882595 -2.681604 37,000 90 454 0
2020-01-23 14:38:35 GMT 48.882690 -2.694108 37,000 90 454 0
2020-01-23 14:38:32 GMT 48.882797 -2.711651 37,000 90 454 0
2020-01-23 14:38:29 GMT 48.882797 -2.711651 37,000 90 454 0
2020-01-23 14:38:26 GMT 48.882843 -2.721088 37,000 90 454 0
2020-01-23 14:38:22 GMT 48.882923 -2.732488 37,000 90 454 0
2020-01-23 14:38:19 GMT 48.882969 -2.743402 37,000 90 454 0
2020-01-23 14:38:16 GMT 48.883015 -2.752075 37,000 90 454 0
2020-01-23 14:38:13 GMT 48.883106 -2.763278 37,000 90 454 64
2020-01-23 14:38:10 GMT 48.883202 -2.783878 37,000 90 454 0
2020-01-23 14:38:06 GMT 48.883202 -2.783878 37,000 90 454 0
2020-01-23 14:38:03 GMT 48.883301 -2.803204 37,000 90 454 0
2020-01-23 14:38:00 GMT 48.883301 -2.803204 37,000 90 454 0
2020-01-23 14:37:57 GMT 48.883392 -2.824120 37,000 90 454 0
2020-01-23 14:37:51 GMT 48.883438 -2.831444 37,000 90 454 0
2020-01-23 14:37:48 GMT 48.883484 -2.841656 37,000 90 454 0
2020-01-23 14:37:44 GMT 48.883621 -2.863818 37,000 90 454 0
2020-01-23 14:37:41 GMT 48.883621 -2.863818 37,000 90 454 0
2020-01-23 14:37:38 GMT 48.883667 -2.876539 37,000 90 454 0
2020-01-23 14:37:35 GMT 48.883713 -2.882610 37,000 90 454 0
2020-01-23 14:37:31 GMT 48.883759 -2.898137 37,000 90 454 0
2020-01-23 14:37:24 GMT 48.883854 -2.917232 37,000 90 454 0
2020-01-23 14:37:21 GMT 48.883900 -2.932771 37,000 90 454 0
2020-01-23 14:37:18 GMT 48.883942 -2.938350 37,000 90 454 0
2020-01-23 14:37:14 GMT 48.883987 -2.951871 37,000 90 454 0
2020-01-23 14:37:11 GMT 48.884041 -2.969417 37,000 90 455 0
2020-01-23 14:37:05 GMT 48.884079 -2.977577 37,000 90 455 0
2020-01-23 14:37:02 GMT 48.884125 -2.990324 37,000 90 455 0
2020-01-23 14:36:58 GMT 48.884178 -3.001002 37,000 90 455 0
2020-01-23 14:36:54 GMT 48.884228 -3.017554 37,000 90 455 0
2020-01-23 14:36:50 GMT 48.884262 -3.027297 37,000 90 455 0
2020-01-23 14:36:46 GMT 48.884319 -3.050441 37,000 90 455 0
2020-01-23 14:36:43 GMT 48.884365 -3.060632 37,000 90 455 0
2020-01-23 14:36:40 GMT 48.884411 -3.073425 37,000 90 455 0
2020-01-23 14:36:36 GMT 48.884411 -3.073425 37,000 90 455 0
2020-01-23 14:36:30 GMT 48.884445 -3.094271 37,000 90 455 0
2020-01-23 14:36:27 GMT 48.884491 -3.099342 37,000 90 455 0
2020-01-23 14:36:24 GMT 48.884506 -3.110866 37,000 90 455 0
2020-01-23 14:36:21 GMT 48.884506 -3.119250 37,000 90 455 0
2020-01-23 14:36:17 GMT 48.884583 -3.133287 37,000 90 455 0
2020-01-23 14:36:14 GMT 48.884598 -3.152137 37,000 90 455 0
2020-01-23 14:36:11 GMT 48.884598 -3.152137 37,000 89 454 0
2020-01-23 14:36:08 GMT 48.884628 -3.161245 37,000 90 455 0
2020-01-23 14:36:05 GMT 48.884674 -3.171246 37,000 90 455 0
2020-01-23 14:36:01 GMT 48.884689 -3.184228 37,000 90 455 0
2020-01-23 14:35:58 GMT 48.884689 -3.193624 37,000 90 455 0
2020-01-23 14:35:55 GMT 48.884720 -3.206599 37,000 90 455 0
2020-01-23 14:35:50 GMT 48.884766 -3.218360 37,000 90 455 0
2020-01-23 14:35:47 GMT 48.884766 -3.228290 37,000 90 455 0
2020-01-23 14:35:43 GMT 48.884785 -3.244292 37,000 90 455 0
2020-01-23 14:35:39 GMT 48.884785 -3.252242 37,000 90 455 64
2020-01-23 14:35:35 GMT 48.884811 -3.264489 37,000 90 455 0
2020-01-23 14:35:32 GMT 48.884830 -3.274432 37,000 90 455 0
2020-01-23 14:35:28 GMT 48.884830 -3.289177 37,000 90 455 0
2020-01-23 14:35:25 GMT 48.884857 -3.298856 37,000 90 456 0
2020-01-23 14:35:20 GMT 48.884857 -3.313153 37,000 90 456 0
2020-01-23 14:35:17 GMT 48.884857 -3.322871 37,000 90 456 0
2020-01-23 14:35:14 GMT 48.884857 -3.333365 37,000 90 456 0
2020-01-23 14:35:10 GMT 48.884876 -3.346060 37,000 89 454 0
2020-01-23 14:35:07 GMT 48.884857 -3.355549 37,000 90 456 0
2020-01-23 14:35:04 GMT 48.884857 -3.364704 37,000 90 456 0
2020-01-23 14:35:01 GMT 48.884876 -3.374393 37,000 90 456 0
2020-01-23 14:34:58 GMT 48.884876 -3.383861 37,000 90 455 0
2020-01-23 14:34:55 GMT 48.884876 -3.409882 37,000 90 455 0
2020-01-23 14:34:51 GMT 48.884876 -3.409882 37,000 90 455 0
2020-01-23 14:34:48 GMT 48.884857 -3.415762 37,000 90 455 0
2020-01-23 14:34:42 GMT 48.884857 -3.436185 37,000 89 453 0
2020-01-23 14:34:39 GMT 48.884876 -3.443057 37,000 90 455 0
2020-01-23 14:34:36 GMT 48.884857 -3.451961 37,000 90 455 0
2020-01-23 14:34:32 GMT 48.884830 -3.464958 37,000 89 455 0
2020-01-23 14:34:27 GMT 48.884811 -3.483018 37,000 89 454 0
2020-01-23 14:34:22 GMT 48.884811 -3.497244 37,000 89 454 0
2020-01-23 14:34:19 GMT 48.884785 -3.509264 37,000 89 453 0
2020-01-23 14:34:15 GMT 48.884811 -3.521189 37,000 89 454 0
2020-01-23 14:34:12 GMT 48.884766 -3.547387 37,000 89 454 0
2020-01-23 14:34:07 GMT 48.884739 -3.560293 37,000 89 453 0
2020-01-23 14:34:02 GMT 48.884739 -3.560293 37,000 89 453 0
2020-01-23 14:33:59 GMT 48.884720 -3.571261 37,000 89 453 0
2020-01-23 14:33:56 GMT 48.884720 -3.581402 37,000 89 453 0
2020-01-23 14:33:53 GMT 48.884720 -3.591050 37,000 89 453 0
2020-01-23 14:33:49 GMT 48.884674 -3.604009 37,000 89 453 0
2020-01-23 14:33:46 GMT 48.884644 -3.626572 37,000 89 453 0
2020-01-23 14:33:42 GMT 48.884644 -3.626572 37,000 89 453 0
2020-01-23 14:33:39 GMT 48.884644 -3.636475 37,000 89 453 0
2020-01-23 14:33:35 GMT 48.884628 -3.646123 37,000 89 453 0
2020-01-23 14:33:31 GMT 48.884583 -3.661616 37,000 89 453 0
2020-01-23 14:33:28 GMT 48.884552 -3.671241 37,000 89 453 0
2020-01-23 14:33:24 GMT 48.884506 -3.683456 37,000 89 453 0
2020-01-23 14:33:20 GMT 48.884506 -3.693864 37,000 89 453 0
2020-01-23 14:33:15 GMT 48.884457 -3.711355 37,000 89 453 0
2020-01-23 14:33:11 GMT 48.884411 -3.725883 37,000 89 453 0
2020-01-23 14:33:05 GMT 48.884365 -3.743591 37,000 89 453 0
2020-01-23 14:33:01 GMT 48.884319 -3.754505 37,000 89 453 0
2020-01-23 14:32:58 GMT 48.884308 -3.763944 37,000 89 453 0
2020-01-23 14:32:54 GMT 48.884262 -3.777114 37,000 89 453 0
2020-01-23 14:32:51 GMT 48.884216 -3.787255 37,000 89 453 0
2020-01-23 14:32:48 GMT 48.884171 -3.809580 37,000 89 453 0
2020-01-23 14:32:44 GMT 48.884171 -3.809580 37,000 89 453 0
2020-01-23 14:32:41 GMT 48.884132 -3.818978 37,000 89 453 0
2020-01-23 14:32:38 GMT 48.884079 -3.828102 37,000 89 453 0
2020-01-23 14:32:34 GMT 48.884033 -3.843595 37,000 89 453 0
2020-01-23 14:32:31 GMT 48.883987 -3.862610 37,000 89 453 0
2020-01-23 14:32:27 GMT 48.883945 -3.872464 37,000 89 453 0
2020-01-23 14:32:24 GMT 48.883945 -3.872464 37,000 89 452 0
2020-01-23 14:32:21 GMT 48.883896 -3.881625 37,000 89 452 0
2020-01-23 14:32:18 GMT 48.883808 -3.902676 37,000 89 452 0
2020-01-23 14:32:11 GMT 48.883759 -3.915288 37,000 89 452 0
2020-01-23 14:32:08 GMT 48.883713 -3.924443 37,000 89 452 0
2020-01-23 14:32:04 GMT 48.883667 -3.938599 37,000 89 452 0
2020-01-23 14:32:01 GMT 48.883621 -3.946416 37,000 89 452 0
2020-01-23 14:31:57 GMT 48.883484 -3.969727 37,000 89 452 0
2020-01-23 14:31:53 GMT 48.883484 -3.969727 37,000 89 451 64
2020-01-23 14:31:50 GMT 48.883438 -3.979093 37,000 89 451 0
2020-01-23 14:31:47 GMT 48.883347 -4.002122 37,000 89 451 0
2020-01-23 14:31:43 GMT 48.883247 -4.011166 37,000 89 451 0
2020-01-23 14:31:40 GMT 48.883247 -4.011166 37,000 89 451 0
2020-01-23 14:31:35 GMT 48.883156 -4.029886 37,000 89 451 0
2020-01-23 14:31:31 GMT 48.883060 -4.043547 37,000 89 451 0
2020-01-23 14:31:25 GMT 48.882877 -4.068555 37,000 89 451 64
2020-01-23 14:31:22 GMT 48.882877 -4.068555 37,000 89 451 0
2020-01-23 14:31:19 GMT 48.882751 -4.080435 37,000 89 451 0
2020-01-23 14:31:14 GMT 48.882549 -4.106429 37,000 89 451 0
2020-01-23 14:31:10 GMT 48.882549 -4.106429 37,000 89 451 0
2020-01-23 14:31:06 GMT 48.882431 -4.119803 37,000 89 451 0
2020-01-23 14:31:03 GMT 48.882248 -4.139522 37,000 89 451 0
2020-01-23 14:31:00 GMT 48.882248 -4.139522 37,000 89 451 0
2020-01-23 14:30:57 GMT 48.882175 -4.149146 37,000 89 451 0
2020-01-23 14:30:53 GMT 48.882111 -4.160508 37,000 89 450 -64
2020-01-23 14:30:49 GMT 48.881992 -4.181165 37,000 89 450 0
2020-01-23 14:30:46 GMT 48.881992 -4.181165 37,000 89 450 0
2020-01-23 14:30:43 GMT 48.881927 -4.192552 37,000 89 450 0
2020-01-23 14:30:39 GMT 48.881927 -4.203397 37,000 90 450 0
2020-01-23 14:30:35 GMT 48.881927 -4.217271 37,000 90 450 0
2020-01-23 14:30:32 GMT 48.881992 -4.236675 37,000 90 450 -64
2020-01-23 14:30:29 GMT 48.881992 -4.236675 37,000 90 450 0
2020-01-23 14:30:24 GMT 48.882038 -4.251275 37,000 90 450 0
2020-01-23 14:30:21 GMT 48.882225 -4.272453 37,000 90 450 -64
2020-01-23 14:30:17 GMT 48.882225 -4.272453 37,000 90 450 -64
2020-01-23 14:30:14 GMT 48.882271 -4.285535 37,000 90 450 -64
2020-01-23 14:30:08 GMT 48.882175 -4.302448 37,000 88 450 64
2020-01-23 14:30:04 GMT 48.881897 -4.314808 37,000 81 452 0
2020-01-23 14:30:01 GMT 48.881424 -4.325092 37,000 85 451 0
2020-01-23 14:29:57 GMT 48.880642 -4.337431 37,000 83 452 0
2020-01-23 14:29:54 GMT 48.879684 -4.349248 37,000 82 452 0
2020-01-23 14:29:49 GMT 48.878502 -4.362295 37,000 81 452 0
2020-01-23 14:29:46 GMT 48.877754 -4.370029 37,000 81 452 0
2020-01-23 14:29:43 GMT 48.876709 -4.381080 37,000 81 452 0
2020-01-23 14:29:40 GMT 48.875801 -4.390339 37,000 81 452 0
2020-01-23 14:29:37 GMT 48.874821 -4.400603 37,000 81 452 0
2020-01-23 14:29:34 GMT 48.873093 -4.419180 37,000 81 452 0
2020-01-23 14:29:31 GMT 48.873093 -4.419180 37,000 81 452 0
2020-01-23 14:29:28 GMT 48.871376 -4.437248 37,000 81 452 0
2020-01-23 14:29:25 GMT 48.871376 -4.437248 37,000 81 452 0
2020-01-23 14:29:22 GMT 48.870483 -4.446505 37,000 81 452 0
2020-01-23 14:29:19 GMT 48.869339 -4.458548 37,000 81 452 0
2020-01-23 14:29:16 GMT 48.868744 -4.464816 37,000 81 452 0
2020-01-23 14:29:13 GMT 48.867599 -4.476365 37,000 81 452 0
2020-01-23 14:29:10 GMT 48.866863 -4.484157 37,000 81 452 0
2020-01-23 14:29:07 GMT 48.865700 -4.496661 37,000 81 452 0
2020-01-23 14:29:04 GMT 48.864952 -4.504178 37,000 81 452 0
2020-01-23 14:29:00 GMT 48.863880 -4.515236 37,000 81 452 0
2020-01-23 14:28:56 GMT 48.862701 -4.527705 37,000 81 452 0
2020-01-23 14:28:53 GMT 48.861366 -4.541546 37,000 81 452 0
2020-01-23 14:28:50 GMT 48.860870 -4.546509 37,000 81 452 0
2020-01-23 14:28:47 GMT 48.859135 -4.564603 37,000 81 452 0
2020-01-23 14:28:44 GMT 48.857849 -4.577848 37,000 81 452 0
2020-01-23 14:28:41 GMT 48.857849 -4.577848 37,000 81 452 0
2020-01-23 14:28:36 GMT 48.856667 -4.590406 37,000 81 452 0
2020-01-23 14:28:30 GMT 48.854897 -4.608403 37,000 81 452 0
2020-01-23 14:28:25 GMT 48.853363 -4.624469 37,000 81 452 0
2020-01-23 14:28:22 GMT 48.852337 -4.634713 37,000 81 451 -64
2020-01-23 14:28:19 GMT 48.851578 -4.642710 37,000 81 451 -64
2020-01-23 14:28:16 GMT 48.850433 -4.654259 37,000 81 451 -64
2020-01-23 14:28:13 GMT 48.849701 -4.662006 37,000 81 451 -64
2020-01-23 14:28:09 GMT 48.847450 -4.684802 37,000 81 451 0
2020-01-23 14:28:06 GMT 48.847450 -4.684802 37,000 81 451 0
2020-01-23 14:28:03 GMT 48.846657 -4.693330 37,000 81 451 0
2020-01-23 14:27:59 GMT 48.845352 -4.706585 37,000 81 451 0
2020-01-23 14:27:56 GMT 48.844345 -4.716867 37,000 81 451 0
2020-01-23 14:27:53 GMT 48.843475 -4.725811 37,000 81 451 0
2020-01-23 14:27:50 GMT 48.842194 -4.738840 37,000 81 450 0
2020-01-23 14:27:45 GMT 48.841164 -4.749346 37,000 81 450 0
2020-01-23 14:27:42 GMT 48.840225 -4.758841 37,000 81 450 0
2020-01-23 14:27:39 GMT 48.839127 -4.770038 37,000 81 450 0
2020-01-23 14:27:36 GMT 48.838028 -4.781025 37,000 81 450 0
2020-01-23 14:27:33 GMT 48.837254 -4.789027 37,000 81 450 0
2020-01-23 14:27:26 GMT 48.835159 -4.810422 37,000 81 450 0
2020-01-23 14:27:23 GMT 48.834274 -4.819406 37,000 81 450 0
2020-01-23 14:27:16 GMT 48.832214 -4.839830 37,000 81 450 0
2020-01-23 14:27:13 GMT 48.829834 -4.863986 37,000 81 449 0
2020-01-23 14:27:09 GMT 48.829834 -4.863986 37,000 81 450 0
2020-01-23 14:27:05 GMT 48.828644 -4.876169 37,000 81 450 0
2020-01-23 14:27:02 GMT 48.827774 -4.884902 37,000 81 449 0
2020-01-23 14:26:55 GMT 48.825531 -4.907508 37,000 81 449 0
2020-01-23 14:26:52 GMT 48.824890 -4.913706 37,000 81 449 0
2020-01-23 14:26:46 GMT 48.822823 -4.934596 37,000 81 449 0
2020-01-23 14:26:43 GMT 48.821938 -4.943559 37,000 81 449 0
2020-01-23 14:26:40 GMT 48.819332 -4.969362 37,000 81 449 0
2020-01-23 14:26:35 GMT 48.819332 -4.969362 37,000 81 449 0
2020-01-23 14:26:32 GMT 48.818588 -4.977096 37,000 81 449 0
2020-01-23 14:26:24 GMT 48.814911 -5.013569 37,000 81 449 0
2020-01-23 14:26:20 GMT 48.814911 -5.013569 37,000 81 449 0
2020-01-23 14:26:14 GMT 48.812988 -5.032443 37,000 81 449 0
2020-01-23 14:26:10 GMT 48.811745 -5.044604 37,000 81 449 0
2020-01-23 14:26:03 GMT 48.809235 -5.069416 37,000 81 449 0
2020-01-23 14:26:00 GMT 48.808483 -5.076840 37,000 81 449 0
2020-01-23 14:25:56 GMT 48.807041 -5.090934 37,000 81 449 0
2020-01-23 14:25:50 GMT 48.805298 -5.108361 37,000 81 449 0
2020-01-23 14:25:45 GMT 48.803787 -5.123009 37,000 81 449 0
2020-01-23 14:25:42 GMT 48.802826 -5.132376 37,000 81 449 -64
2020-01-23 14:25:35 GMT 48.800663 -5.153744 37,000 81 449 0
2020-01-23 14:25:32 GMT 48.799530 -5.164912 37,000 81 449 0
2020-01-23 14:25:29 GMT 48.798706 -5.173082 37,000 81 449 0
2020-01-23 14:25:24 GMT 48.797150 -5.188223 37,000 81 449 0
2020-01-23 14:25:21 GMT 48.794907 -5.210055 37,000 81 448 0
2020-01-23 14:25:14 GMT 48.793961 -5.219445 37,000 81 448 0
2020-01-23 14:25:11 GMT 48.793167 -5.227168 37,000 81 448 0
2020-01-23 14:25:08 GMT 48.792114 -5.237309 37,000 81 449 0
2020-01-23 14:25:04 GMT 48.790604 -5.252240 37,000 81 449 0
2020-01-23 14:25:01 GMT 48.789825 -5.259916 37,000 81 449 0
2020-01-23 14:24:58 GMT 48.787395 -5.283195 37,000 81 449 0
2020-01-23 14:24:53 GMT 48.787395 -5.283195 37,000 81 449 0
2020-01-23 14:24:50 GMT 48.786465 -5.292158 37,000 81 449 0
2020-01-23 14:24:47 GMT 48.785294 -5.303791 37,000 81 449 0
2020-01-23 14:24:44 GMT 48.784370 -5.312757 37,000 81 449 0
2020-01-23 14:24:41 GMT 48.783417 -5.321890 37,000 81 449 0
2020-01-23 14:24:37 GMT 48.782089 -5.334585 37,000 81 449 0
2020-01-23 14:24:34 GMT 48.780212 -5.352666 37,000 81 449 0
2020-01-23 14:24:31 GMT 48.777603 -5.377948 37,000 81 448 0
2020-01-23 14:24:23 GMT 48.777603 -5.377948 37,000 81 448 0
2020-01-23 14:24:20 GMT 48.776642 -5.387385 37,000 81 448 0
2020-01-23 14:24:14 GMT 48.773804 -5.414570 37,000 81 448 0
2020-01-23 14:24:06 GMT 48.772339 -5.428725 37,000 81 447 0
2020-01-23 14:24:03 GMT 48.771103 -5.440275 37,000 81 447 0
2020-01-23 14:24:00 GMT 48.770187 -5.449219 37,000 81 447 0
2020-01-23 14:23:53 GMT 48.767899 -5.470910 37,000 81 447 0
2020-01-23 14:23:50 GMT 48.767056 -5.479070 37,000 81 447 0
2020-01-23 14:23:39 GMT 48.762165 -5.525762 37,000 81 447 0
2020-01-23 14:23:33 GMT 48.761467 -5.532411 37,000 81 447 0
2020-01-23 14:23:30 GMT 48.760628 -5.540290 37,000 81 447 0
2020-01-23 14:23:23 GMT 48.758240 -5.562744 37,000 80 446 0
2020-01-23 14:23:20 GMT 48.757278 -5.572164 37,000 80 446 0
2020-01-23 14:23:13 GMT 48.754028 -5.602464 37,000 80 446 0
2020-01-23 14:23:04 GMT 48.751785 -5.623662 37,000 80 446 0
2020-01-23 14:23:00 GMT 48.750687 -5.634296 37,000 80 446 0
2020-01-23 14:22:53 GMT 48.748199 -5.657453 37,000 80 446 0
2020-01-23 14:22:50 GMT 48.747299 -5.665776 37,000 80 446 0
2020-01-23 14:22:42 GMT 48.744919 -5.688242 37,000 80 446 0
2020-01-23 14:22:39 GMT 48.743958 -5.697115 37,000 80 446 0
2020-01-23 14:22:32 GMT 48.741669 -5.718313 37,000 80 446 0
2020-01-23 14:22:29 GMT 48.738472 -5.748379 37,000 80 446 0
2020-01-23 14:22:23 GMT 48.738472 -5.748379 37,000 80 446 64
2020-01-23 14:22:19 GMT 48.737259 -5.759510 37,000 80 447 64
2020-01-23 14:22:12 GMT 48.734802 -5.782682 37,000 80 447 0
2020-01-23 14:22:09 GMT 48.733864 -5.791096 37,000 80 447 0
2020-01-23 14:22:02 GMT 48.731396 -5.814297 37,000 80 447 0
2020-01-23 14:21:59 GMT 48.730602 -5.821670 37,000 80 447 0
2020-01-23 14:21:52 GMT 48.728043 -5.845377 37,000 80 447 0
2020-01-23 14:21:49 GMT 48.725098 -5.872545 37,000 80 447 0
2020-01-23 14:21:42 GMT 48.725098 -5.872545 37,000 80 447 0
2020-01-23 14:21:39 GMT 48.723808 -5.884407 37,000 80 447 0
2020-01-23 14:21:30 GMT 48.721012 -5.909849 37,000 80 447 0
2020-01-23 14:21:27 GMT 48.720016 -5.918955 37,000 80 447 0
2020-01-23 14:21:21 GMT 48.717754 -5.939700 37,000 80 447 0
2020-01-23 14:21:12 GMT 48.714890 -5.966069 37,000 80 447 0
2020-01-23 14:21:09 GMT 48.713562 -5.978394 37,000 80 447 0
2020-01-23 14:21:01 GMT 48.711006 -6.001571 37,000 80 447 0
2020-01-23 14:20:58 GMT 48.710129 -6.009451 37,000 80 447 0
2020-01-23 14:20:51 GMT 48.706768 -6.040240 37,000 80 447 0
2020-01-23 14:20:38 GMT 48.703278 -6.071753 37,000 80 446 0
2020-01-23 14:20:31 GMT 48.701138 -6.091124 37,000 80 446 0
2020-01-23 14:20:28 GMT 48.699833 -6.103194 37,000 80 446 0
2020-01-23 14:20:21 GMT 48.697678 -6.122554 37,000 80 445 0
2020-01-23 14:20:18 GMT 48.696487 -6.133329 37,000 80 445 0
2020-01-23 14:20:14 GMT 48.695084 -6.145839 37,000 80 444 0
2020-01-23 14:20:07 GMT 48.692825 -6.166147 37,000 80 444 0
2020-01-23 14:19:57 GMT 48.689575 -6.195726 37,000 80 444 0
2020-01-23 14:19:48 GMT 48.686100 -6.226501 37,000 80 443 0
2020-01-23 14:19:41 GMT 48.683853 -6.246713 37,000 80 443 0
2020-01-23 14:19:37 GMT 48.682560 -6.258159 37,000 80 443 0
2020-01-23 14:19:27 GMT 48.679184 -6.288405 37,000 80 443 0
2020-01-23 14:19:17 GMT 48.675659 -6.319885 37,000 80 443 0
2020-01-23 14:19:07 GMT 48.672226 -6.350379 37,000 80 443 0
2020-01-23 14:18:56 GMT 48.668518 -6.383057 37,000 80 443 0
2020-01-23 14:18:47 GMT 48.665268 -6.411579 37,000 80 443 0
2020-01-23 14:18:37 GMT 48.661659 -6.443554 37,000 80 443 0
2020-01-23 14:18:26 GMT 48.658264 -6.473483 37,000 80 443 0
2020-01-23 14:18:20 GMT 48.654678 -6.504701 37,000 80 443 0
2020-01-23 14:18:16 GMT 48.654678 -6.504701 37,000 80 443 0
2020-01-23 14:18:06 GMT 48.651093 -6.535926 37,000 80 443 0
2020-01-23 14:17:55 GMT 48.647461 -6.567571 37,000 80 443 0
2020-01-23 14:17:48 GMT 48.644531 -6.592994 37,000 80 444 0
2020-01-23 14:17:40 GMT 48.641922 -6.615671 37,000 80 444 0
2020-01-23 14:17:36 GMT 48.640526 -6.627864 37,000 80 444 0
2020-01-23 14:17:29 GMT 48.638168 -6.648067 37,000 80 444 0
2020-01-23 14:17:26 GMT 48.636707 -6.661040 37,000 80 444 0
2020-01-23 14:17:20 GMT 48.634735 -6.678068 37,000 80 443 0
2020-01-23 14:17:15 GMT 48.633263 -6.690746 37,000 80 443 0
2020-01-23 14:17:08 GMT 48.630890 -6.710984 37,000 80 443 0
2020-01-23 14:17:05 GMT 48.629772 -6.720742 37,000 80 443 0
2020-01-23 14:16:57 GMT 48.627045 -6.744127 37,000 80 443 0
2020-01-23 14:16:54 GMT 48.626045 -6.752906 37,000 80 443 0
2020-01-23 14:16:47 GMT 48.623520 -6.774621 37,000 80 443 0
2020-01-23 14:16:44 GMT 48.622231 -6.785575 37,000 80 443 0
2020-01-23 14:16:38 GMT 48.620316 -6.801875 37,000 80 443 0
2020-01-23 14:16:34 GMT 48.618736 -6.815282 37,000 80 443 0
2020-01-23 14:16:24 GMT 48.615154 -6.845711 37,000 80 443 0
2020-01-23 14:16:16 GMT 48.611343 -6.878357 37,000 79 443 0
2020-01-23 14:16:05 GMT 48.608078 -6.905847 37,000 79 443 0
2020-01-23 14:15:54 GMT 48.604340 -6.937514 37,000 79 443 0
2020-01-23 14:15:46 GMT 48.601280 -6.963525 37,000 79 443 0
2020-01-23 14:15:34 GMT 48.597107 -6.998854 37,000 79 443 0
2020-01-23 14:15:24 GMT 48.593506 -7.028720 37,000 79 444 0
2020-01-23 14:15:13 GMT 48.589409 -7.063269 37,000 79 443 0
2020-01-23 14:15:03 GMT 48.585938 -7.091957 37,000 79 443 0
2020-01-23 14:14:52 GMT 48.581776 -7.126658 37,000 79 443 0
2020-01-23 14:14:43 GMT 48.578705 -7.152461 37,000 79 443 0
2020-01-23 14:14:35 GMT 48.575272 -7.181115 37,000 79 442 0
2020-01-23 14:14:23 GMT 48.571289 -7.214848 37,000 80 442 0
2020-01-23 14:14:12 GMT 48.567532 -7.247869 37,000 80 442 0
2020-01-23 14:14:02 GMT 48.564320 -7.276346 37,000 80 443 0
2020-01-23 14:13:52 GMT 48.560966 -7.306920 37,000 80 442 0
2020-01-23 14:13:42 GMT 48.557568 -7.337277 37,000 80 442 0
2020-01-23 14:13:33 GMT 48.550049 -7.398306 37,000 77 442 0
2020-01-23 14:13:22 GMT 48.550049 -7.398306 37,000 78 443 0
2020-01-23 14:13:12 GMT 48.545650 -7.429143 37,000 77 442 0
2020-01-23 14:13:02 GMT 48.541183 -7.459211 37,000 77 442 0
2020-01-23 14:12:52 GMT 48.536728 -7.489507 37,000 77 442 0
2020-01-23 14:12:41 GMT 48.532009 -7.521298 37,000 77 442 0
2020-01-23 14:12:31 GMT 48.527542 -7.551583 37,000 77 442 0
2020-01-23 14:12:20 GMT 48.522560 -7.584975 37,000 77 442 0
2020-01-23 14:12:11 GMT 48.518559 -7.611646 37,000 77 442 0
2020-01-23 14:12:01 GMT 48.513977 -7.642611 37,000 77 442 0
2020-01-23 14:11:51 GMT 48.509583 -7.671908 37,000 77 441 0
2020-01-23 14:11:40 GMT 48.504776 -7.703810 37,000 77 441 0
2020-01-23 14:11:31 GMT 48.500336 -7.733530 37,000 77 442 0
2020-01-23 14:11:21 GMT 48.495621 -7.764728 37,000 77 442 0
2020-01-23 14:11:10 GMT 48.491047 -7.795161 37,000 77 442 0
2020-01-23 14:10:59 GMT 48.486111 -7.827687 37,000 77 442 0
2020-01-23 14:10:50 GMT 48.481796 -7.856422 37,000 77 442 64
2020-01-23 14:10:39 GMT 48.476986 -7.888111 37,000 77 442 0
2020-01-23 14:10:30 GMT 48.472706 -7.916155 37,000 77 443 0
2020-01-23 14:10:20 GMT 48.468155 -7.946144 37,000 77 443 0
2020-01-23 14:10:09 GMT 48.463486 -7.976869 37,000 77 443 0
2020-01-23 14:10:00 GMT 48.458786 -8.007588 37,000 77 443 0
2020-01-23 14:09:48 GMT 48.453827 -8.040020 37,000 77 443 0
2020-01-23 14:09:38 GMT 48.449295 -8.069528 37,000 76 443 0
2020-01-23 14:09:29 GMT 48.444866 -8.098297 37,000 76 443 0
2020-01-23 14:09:19 GMT 48.440094 -8.129179 37,000 76 442 0
2020-01-23 14:09:08 GMT 48.435413 -8.159662 37,000 76 442 0
2020-01-23 14:08:58 GMT 48.430759 -8.189513 37,000 76 442 0
2020-01-23 14:08:49 GMT 48.425949 -8.220872 37,000 76 441 0
2020-01-23 14:08:38 GMT 48.421463 -8.249746 37,000 76 441 0
2020-01-23 14:08:28 GMT 48.416515 -8.281523 37,000 76 442 -64
2020-01-23 14:08:18 GMT 48.411896 -8.311157 37,000 76 442 0
2020-01-23 14:08:08 GMT 48.407181 -8.341510 37,000 76 442 64
2020-01-23 14:07:57 GMT 48.402409 -8.371943 37,000 76 443 64
2020-01-23 14:07:48 GMT 48.397846 -8.401216 37,000 76 444 0
2020-01-23 14:07:37 GMT 48.393036 -8.431936 37,000 76 444 0
2020-01-23 14:07:28 GMT 48.388260 -8.462219 37,000 76 443 0
2020-01-23 14:07:17 GMT 48.383469 -8.492643 37,000 76 443 0
2020-01-23 14:07:06 GMT 48.378113 -8.526588 37,000 76 442 0
2020-01-23 14:06:57 GMT 48.373966 -8.552856 37,000 76 440 0
2020-01-23 14:06:45 GMT 48.368362 -8.588280 37,000 76 440 64
2020-01-23 14:06:36 GMT 48.364285 -8.613932 37,000 76 440 0
2020-01-23 14:06:26 GMT 48.359207 -8.645807 37,000 76 439 0
2020-01-23 14:06:17 GMT 48.354630 -8.674762 37,025 76 440 -256
2020-01-23 14:06:06 GMT 48.349960 -8.703918 37,050 76 439 -704
2020-01-23 14:05:56 GMT 48.345291 -8.733004 37,200 76 438 -960
2020-01-23 14:05:46 GMT 48.340256 -8.764414 37,350 76 438 -960
2020-01-23 14:05:35 GMT 48.335514 -8.794122 37,500 76 438 -256
2020-01-23 14:05:25 GMT 48.330532 -8.825057 37,500 76 438 0
2020-01-23 14:05:16 GMT 48.325836 -8.854276 37,500 76 438 0
2020-01-23 14:05:05 GMT 48.321129 -8.883530 37,500 76 438 0
2020-01-23 14:04:54 GMT 48.315823 -8.916345 37,500 76 438 0
2020-01-23 14:04:39 GMT 48.308701 -8.960218 37,500 76 438 0
2020-01-23 14:04:33 GMT 48.306000 -8.976987 37,500 76 438 0
2020-01-23 14:03:33 GMT 48.276855 -9.155626 37,500 76 438 0
2020-01-23 14:03:23 GMT 48.271683 -9.186261 37,500 75 439 0
2020-01-23 14:03:13 GMT 48.266708 -9.215216 37,500 75 439 0
2020-01-23 14:03:03 GMT 48.261913 -9.242465 37,500 75 438 0
2020-01-23 14:02:52 GMT 48.255630 -9.277376 37,500 74 438 64
2020-01-23 14:02:42 GMT 48.250259 -9.307392 37,500 75 437 0
2020-01-23 14:02:33 GMT 48.245899 -9.332886 37,500 76 437 0
2020-01-23 14:02:22 GMT 48.241154 -9.363243 37,500 78 436 0
2020-01-23 14:02:11 GMT 48.236572 -9.397747 37,500 79 435 0
2020-01-23 14:01:57 GMT 48.231842 -9.436750 37,500 79 434 0
2020-01-23 14:01:52 GMT 48.229748 -9.454024 37,500 79 434 -64
2020-01-23 14:01:39 GMT 48.225185 -9.490814 37,500 79 433 0
2020-01-23 14:01:31 GMT 48.222198 -9.515146 37,500 79 433 64
2020-01-23 14:01:20 GMT 48.217690 -9.551167 37,500 79 433 64
2020-01-23 14:01:12 GMT 48.215057 -9.572191 37,500 79 434 -64
2020-01-23 14:01:01 GMT 48.211311 -9.602123 37,500 79 434 0
2020-01-23 14:00:52 GMT 48.207779 -9.630432 37,500 79 434 64
2020-01-23 13:59:05 GMT 48.168640 -9.947698 37,500 79 431 64
We lost coverage of the aircraft here for a total of 22 minutes
2020-01-23 13:37:09 GMT 47.938099 -9.509512 38,000 260 536 0
2020-01-23 13:36:32 GMT 47.955231 -9.376144 38,000 260 537 0
2020-01-23 13:36:29 GMT 47.956787 -9.363991 38,000 260 537 0
2020-01-23 13:36:19 GMT 47.961090 -9.329384 38,000 260 537 0
2020-01-23 13:36:07 GMT 47.966213 -9.288166 38,000 260 537 0
2020-01-23 13:36:01 GMT 47.969330 -9.263191 38,000 260 537 0
2020-01-23 13:35:50 GMT 47.974316 -9.224290 38,000 260 536 0
2020-01-23 13:35:39 GMT 47.979446 -9.185463 38,000 259 536 0
2020-01-23 13:35:31 GMT 47.983860 -9.153302 38,000 259 536 0
2020-01-23 13:35:20 GMT 47.988468 -9.117033 38,000 261 536 0
2020-01-23 13:35:10 GMT 47.992424 -9.079989 38,000 262 536 0
2020-01-23 13:35:00 GMT 47.995514 -9.042778 38,000 265 536 0
2020-01-23 13:34:48 GMT 47.998013 -8.998648 38,000 267 536 0
2020-01-23 13:33:36 GMT 48.000431 -8.733990 38,000 270 534 0
2020-01-23 13:33:24 GMT 48.000595 -8.688950 38,000 270 534 0
2020-01-23 13:33:14 GMT 48.000664 -8.651029 38,000 270 535 0
2020-01-23 13:33:07 GMT 48.000710 -8.628352 38,000 270 535 0
2020-01-23 13:32:59 GMT 48.000778 -8.595428 38,000 270 535 0
2020-01-23 13:32:46 GMT 48.000805 -8.551166 38,000 270 536 0
2020-01-23 13:32:37 GMT 48.000824 -8.514885 38,000 270 536 0
2020-01-23 13:32:27 GMT 48.000870 -8.479454 38,000 270 536 0
2020-01-23 13:32:18 GMT 48.000896 -8.445810 38,000 270 536 0
2020-01-23 13:32:08 GMT 48.000942 -8.407781 38,000 270 536 0
2020-01-23 13:31:56 GMT 48.001038 -8.363765 38,000 270 536 0
2020-01-23 13:31:45 GMT 48.001129 -8.326299 38,000 270 536 0
2020-01-23 13:31:38 GMT 48.001225 -8.295875 38,000 270 536 -64
2020-01-23 13:31:25 GMT 48.001316 -8.250944 38,000 270 537 0
2020-01-23 13:31:17 GMT 48.001328 -8.220520 38,000 271 537 -64
2020-01-23 13:31:07 GMT 48.001175 -8.183899 38,000 271 537 0
2020-01-23 13:30:56 GMT 48.000851 -8.145165 38,000 271 537 0
2020-01-23 13:30:45 GMT 48.000504 -8.102005 38,000 271 537 0
2020-01-23 13:30:35 GMT 48.000805 -8.066289 38,000 269 536 0
2020-01-23 13:30:26 GMT 48.001923 -8.028541 38,000 267 535 0
2020-01-23 13:30:15 GMT 48.003830 -7.991849 38,000 265 535 64
2020-01-23 13:30:05 GMT 48.006409 -7.957878 38,000 263 535 0
2020-01-23 13:29:55 GMT 48.010113 -7.920579 38,000 261 535 0
2020-01-23 13:29:44 GMT 48.014923 -7.880219 38,000 260 535 0
2020-01-23 13:29:35 GMT 48.018867 -7.847689 38,000 260 536 0
2020-01-23 13:29:25 GMT 48.023254 -7.811348 38,000 260 536 0
2020-01-23 13:29:16 GMT 48.027557 -7.775574 38,000 260 536 0
2020-01-23 13:29:05 GMT 48.031994 -7.738671 38,000 260 536 0
2020-01-23 13:28:55 GMT 48.036484 -7.701141 38,000 260 536 0
2020-01-23 13:28:45 GMT 48.040924 -7.663925 38,000 260 536 0
2020-01-23 13:28:35 GMT 48.045181 -7.628151 38,000 261 536 0
2020-01-23 13:28:24 GMT 48.049728 -7.590074 38,000 260 535 0
2020-01-23 13:28:15 GMT 48.053967 -7.554368 38,000 260 535 64
2020-01-23 13:28:05 GMT 48.058502 -7.516022 38,000 260 535 0
2020-01-23 13:27:54 GMT 48.062717 -7.480351 38,000 260 534 0
2020-01-23 13:27:44 GMT 48.067093 -7.443237 38,000 261 533 0
2020-01-23 13:27:34 GMT 48.071411 -7.406227 38,000 261 532 0
2020-01-23 13:27:23 GMT 48.075848 -7.368023 38,000 261 532 0
2020-01-23 13:27:14 GMT 48.079803 -7.333937 38,000 261 532 0
2020-01-23 13:27:02 GMT 48.084778 -7.291420 38,000 261 532 0
2020-01-23 13:26:54 GMT 48.088257 -7.261276 38,000 261 532 0
2020-01-23 13:26:43 GMT 48.092697 -7.222549 38,000 261 532 0
2020-01-23 13:26:33 GMT 48.096748 -7.187242 38,000 261 532 0
2020-01-23 13:26:23 GMT 48.101028 -7.150177 38,000 261 532 0
2020-01-23 13:26:13 GMT 48.105148 -7.114059 38,000 261 531 0
2020-01-23 13:26:02 GMT 48.109642 -7.074702 38,000 261 531 0
2020-01-23 13:25:52 GMT 48.113552 -7.040335 38,000 261 530 0
2020-01-23 13:25:42 GMT 48.117691 -7.004265 38,000 261 530 0
2020-01-23 13:25:32 GMT 48.121792 -6.967656 38,000 261 530 0
2020-01-23 13:25:22 GMT 48.125931 -6.931000 38,000 261 530 0
2020-01-23 13:25:12 GMT 48.129986 -6.894625 38,000 261 531 192
2020-01-23 13:25:02 GMT 48.134174 -6.857229 37,950 261 532 512
2020-01-23 13:24:50 GMT 48.138702 -6.816673 37,800 261 533 896
2020-01-23 13:24:40 GMT 48.142731 -6.780350 37,650 261 533 832
2020-01-23 13:24:31 GMT 48.146420 -6.747225 37,550 261 533 576
2020-01-23 13:24:22 GMT 48.150558 -6.710037 37,475 261 533 384
2020-01-23 13:24:11 GMT 48.154587 -6.673508 37,400 261 531 320
2020-01-23 13:24:01 GMT 48.158752 -6.635605 37,325 261 530 640
2020-01-23 13:23:50 GMT 48.162807 -6.598663 37,150 261 531 1344
2020-01-23 13:23:40 GMT 48.166901 -6.561295 36,950 261 531 1088
2020-01-23 13:23:30 GMT 48.170792 -6.525597 36,800 261 531 704
2020-01-23 13:23:21 GMT 48.174591 -6.490525 36,700 261 531 448
2020-01-23 13:23:15 GMT 48.176880 -6.469116 36,650 261 530 704
2020-01-23 13:23:10 GMT 48.178802 -6.451158 36,600 261 530 1024
2020-01-23 13:23:00 GMT 48.182495 -6.417317 36,425 261 530 832
2020-01-23 13:22:50 GMT 48.186584 -6.379324 36,300 261 530 640
2020-01-23 13:22:40 GMT 48.190552 -6.342653 36,200 261 529 640
2020-01-23 13:22:30 GMT 48.194366 -6.307138 36,075 261 528 512
2020-01-23 13:22:23 GMT 48.196930 -6.283194 36,000 262 527 0
2020-01-23 13:22:19 GMT 48.198277 -6.270230 36,000 261 527 192
2020-01-23 13:22:13 GMT 48.200745 -6.246956 36,000 262 527 0
2020-01-23 13:22:09 GMT 48.202148 -6.233967 36,000 262 527 0
2020-01-23 13:22:03 GMT 48.204422 -6.212407 36,000 262 527 0
2020-01-23 13:22:00 GMT 48.207264 -6.185303 36,000 262 527 0
2020-01-23 13:21:52 GMT 48.209152 -6.167485 36,000 262 527 0
2020-01-23 13:21:49 GMT 48.209869 -6.160511 36,000 262 528 0
2020-01-23 13:21:46 GMT 48.211349 -6.146428 36,000 262 528 0
2020-01-23 13:21:43 GMT 48.211964 -6.140635 36,000 262 528 0
2020-01-23 13:21:39 GMT 48.213825 -6.123071 36,000 261 528 0
2020-01-23 13:21:34 GMT 48.215607 -6.106286 36,000 261 528 0
2020-01-23 13:21:29 GMT 48.217575 -6.087834 36,000 261 528 0
2020-01-23 13:21:25 GMT 48.218994 -6.074242 36,000 262 529 0
2020-01-23 13:21:21 GMT 48.220718 -6.058093 36,000 262 529 0
2020-01-23 13:21:15 GMT 48.222977 -6.036424 36,000 262 528 0
2020-01-23 13:21:05 GMT 48.226582 -6.001426 36,000 262 528 0
2020-01-23 13:21:01 GMT 48.228165 -5.986176 36,000 262 528 0
2020-01-23 13:20:57 GMT 48.229477 -5.973745 36,000 262 528 64
2020-01-23 13:20:54 GMT 48.230633 -5.962757 36,000 262 528 0
2020-01-23 13:20:50 GMT 48.232121 -5.948374 36,000 262 528 0
2020-01-23 13:20:47 GMT 48.233276 -5.937124 36,000 262 528 0
2020-01-23 13:20:44 GMT 48.234402 -5.926112 36,000 262 529 0
2020-01-23 13:20:38 GMT 48.236847 -5.902757 36,000 262 528 0
2020-01-23 13:20:33 GMT 48.238499 -5.886576 36,000 262 529 0
2020-01-23 13:20:30 GMT 48.241791 -5.854445 36,000 262 529 -64
2020-01-23 13:20:24 GMT 48.241791 -5.854445 36,000 262 529 0
2020-01-23 13:20:18 GMT 48.244270 -5.830126 36,000 262 529 0
2020-01-23 13:20:14 GMT 48.245670 -5.816538 36,000 262 529 0
2020-01-23 13:20:10 GMT 48.246964 -5.803810 36,000 262 529 0
2020-01-23 13:20:07 GMT 48.248230 -5.791096 36,000 262 529 0
2020-01-23 13:20:04 GMT 48.249344 -5.780076 36,000 262 529 0
2020-01-23 13:20:00 GMT 48.250809 -5.765850 36,000 262 529 0
2020-01-23 13:19:57 GMT 48.252094 -5.753439 36,000 262 529 0
2020-01-23 13:19:50 GMT 48.254562 -5.729088 36,000 262 530 0
2020-01-23 13:19:47 GMT 48.255432 -5.720426 36,000 262 530 0
2020-01-23 13:19:42 GMT 48.257263 -5.702468 36,000 262 530 0
2020-01-23 13:19:37 GMT 48.259121 -5.683907 36,000 262 530 0
2020-01-23 13:19:33 GMT 48.261017 -5.665354 36,000 262 530 0
2020-01-23 13:19:27 GMT 48.262894 -5.647043 36,000 262 529 0
2020-01-23 13:19:22 GMT 48.264679 -5.629366 36,000 262 530 64
2020-01-23 13:19:17 GMT 48.266663 -5.609605 36,000 262 531 0
2020-01-23 13:19:13 GMT 48.268108 -5.595366 36,000 262 531 0
2020-01-23 13:19:09 GMT 48.269394 -5.582886 36,000 262 531 0
2020-01-23 13:19:03 GMT 48.271553 -5.561323 36,000 262 531 0
2020-01-23 13:18:59 GMT 48.273010 -5.546476 36,000 262 531 -64
2020-01-23 13:18:55 GMT 48.274612 -5.530489 36,000 262 531 0
2020-01-23 13:18:52 GMT 48.275555 -5.520919 36,000 262 531 -64
2020-01-23 13:18:49 GMT 48.276810 -5.508376 36,000 262 531 0
2020-01-23 13:18:46 GMT 48.278091 -5.495277 36,000 262 531 0
2020-01-23 13:18:43 GMT 48.278812 -5.487960 36,000 262 531 64
2020-01-23 13:18:39 GMT 48.280380 -5.472248 36,000 262 531 64
2020-01-23 13:18:36 GMT 48.281479 -5.460909 36,000 262 531 0
2020-01-23 13:18:32 GMT 48.283218 -5.443444 36,000 262 531 0
2020-01-23 13:18:29 GMT 48.283981 -5.435558 36,000 262 531 0
2020-01-23 13:18:26 GMT 48.285049 -5.424781 36,000 262 531 0
2020-01-23 13:18:23 GMT 48.286167 -5.413730 36,000 262 531 0
2020-01-23 13:18:19 GMT 48.287567 -5.399499 36,000 262 531 0
2020-01-23 13:18:13 GMT 48.289753 -5.377085 36,000 262 531 0
2020-01-23 13:18:09 GMT 48.291138 -5.362807 36,000 262 531 0
2020-01-23 13:18:03 GMT 48.293289 -5.340975 36,000 262 531 0
2020-01-23 13:17:59 GMT 48.294754 -5.326116 36,000 262 531 0
2020-01-23 13:17:53 GMT 48.296814 -5.304847 36,000 262 531 0
2020-01-23 13:17:49 GMT 48.298367 -5.289122 36,000 262 531 0
2020-01-23 13:17:43 GMT 48.300339 -5.268437 36,000 262 531 0
2020-01-23 13:17:39 GMT 48.301895 -5.252451 36,000 262 531 0
2020-01-23 13:17:36 GMT 48.303020 -5.241057 36,000 262 531 0
2020-01-23 13:17:32 GMT 48.304001 -5.230619 36,000 262 530 0
2020-01-23 13:17:29 GMT 48.305557 -5.214632 36,000 262 530 0
2020-01-23 13:17:23 GMT 48.307434 -5.194843 36,000 262 530 -64
2020-01-23 13:17:18 GMT 48.309082 -5.177659 36,000 262 530 0
2020-01-23 13:17:15 GMT 48.310097 -5.167188 36,000 262 530 0
2020-01-23 13:17:11 GMT 48.311691 -5.150616 36,000 262 530 0
2020-01-23 13:17:08 GMT 48.312515 -5.141883 36,000 262 530 0
2020-01-23 13:17:03 GMT 48.315262 -5.114065 36,000 262 529 0
2020-01-23 13:16:55 GMT 48.317322 -5.093149 36,000 262 529 -64
2020-01-23 13:16:52 GMT 48.319687 -5.069034 36,000 262 529 0
2020-01-23 13:16:48 GMT 48.319687 -5.069034 36,000 262 529 0
2020-01-23 13:16:41 GMT 48.322266 -5.043499 36,000 262 528 0
2020-01-23 13:16:37 GMT 48.323551 -5.030799 36,000 262 529 0
2020-01-23 13:16:34 GMT 48.324993 -5.016560 36,000 262 529 0
2020-01-23 13:16:31 GMT 48.326202 -5.004695 36,000 262 529 0
2020-01-23 13:16:25 GMT 48.328392 -4.983529 36,000 262 529 0
2020-01-23 13:16:20 GMT 48.330139 -4.966454 36,000 262 528 0
2020-01-23 13:16:17 GMT 48.331238 -4.956031 36,000 262 529 0
2020-01-23 13:16:14 GMT 48.332394 -4.944426 36,000 262 529 0
2020-01-23 13:16:11 GMT 48.333557 -4.933150 36,000 262 528 0
2020-01-23 13:16:07 GMT 48.334629 -4.922381 36,000 262 528 0
2020-01-23 13:16:02 GMT 48.336632 -4.901492 36,000 263 529 64
2020-01-23 13:15:58 GMT 48.338215 -4.884362 36,000 263 529 0
2020-01-23 13:15:53 GMT 48.339424 -4.870124 36,000 263 529 0
2020-01-23 13:15:50 GMT 48.340496 -4.857330 36,000 263 529 0
2020-01-23 13:15:47 GMT 48.341240 -4.848296 36,000 264 529 0
2020-01-23 13:15:43 GMT 48.342403 -4.833117 36,000 264 529 -64
2020-01-23 13:15:40 GMT 48.343147 -4.824082 36,000 263 529 -64
2020-01-23 13:15:37 GMT 48.344238 -4.811307 36,000 263 527 64
2020-01-23 13:15:34 GMT 48.345200 -4.801166 36,000 262 528 64
2020-01-23 13:15:31 GMT 48.346527 -4.789335 36,000 260 527 -64
2020-01-23 13:15:27 GMT 48.348595 -4.774138 36,000 256 524 0
2020-01-23 13:15:21 GMT 48.351654 -4.756094 36,000 255 525 0
2020-01-23 13:15:17 GMT 48.354927 -4.739661 36,000 251 522 0
2020-01-23 13:15:11 GMT 48.359207 -4.721013 36,000 251 522 0
2020-01-23 13:15:07 GMT 48.363354 -4.705184 36,000 248 520 -64
2020-01-23 13:15:03 GMT 48.370102 -4.681549 36,000 247 519 0
2020-01-23 13:15:00 GMT 48.370102 -4.681549 36,000 247 519 0
2020-01-23 13:14:57 GMT 48.372894 -4.672081 36,000 247 518 0
2020-01-23 13:14:49 GMT 48.379833 -4.648373 36,000 247 518 0
2020-01-23 13:14:46 GMT 48.382782 -4.638343 36,000 247 518 0
2020-01-23 13:14:41 GMT 48.388367 -4.619399 36,000 247 518 0
2020-01-23 13:14:37 GMT 48.397888 -4.586933 36,000 247 518 0
2020-01-23 13:14:31 GMT 48.402420 -4.571439 36,000 247 518 0
2020-01-23 13:14:27 GMT 48.402420 -4.571439 36,000 247 518 0
2020-01-23 13:14:21 GMT 48.407719 -4.553472 36,000 247 518 0
2020-01-23 13:14:16 GMT 48.412045 -4.538727 36,000 247 518 64
2020-01-23 13:14:11 GMT 48.417259 -4.520874 36,000 247 518 64
2020-01-23 13:14:06 GMT 48.421921 -4.505028 36,000 247 518 0
2020-01-23 13:14:02 GMT 48.425217 -4.493760 36,000 247 518 -64
2020-01-23 13:13:59 GMT 48.429176 -4.480326 36,000 247 518 -64
2020-01-23 13:13:56 GMT 48.431580 -4.472140 36,000 247 518 0
2020-01-23 13:13:53 GMT 48.435196 -4.459745 36,000 247 518 0
2020-01-23 13:13:46 GMT 48.441376 -4.438617 36,000 247 518 0
2020-01-23 13:13:41 GMT 48.445496 -4.424673 36,000 247 518 0
2020-01-23 13:13:38 GMT 48.449249 -4.411785 36,000 247 518 0
2020-01-23 13:13:35 GMT 48.452965 -4.399085 36,000 247 518 0
2020-01-23 13:13:31 GMT 48.455475 -4.390658 36,000 247 518 64
2020-01-23 13:13:28 GMT 48.459019 -4.378485 36,000 247 518 0
2020-01-23 13:13:22 GMT 48.464584 -4.359530 36,000 247 519 64
2020-01-23 13:13:18 GMT 48.468933 -4.344670 36,000 247 520 0
2020-01-23 13:13:15 GMT 48.471725 -4.335191 36,000 247 520 0
2020-01-23 13:13:10 GMT 48.475590 -4.321964 36,000 247 520 0
2020-01-23 13:13:06 GMT 48.480560 -4.305021 36,000 247 521 0
2020-01-23 13:13:00 GMT 48.489624 -4.274034 36,000 247 521 0
2020-01-23 13:12:56 GMT 48.492069 -4.265803 36,000 247 521 0
2020-01-23 13:12:53 GMT 48.495701 -4.253371 36,000 247 519 0
2020-01-23 13:12:50 GMT 48.495701 -4.253371 36,000 247 521 0
2020-01-23 13:12:45 GMT 48.500610 -4.236638 36,000 247 520 0
2020-01-23 13:12:40 GMT 48.505058 -4.221569 36,000 247 520 0
2020-01-23 13:12:37 GMT 48.508209 -4.210933 36,000 247 520 0
2020-01-23 13:12:33 GMT 48.511642 -4.199313 36,000 247 520 0
2020-01-23 13:12:30 GMT 48.514973 -4.187959 36,000 247 520 0
2020-01-23 13:12:27 GMT 48.518326 -4.176565 36,000 247 519 0
2020-01-23 13:12:21 GMT 48.523586 -4.158831 36,000 247 519 0
2020-01-23 13:12:17 GMT 48.530941 -4.134040 36,000 247 519 0
2020-01-23 13:12:14 GMT 48.534897 -4.120577 36,000 247 519 64
2020-01-23 13:12:09 GMT 48.534897 -4.120577 36,000 247 519 0
2020-01-23 13:12:06 GMT 48.538715 -4.107586 36,000 247 519 0
2020-01-23 13:12:03 GMT 48.541306 -4.098886 36,000 247 519 0
2020-01-23 13:12:00 GMT 48.544674 -4.087492 36,000 247 519 0
2020-01-23 13:11:57 GMT 48.547165 -4.079026 36,000 247 519 0
2020-01-23 13:11:53 GMT 48.551834 -4.063181 36,000 247 519 0
2020-01-23 13:11:50 GMT 48.554077 -4.055545 36,000 247 519 0
2020-01-23 13:11:47 GMT 48.557281 -4.044659 36,000 247 519 64
2020-01-23 13:11:44 GMT 48.560165 -4.034940 36,000 247 519 64
2020-01-23 13:11:40 GMT 48.564087 -4.021719 36,000 246 520 64
2020-01-23 13:11:35 GMT 48.569504 -4.003460 36,000 246 520 0
2020-01-23 13:11:32 GMT 48.571629 -3.996277 36,000 246 520 0
2020-01-23 13:11:29 GMT 48.574127 -3.987826 36,000 246 520 0
2020-01-23 13:11:24 GMT 48.579071 -3.971205 36,000 246 520 0
2020-01-23 13:11:21 GMT 48.581818 -3.961909 36,000 246 520 0
2020-01-23 13:11:17 GMT 48.586670 -3.945500 36,000 246 520 -64
2020-01-23 13:11:14 GMT 48.588959 -3.937894 36,000 246 520 -64
2020-01-23 13:11:11 GMT 48.591660 -3.928880 36,000 246 520 0
2020-01-23 13:11:07 GMT 48.595787 -3.915180 36,000 246 520 0
2020-01-23 13:11:04 GMT 48.599186 -3.903760 36,000 246 520 0
2020-01-23 13:10:59 GMT 48.604111 -3.887118 36,000 248 521 0
2020-01-23 13:10:56 GMT 48.611160 -3.861906 36,000 248 522 64
2020-01-23 13:10:52 GMT 48.611160 -3.861906 36,000 254 524 -64
2020-01-23 13:10:49 GMT 48.613197 -3.854105 36,000 253 524 0
2020-01-23 13:10:46 GMT 48.615807 -3.843408 36,000 251 523 0
2020-01-23 13:10:42 GMT 48.618645 -3.830976 36,000 252 523 0
2020-01-23 13:10:39 GMT 48.621094 -3.819298 36,000 254 524 -64
2020-01-23 13:10:36 GMT 48.623207 -3.808064 36,000 255 524 0
2020-01-23 13:10:32 GMT 48.625763 -3.793311 36,000 257 525 0
2020-01-23 13:10:29 GMT 48.627411 -3.782748 36,000 258 526 -64
2020-01-23 13:10:25 GMT 48.629494 -3.767515 36,000 260 526 0
2020-01-23 13:10:22 GMT 48.630798 -3.757465 36,000 260 526 0
2020-01-23 13:10:18 GMT 48.632286 -3.745904 36,000 260 526 0
2020-01-23 13:10:14 GMT 48.634506 -3.728661 36,000 260 526 0
2020-01-23 13:10:11 GMT 48.635918 -3.717427 36,000 260 526 0
2020-01-23 13:10:08 GMT 48.636841 -3.710210 36,000 260 526 0
2020-01-23 13:10:04 GMT 48.639175 -3.692040 36,000 260 526 0
2020-01-23 13:09:58 GMT 48.641411 -3.674421 36,000 260 526 0
2020-01-23 13:09:54 GMT 48.644062 -3.653677 36,000 260 526 0
2020-01-23 13:09:51 GMT 48.645447 -3.642742 36,000 260 525 0
2020-01-23 13:09:48 GMT 48.646111 -3.637559 36,000 260 526 -64
2020-01-23 13:09:43 GMT 48.648438 -3.619345 36,000 260 525 0
2020-01-23 13:09:38 GMT 48.650719 -3.601492 36,000 260 526 0
2020-01-23 13:09:35 GMT 48.652348 -3.588554 36,000 260 526 0
2020-01-23 13:09:31 GMT 48.655281 -3.565497 36,000 260 525 0
2020-01-23 13:09:28 GMT 48.655281 -3.565497 36,000 260 525 0
2020-01-23 13:09:25 GMT 48.656891 -3.552809 36,000 260 525 64
2020-01-23 13:09:22 GMT 48.658127 -3.542739 36,000 260 525 0
2020-01-23 13:09:18 GMT 48.659958 -3.528302 36,000 260 525 0
2020-01-23 13:09:15 GMT 48.661518 -3.516203 36,000 260 525 0
2020-01-23 13:09:08 GMT 48.664452 -3.492930 36,000 260 525 0
2020-01-23 13:09:05 GMT 48.666504 -3.476539 36,000 260 525 0
2020-01-23 13:09:01 GMT 48.668198 -3.463299 36,000 260 525 0
2020-01-23 13:08:57 GMT 48.669571 -3.452031 36,000 260 524 0
2020-01-23 13:08:53 GMT 48.671623 -3.435974 36,000 260 524 0
2020-01-23 13:08:48 GMT 48.673599 -3.420128 36,000 260 524 0
2020-01-23 13:08:45 GMT 48.675255 -3.406918 36,000 260 524 -64
2020-01-23 13:08:40 GMT 48.677021 -3.392896 36,000 260 523 0
2020-01-23 13:08:36 GMT 48.680649 -3.363647 36,000 260 523 0
2020-01-23 13:08:32 GMT 48.680649 -3.363647 36,000 260 523 0
2020-01-23 13:08:29 GMT 48.682022 -3.352732 36,000 260 523 0
2020-01-23 13:08:25 GMT 48.683624 -3.340125 36,000 260 523 0
2020-01-23 13:08:20 GMT 48.686192 -3.319244 36,000 260 523 0
2020-01-23 13:08:17 GMT 48.687378 -3.310054 36,000 260 522 -64
2020-01-23 13:08:13 GMT 48.689079 -3.296260 36,000 260 522 0
2020-01-23 13:08:10 GMT 48.690582 -3.284208 36,000 260 522 0
2020-01-23 13:08:06 GMT 48.694290 -3.254121 36,000 260 523 0
2020-01-23 13:08:02 GMT 48.694290 -3.254121 36,000 260 522 -64
2020-01-23 13:07:58 GMT 48.696060 -3.239738 36,000 260 522 -64
2020-01-23 13:07:55 GMT 48.697041 -3.231715 36,000 260 522 0
2020-01-23 13:07:52 GMT 48.698547 -3.219698 36,000 260 522 0
2020-01-23 13:07:49 GMT 48.701660 -3.194416 36,000 260 522 0
2020-01-23 13:07:45 GMT 48.703232 -3.181771 36,000 260 522 0
2020-01-23 13:07:41 GMT 48.703232 -3.181771 36,000 260 522 0
2020-01-23 13:07:37 GMT 48.705002 -3.167091 36,000 260 523 0
2020-01-23 13:07:32 GMT 48.707748 -3.144977 36,000 260 523 0
2020-01-23 13:07:27 GMT 48.710773 -3.120334 36,000 260 523 0
2020-01-23 13:07:24 GMT 48.710773 -3.120334 36,000 260 523 0
2020-01-23 13:07:21 GMT 48.712097 -3.109413 36,000 260 523 0
2020-01-23 13:07:16 GMT 48.715054 -3.085496 36,000 260 523 0
2020-01-23 13:07:13 GMT 48.716080 -3.076876 36,000 260 523 0
2020-01-23 13:07:10 GMT 48.719433 -3.049573 36,000 260 523 0
2020-01-23 13:07:05 GMT 48.719433 -3.049573 36,000 260 523 0
2020-01-23 13:07:01 GMT 48.721012 -3.036636 36,000 260 523 0
2020-01-23 13:06:57 GMT 48.722691 -3.022903 36,000 260 523 0
2020-01-23 13:06:54 GMT 48.725555 -2.999338 36,000 260 522 0
2020-01-23 13:06:51 GMT 48.725555 -2.999338 36,000 260 522 0
2020-01-23 13:06:47 GMT 48.727249 -2.985246 36,000 260 522 0
2020-01-23 13:06:43 GMT 48.729019 -2.970573 36,000 260 522 0
2020-01-23 13:06:40 GMT 48.730743 -2.956262 36,000 260 522 0
2020-01-23 13:06:37 GMT 48.731628 -2.949034 36,000 260 522 0
2020-01-23 13:06:32 GMT 48.734978 -2.921207 36,000 260 522 0
2020-01-23 13:06:26 GMT 48.736702 -2.906896 36,000 260 522 0
2020-01-23 13:06:23 GMT 48.737320 -2.902010 36,000 260 522 0
2020-01-23 13:06:20 GMT 48.738739 -2.890249 36,000 260 521 0
2020-01-23 13:06:17 GMT 48.740250 -2.877291 36,000 260 521 0
2020-01-23 13:06:13 GMT 48.742950 -2.854966 36,000 260 521 0
2020-01-23 13:06:06 GMT 48.745148 -2.836585 36,000 260 521 0
2020-01-23 13:06:01 GMT 48.747391 -2.817923 36,000 260 521 0
2020-01-23 13:05:56 GMT 48.749039 -2.804188 36,000 260 521 0
2020-01-23 13:05:50 GMT 48.751694 -2.781865 36,000 260 521 0
2020-01-23 13:05:44 GMT 48.754021 -2.762339 36,000 260 521 0
2020-01-23 13:05:41 GMT 48.756859 -2.738559 36,000 260 521 0
2020-01-23 13:05:38 GMT 48.756859 -2.738559 36,000 260 521 0
2020-01-23 13:05:35 GMT 48.758766 -2.722802 36,000 260 521 0
2020-01-23 13:05:30 GMT 48.760258 -2.709865 36,000 260 521 0
2020-01-23 13:05:27 GMT 48.761673 -2.698130 36,000 260 521 0
2020-01-23 13:05:24 GMT 48.762909 -2.687847 36,000 260 521 0
2020-01-23 13:05:21 GMT 48.764099 -2.677495 36,000 260 521 0
2020-01-23 13:05:14 GMT 48.767166 -2.651719 36,000 260 521 0
2020-01-23 13:05:09 GMT 48.769100 -2.635345 36,000 260 521 0
2020-01-23 13:05:06 GMT 48.770462 -2.623901 36,000 260 521 0
2020-01-23 13:05:02 GMT 48.772499 -2.606723 36,000 260 521 0
2020-01-23 13:04:59 GMT 48.773346 -2.599534 36,000 260 521 0
2020-01-23 13:04:56 GMT 48.774643 -2.588654 36,000 260 521 0
2020-01-23 13:04:53 GMT 48.776318 -2.574342 36,000 260 521 0
2020-01-23 13:04:48 GMT 48.778061 -2.559674 36,000 260 521 0
2020-01-23 13:04:45 GMT 48.779068 -2.551082 36,000 260 521 0
2020-01-23 13:04:40 GMT 48.783417 -2.513827 36,000 260 521 0
2020-01-23 13:04:33 GMT 48.784286 -2.506643 36,000 260 521 0
2020-01-23 13:04:30 GMT 48.785614 -2.495164 36,000 261 521 0
2020-01-23 13:04:27 GMT 48.786980 -2.483127 36,000 261 520 0
2020-01-23 13:04:23 GMT 48.790421 -2.453543 36,000 261 521 0
2020-01-23 13:04:18 GMT 48.790421 -2.453543 36,000 261 521 0
2020-01-23 13:04:15 GMT 48.791725 -2.442001 36,000 261 521 0
2020-01-23 13:04:10 GMT 48.793945 -2.422204 36,000 261 521 0
2020-01-23 13:04:07 GMT 48.794987 -2.413306 36,000 261 521 0
2020-01-23 13:04:04 GMT 48.796333 -2.401235 36,000 261 521 0
2020-01-23 13:04:01 GMT 48.797607 -2.389738 36,000 261 521 0
2020-01-23 13:03:58 GMT 48.798664 -2.380275 36,000 261 521 0
2020-01-23 13:03:55 GMT 48.799850 -2.369596 36,000 261 521 0
2020-01-23 13:03:49 GMT 48.802780 -2.342905 36,000 261 521 0
2020-01-23 13:03:45 GMT 48.805180 -2.321368 36,000 261 519 0
2020-01-23 13:03:42 GMT 48.806992 -2.304453 36,000 261 519 0
2020-01-23 13:03:37 GMT 48.806992 -2.304453 36,000 261 519 0
2020-01-23 13:03:34 GMT 48.807972 -2.295781 36,000 261 519 0
2020-01-23 13:03:30 GMT 48.809967 -2.277128 36,000 261 519 0
2020-01-23 13:03:27 GMT 48.810719 -2.270267 36,000 261 518 0
2020-01-23 13:03:24 GMT 48.812210 -2.256751 36,000 261 518 0
2020-01-23 13:03:18 GMT 48.814499 -2.235295 36,000 261 519 0
2020-01-23 13:03:14 GMT 48.816010 -2.221492 36,000 261 518 0
2020-01-23 13:03:10 GMT 48.818481 -2.198604 36,000 261 518 0
2020-01-23 13:03:04 GMT 48.819656 -2.187653 36,000 261 518 0
2020-01-23 13:02:59 GMT 48.822052 -2.165645 36,000 261 518 0
2020-01-23 13:02:56 GMT 48.822784 -2.158743 36,000 261 518 0
2020-01-23 13:02:53 GMT 48.826546 -2.123831 36,000 261 518 0
2020-01-23 13:02:48 GMT 48.826546 -2.123831 36,000 261 518 0
2020-01-23 13:02:45 GMT 48.827271 -2.116910 36,000 261 518 0
2020-01-23 13:02:41 GMT 48.828690 -2.103741 36,000 261 518 0
2020-01-23 13:02:38 GMT 48.830273 -2.088559 36,000 261 518 0
2020-01-23 13:02:34 GMT 48.831711 -2.075430 36,000 261 517 0
2020-01-23 13:02:29 GMT 48.834183 -2.051914 36,000 261 517 0
2020-01-23 13:02:26 GMT 48.835327 -2.041063 36,000 261 517 0
2020-01-23 13:02:18 GMT 48.838943 -2.006413 36,000 261 517 0
2020-01-23 13:02:14 GMT 48.838943 -2.006413 36,000 261 517 0
2020-01-23 13:02:10 GMT 48.842003 -1.977250 36,000 261 517 -64
2020-01-23 13:02:07 GMT 48.842003 -1.977250 36,000 261 517 0
2020-01-23 13:02:02 GMT 48.843246 -1.965567 36,000 261 516 0
2020-01-23 13:01:59 GMT 48.844666 -1.951834 36,000 261 516 0
2020-01-23 13:01:53 GMT 48.846798 -1.931570 36,000 261 516 64
2020-01-23 13:01:48 GMT 48.848614 -1.914151 36,000 262 516 0
2020-01-23 13:01:43 GMT 48.850525 -1.895846 36,000 261 518 0
2020-01-23 13:01:40 GMT 48.851990 -1.881831 36,000 262 516 0
2020-01-23 13:01:37 GMT 48.854507 -1.857535 36,000 261 517 0
2020-01-23 13:01:32 GMT 48.854507 -1.857535 36,000 262 517 -64
2020-01-23 13:01:28 GMT 48.856201 -1.840985 36,000 262 517 -64
2020-01-23 13:01:22 GMT 48.859726 -1.806969 36,000 262 517 0
2020-01-23 13:01:18 GMT 48.859726 -1.806969 36,000 262 517 0
2020-01-23 13:01:14 GMT 48.860996 -1.794675 36,000 262 517 0
2020-01-23 13:01:11 GMT 48.862068 -1.784411 36,000 261 516 0
2020-01-23 13:01:08 GMT 48.863205 -1.773517 36,000 261 516 0
2020-01-23 13:01:05 GMT 48.864532 -1.760920 36,000 261 517 0
2020-01-23 13:01:01 GMT 48.865978 -1.746971 36,000 261 518 0
2020-01-23 13:00:58 GMT 48.869049 -1.718059 36,000 261 517 0
2020-01-23 13:00:53 GMT 48.869049 -1.718059 36,000 261 517 0
2020-01-23 13:00:50 GMT 48.871098 -1.698616 36,000 261 517 0
2020-01-23 13:00:44 GMT 48.872494 -1.685462 36,000 261 518 0
2020-01-23 13:00:41 GMT 48.873611 -1.675126 36,000 261 517 0
2020-01-23 13:00:38 GMT 48.874786 -1.663936 36,000 262 518 0
2020-01-23 13:00:32 GMT 48.877010 -1.642456 36,000 262 518 0
2020-01-23 13:00:29 GMT 48.879684 -1.617244 36,000 262 518 0
2020-01-23 13:00:26 GMT 48.879684 -1.617244 36,000 261 518 0
2020-01-23 13:00:23 GMT 48.880692 -1.607173 36,000 262 518 0
2020-01-23 13:00:19 GMT 48.883480 -1.580803 36,000 261 518 0
2020-01-23 13:00:16 GMT 48.883480 -1.580803 36,000 261 518 0
2020-01-23 13:00:12 GMT 48.884365 -1.572201 36,000 261 518 0
2020-01-23 13:00:09 GMT 48.885529 -1.561287 36,000 261 518 0
2020-01-23 13:00:05 GMT 48.887066 -1.546615 36,000 261 518 64
2020-01-23 13:00:02 GMT 48.888371 -1.534617 36,000 261 518 0
2020-01-23 12:59:59 GMT 48.889439 -1.524570 36,000 261 518 0
2020-01-23 12:59:56 GMT 48.892639 -1.494774 36,000 261 518 0
2020-01-23 12:59:52 GMT 48.892639 -1.494774 36,000 261 518 0
2020-01-23 12:59:49 GMT 48.893326 -1.488154 36,000 261 518 0
2020-01-23 12:59:45 GMT 48.896378 -1.459447 36,000 261 518 0
2020-01-23 12:59:41 GMT 48.896378 -1.459447 36,000 261 518 0
2020-01-23 12:59:38 GMT 48.897263 -1.450900 36,000 261 518 -64
2020-01-23 12:59:35 GMT 48.898750 -1.436824 36,000 261 518 -64
2020-01-23 12:59:29 GMT 48.900703 -1.418465 36,000 261 518 0
2020-01-23 12:59:25 GMT 48.902756 -1.398926 36,000 261 517 0
2020-01-23 12:59:20 GMT 48.904568 -1.382037 36,000 261 517 0
2020-01-23 12:59:14 GMT 48.907875 -1.350523 36,000 261 517 0
2020-01-23 12:59:10 GMT 48.909084 -1.339103 36,000 261 517 0
2020-01-23 12:59:07 GMT 48.909084 -1.339103 36,000 262 514 0
2020-01-23 12:59:04 GMT 48.910126 -1.329346 36,000 261 517 0
2020-01-23 12:59:01 GMT 48.911644 -1.315035 36,000 261 517 0
2020-01-23 12:58:57 GMT 48.913330 -1.298711 36,000 261 517 64
2020-01-23 12:58:54 GMT 48.914383 -1.288992 36,000 261 517 0
2020-01-23 12:58:48 GMT 48.917698 -1.257501 36,000 261 516 0
2020-01-23 12:58:45 GMT 48.917698 -1.257501 36,000 261 516 0
2020-01-23 12:58:39 GMT 48.919739 -1.237793 36,000 261 516 0
2020-01-23 12:58:36 GMT 48.920769 -1.228084 36,000 262 516 0
2020-01-23 12:58:33 GMT 48.922119 -1.215186 36,000 261 516 0
2020-01-23 12:58:30 GMT 48.923191 -1.204593 36,000 261 516 0
2020-01-23 12:58:27 GMT 48.925323 -1.184340 36,000 262 516 0
2020-01-23 12:58:21 GMT 48.926559 -1.172298 36,000 262 515 0
2020-01-23 12:58:17 GMT 48.927933 -1.158917 36,000 262 515 0
2020-01-23 12:58:14 GMT 48.929123 -1.147719 36,000 262 515 0
2020-01-23 12:58:10 GMT 48.930405 -1.135183 36,000 262 515 0
2020-01-23 12:58:07 GMT 48.931641 -1.123211 36,000 262 515 0
2020-01-23 12:58:04 GMT 48.932785 -1.112366 36,000 262 515 0
2020-01-23 12:58:01 GMT 48.934296 -1.097506 36,000 262 515 0
2020-01-23 12:57:57 GMT 48.935257 -1.088421 36,000 262 515 0
2020-01-23 12:57:54 GMT 48.936447 -1.076449 36,000 262 514 0
2020-01-23 12:57:50 GMT 48.937805 -1.063578 36,000 262 514 0
2020-01-23 12:57:44 GMT 48.940109 -1.041095 36,000 262 514 0
2020-01-23 12:57:41 GMT 48.941254 -1.029968 36,000 262 514 0
2020-01-23 12:57:38 GMT 48.942089 -1.021729 36,000 262 514 0
2020-01-23 12:57:34 GMT 48.943817 -1.004897 36,000 262 514 0
2020-01-23 12:57:30 GMT 48.945114 -0.992094 36,000 262 514 0
2020-01-23 12:57:27 GMT 48.946243 -0.980952 36,000 262 514 0
2020-01-23 12:57:23 GMT 48.947723 -0.966435 36,000 262 514 0
2020-01-23 12:57:20 GMT 48.948944 -0.954754 36,000 262 512 0
2020-01-23 12:57:16 GMT 48.949997 -0.944261 36,000 262 512 0
2020-01-23 12:57:13 GMT 48.951122 -0.933115 36,000 262 512 0
2020-01-23 12:57:10 GMT 48.952652 -0.918344 36,000 262 512 0
2020-01-23 12:57:05 GMT 48.954071 -0.904118 36,000 262 511 0
2020-01-23 12:57:02 GMT 48.956894 -0.876521 36,000 262 512 0
2020-01-23 12:56:58 GMT 48.956894 -0.876521 36,000 262 512 0
2020-01-23 12:56:54 GMT 48.958523 -0.860331 36,000 262 512 0
2020-01-23 12:56:51 GMT 48.959335 -0.852074 36,000 262 511 0
2020-01-23 12:56:48 GMT 48.961716 -0.828834 36,000 262 511 0
2020-01-23 12:56:44 GMT 48.961716 -0.828834 36,000 262 511 0
2020-01-23 12:56:41 GMT 48.962997 -0.816017 36,000 262 511 0
2020-01-23 12:56:36 GMT 48.964554 -0.800382 36,000 262 512 0
2020-01-23 12:56:32 GMT 48.965881 -0.787283 36,000 262 512 0
2020-01-23 12:56:29 GMT 48.967117 -0.775100 36,000 262 512 0
2020-01-23 12:56:26 GMT 48.968113 -0.764851 36,000 262 512 0
2020-01-23 12:56:22 GMT 48.970070 -0.745480 36,000 262 512 0
2020-01-23 12:56:19 GMT 48.970581 -0.740421 36,000 262 512 0
2020-01-23 12:56:16 GMT 48.971790 -0.728422 36,000 262 512 0
2020-01-23 12:56:11 GMT 48.973709 -0.709393 36,000 262 512 0
2020-01-23 12:56:07 GMT 48.975933 -0.686573 36,000 262 512 64
2020-01-23 12:56:04 GMT 48.977379 -0.672045 36,000 262 512 -64
2020-01-23 12:56:00 GMT 48.977379 -0.672045 36,000 262 513 0
2020-01-23 12:55:56 GMT 48.979145 -0.654409 36,000 262 513 0
2020-01-23 12:55:51 GMT 48.980576 -0.639883 36,000 262 513 0
2020-01-23 12:55:48 GMT 48.982086 -0.624530 36,000 262 513 0
2020-01-23 12:55:45 GMT 48.984146 -0.603685 36,000 262 513 0
2020-01-23 12:55:42 GMT 48.984146 -0.603685 36,000 262 513 0
2020-01-23 12:55:39 GMT 48.984833 -0.596853 36,000 262 513 0
2020-01-23 12:55:36 GMT 48.985703 -0.587980 36,000 262 513 0
2020-01-23 12:55:33 GMT 48.987946 -0.565218 36,000 262 513 0
2020-01-23 12:55:25 GMT 48.989574 -0.548666 36,000 262 513 0
2020-01-23 12:55:21 GMT 48.991390 -0.530090 36,000 262 513 0
2020-01-23 12:55:16 GMT 48.992878 -0.514984 36,000 262 513 0
2020-01-23 12:55:12 GMT 48.994137 -0.502119 36,000 262 513 0
2020-01-23 12:55:09 GMT 48.996460 -0.478187 36,000 262 513 64
2020-01-23 12:55:06 GMT 48.996460 -0.478187 36,000 262 513 0
2020-01-23 12:55:02 GMT 48.997719 -0.465329 36,000 262 513 0
2020-01-23 12:54:59 GMT 48.998795 -0.454454 36,000 262 513 0
2020-01-23 12:54:56 GMT 48.999939 -0.442481 36,000 262 513 0
2020-01-23 12:54:52 GMT 49.001396 -0.427961 36,000 262 513 0
2020-01-23 12:54:49 GMT 49.002640 -0.415086 36,000 262 513 0
2020-01-23 12:54:45 GMT 49.003540 -0.405988 36,000 262 513 0
2020-01-23 12:54:42 GMT 49.004791 -0.392832 36,000 262 513 0
2020-01-23 12:54:39 GMT 49.007076 -0.369415 36,000 262 513 0
2020-01-23 12:54:36 GMT 49.007076 -0.369415 36,000 262 513 0
2020-01-23 12:54:32 GMT 49.008224 -0.357478 36,000 262 513 0
2020-01-23 12:54:29 GMT 49.009232 -0.347196 36,000 262 513 0
2020-01-23 12:54:26 GMT 49.010056 -0.338323 36,000 262 512 0
2020-01-23 12:54:22 GMT 49.011658 -0.321773 36,000 262 513 0
2020-01-23 12:54:18 GMT 49.014107 -0.296342 36,000 262 513 0
2020-01-23 12:54:15 GMT 49.015224 -0.284633 36,000 262 513 0
2020-01-23 12:54:11 GMT 49.015224 -0.284633 36,000 262 513 0
2020-01-23 12:54:08 GMT 49.016464 -0.271841 36,000 262 513 0
2020-01-23 12:54:04 GMT 49.018948 -0.245530 36,000 262 513 0
2020-01-23 12:54:01 GMT 49.020390 -0.230424 36,000 262 513 0
2020-01-23 12:53:57 GMT 49.020390 -0.230424 36,000 262 513 0
2020-01-23 12:53:54 GMT 49.021229 -0.221823 36,000 262 513 0
2020-01-23 12:53:50 GMT 49.022552 -0.207543 36,000 262 513 0
2020-01-23 12:53:46 GMT 49.023743 -0.195289 36,000 262 513 0
2020-01-23 12:53:43 GMT 49.024906 -0.183009 36,000 262 513 0
2020-01-23 12:53:39 GMT 49.026302 -0.168192 36,000 262 513 0
2020-01-23 12:53:36 GMT 49.028912 -0.140726 36,000 262 513 0
2020-01-23 12:53:32 GMT 49.028912 -0.140726 36,000 262 513 0
2020-01-23 12:53:25 GMT 49.031563 -0.112465 36,000 262 513 0
2020-01-23 12:53:21 GMT 49.032494 -0.102780 36,000 262 513 0
2020-01-23 12:53:17 GMT 49.033493 -0.091905 36,000 262 513 0
2020-01-23 12:53:14 GMT 49.034683 -0.079362 36,000 262 513 0
2020-01-23 12:53:11 GMT 49.035553 -0.069932 36,000 262 513 0
2020-01-23 12:53:06 GMT 49.037380 -0.050812 36,000 262 513 0
2020-01-23 12:53:03 GMT 49.038548 -0.037946 36,000 262 513 0
2020-01-23 12:52:56 GMT 49.040634 -0.015987 36,000 262 512 0
2020-01-23 12:52:53 GMT 49.042511 0.004014 36,000 263 509 0
2020-01-23 12:52:45 GMT 49.044228 0.022551 36,000 262 512 0
2020-01-23 12:52:41 GMT 49.045994 0.041922 36,000 263 510 0
2020-01-23 12:52:34 GMT 49.048096 0.064157 36,000 263 511 0
2020-01-23 12:52:30 GMT 49.049515 0.079580 36,000 263 511 0
2020-01-23 12:52:26 GMT 49.050613 0.091482 36,000 263 510 0
2020-01-23 12:52:22 GMT 49.052235 0.109140 36,000 263 510 0
2020-01-23 12:52:17 GMT 49.053909 0.127355 36,000 263 510 0
2020-01-23 12:52:14 GMT 49.055695 0.146766 36,000 263 510 0
2020-01-23 12:52:11 GMT 49.055695 0.146766 36,000 263 510 0
2020-01-23 12:52:08 GMT 49.056519 0.155569 36,000 263 510 -64
2020-01-23 12:52:05 GMT 49.057491 0.166096 36,000 263 510 -64
2020-01-23 12:52:02 GMT 49.058331 0.175492 36,000 263 510 -64
2020-01-23 12:51:58 GMT 49.059814 0.191416 36,000 263 510 0
2020-01-23 12:51:55 GMT 49.060822 0.202754 36,000 263 509 0
2020-01-23 12:51:52 GMT 49.061775 0.212716 36,000 263 509 0
2020-01-23 12:51:49 GMT 49.062790 0.224022 36,000 263 509 0
2020-01-23 12:51:46 GMT 49.063660 0.233671 36,000 263 509 0
2020-01-23 12:51:42 GMT 49.065037 0.248493 36,000 263 509 0
2020-01-23 12:51:37 GMT 49.067780 0.278850 36,000 263 508 0
2020-01-23 12:51:33 GMT 49.067780 0.278850 36,000 263 509 0
2020-01-23 12:51:30 GMT 49.068878 0.291067 36,000 263 509 0
2020-01-23 12:51:26 GMT 49.070339 0.307184 36,000 263 508 0
2020-01-23 12:51:23 GMT 49.071178 0.316291 36,000 263 508 0
2020-01-23 12:51:19 GMT 49.072449 0.330717 36,000 263 508 -64
2020-01-23 12:51:16 GMT 49.074371 0.351915 35,975 263 506 64
2020-01-23 12:51:10 GMT 49.075195 0.361281 36,000 263 506 128
2020-01-23 12:51:07 GMT 49.076248 0.372831 36,000 263 505 256
2020-01-23 12:51:04 GMT 49.077465 0.386328 35,975 263 505 320
2020-01-23 12:51:01 GMT 49.078033 0.392832 35,975 263 504 960
2020-01-23 12:50:58 GMT 49.079086 0.404381 35,925 263 504 704
2020-01-23 12:50:55 GMT 49.080734 0.422903 35,525 263 504 960
2020-01-23 12:50:49 GMT 49.082016 0.436988 35,800 263 504 960
2020-01-23 12:50:46 GMT 49.082958 0.447621 35,650 263 504 960
2020-01-23 12:50:43 GMT 49.083935 0.458607 35,650 263 504 960
2020-01-23 12:50:40 GMT 49.084625 0.465863 35,675 263 504 960
2020-01-23 12:50:36 GMT 49.085861 0.479948 35,600 263 504 960
2020-01-23 12:50:33 GMT 49.087189 0.494807 35,400 263 504 960
2020-01-23 12:50:30 GMT 49.087986 0.503853 35,450 263 504 1024
2020-01-23 12:50:27 GMT 49.090080 0.527127 35,450 263 504 1024
2020-01-23 12:50:24 GMT 49.090080 0.527127 35,350 263 504 960
2020-01-23 12:50:19 GMT 49.091217 0.540372 35,325 263 504 960
2020-01-23 12:50:16 GMT 49.092220 0.551629 35,200 263 504 1024
2020-01-23 12:50:13 GMT 49.093151 0.562327 35,100 263 504 960
2020-01-23 12:50:10 GMT 49.094101 0.572979 35,175 263 504 960
2020-01-23 12:50:07 GMT 49.095062 0.583684 35,100 263 504 768
2020-01-23 12:50:04 GMT 49.097260 0.608967 35,025 263 504 704
2020-01-23 12:49:59 GMT 49.097260 0.608967 35,025 263 504 448
2020-01-23 12:49:56 GMT 49.098312 0.621080 35,000 263 504 192
2020-01-23 12:49:53 GMT 49.099411 0.633193 35,000 263 504 0
2020-01-23 12:49:48 GMT 49.100693 0.647832 35,000 263 504 0
2020-01-23 12:49:45 GMT 49.101929 0.662208 35,000 263 504 0
2020-01-23 12:49:42 GMT 49.102707 0.671222 35,000 263 504 0
2020-01-23 12:49:38 GMT 49.103767 0.683321 35,000 263 504 0
2020-01-23 12:49:35 GMT 49.104649 0.693440 35,000 263 504 0
2020-01-23 12:49:32 GMT 49.105820 0.706928 35,000 263 504 0
2020-01-23 12:49:29 GMT 49.106735 0.717351 35,000 263 504 0
2020-01-23 12:49:25 GMT 49.108154 0.733971 35,000 263 504 0
2020-01-23 12:49:22 GMT 49.109676 0.751696 35,000 263 504 0
2020-01-23 12:49:16 GMT 49.110580 0.761789 35,000 263 504 0
2020-01-23 12:49:12 GMT 49.111908 0.777283 35,000 263 504 0
2020-01-23 12:49:09 GMT 49.113682 0.797521 35,000 263 503 0
2020-01-23 12:49:06 GMT 49.115250 0.815805 35,000 263 503 0
2020-01-23 12:49:02 GMT 49.115250 0.815805 35,000 263 504 0
2020-01-23 12:48:59 GMT 49.116074 0.825594 35,000 263 504 0
2020-01-23 12:48:54 GMT 49.117264 0.839679 35,000 263 504 0
2020-01-23 12:48:51 GMT 49.118244 0.850645 35,000 263 504 0
2020-01-23 12:48:47 GMT 49.119644 0.867216 35,000 263 504 0
2020-01-23 12:48:44 GMT 49.120384 0.875943 35,000 263 504 0
2020-01-23 12:48:41 GMT 49.121475 0.888625 35,000 263 504 0
2020-01-23 12:48:38 GMT 49.121933 0.893977 35,000 263 504 0
2020-01-23 12:48:35 GMT 49.123032 0.907217 35,000 263 504 -64
2020-01-23 12:48:32 GMT 49.124668 0.926321 35,000 263 504 -64
2020-01-23 12:48:26 GMT 49.125778 0.939261 35,000 263 504 64
2020-01-23 12:48:21 GMT 49.127106 0.955318 35,000 263 504 0
2020-01-23 12:48:18 GMT 49.127838 0.964050 35,000 263 504 0
2020-01-23 12:48:15 GMT 49.128857 0.975543 35,000 263 504 0
2020-01-23 12:48:11 GMT 49.130020 0.989637 35,000 263 505 0
2020-01-23 12:48:08 GMT 49.130859 0.999474 35,000 263 504 0
2020-01-23 12:48:04 GMT 49.132141 1.014686 35,000 263 504 0
2020-01-23 12:48:01 GMT 49.132999 1.024836 35,000 263 503 0
2020-01-23 12:47:57 GMT 49.134293 1.040321 35,000 263 504 0
2020-01-23 12:47:54 GMT 49.135422 1.053820 35,000 263 504 0
2020-01-23 12:47:48 GMT 49.136993 1.072435 35,000 263 505 0
2020-01-23 12:47:45 GMT 49.137608 1.080057 35,000 263 505 0
2020-01-23 12:47:42 GMT 49.139751 1.105427 35,000 263 505 0
2020-01-23 12:47:39 GMT 49.139751 1.105427 35,000 263 505 0
2020-01-23 12:47:36 GMT 49.140381 1.113281 35,000 263 504 0
2020-01-23 12:47:33 GMT 49.141289 1.124003 35,000 263 504 0
2020-01-23 12:47:30 GMT 49.142685 1.140916 35,000 263 503 0
2020-01-23 12:47:26 GMT 49.143311 1.148564 35,000 263 503 0
2020-01-23 12:47:23 GMT 49.144226 1.159832 35,000 263 503 0
2020-01-23 12:47:20 GMT 49.145142 1.170819 35,000 263 503 0
2020-01-23 12:47:16 GMT 49.147385 1.197791 35,000 263 503 0
2020-01-23 12:47:10 GMT 49.147991 1.205388 35,000 263 503 0
2020-01-23 12:47:06 GMT 49.149433 1.222590 35,000 263 502 0
2020-01-23 12:47:03 GMT 49.150272 1.232709 35,000 263 503 0
2020-01-23 12:46:59 GMT 49.151062 1.242539 35,000 263 502 0
2020-01-23 12:46:56 GMT 49.152180 1.256344 35,000 263 502 0
2020-01-23 12:46:53 GMT 49.153996 1.278534 35,000 263 502 0
2020-01-23 12:46:50 GMT 49.153996 1.278534 35,000 263 502 0
2020-01-23 12:46:46 GMT 49.154892 1.289274 35,000 263 502 0
2020-01-23 12:46:43 GMT 49.155857 1.301085 35,000 263 502 0
2020-01-23 12:46:37 GMT 49.157776 1.324416 35,000 263 502 0
2020-01-23 12:46:32 GMT 49.159470 1.345191 35,000 263 502 0
2020-01-23 12:46:29 GMT 49.159817 1.349945 35,000 263 502 0
2020-01-23 12:46:26 GMT 49.160515 1.358402 35,000 264 501 0
2020-01-23 12:46:23 GMT 49.161724 1.373002 35,000 264 501 0
2020-01-23 12:46:18 GMT 49.162811 1.386742 35,000 264 501 0
2020-01-23 12:46:15 GMT 49.163635 1.397095 35,000 264 501 0
2020-01-23 12:46:12 GMT 49.164597 1.408574 35,000 264 501 0
2020-01-23 12:46:09 GMT 49.165787 1.423715 35,000 264 501 0
2020-01-23 12:46:03 GMT 49.168259 1.454562 35,000 264 501 0
2020-01-23 12:46:00 GMT 49.168259 1.454562 35,000 264 501 0
2020-01-23 12:45:57 GMT 49.168854 1.462168 35,000 264 501 0
2020-01-23 12:45:54 GMT 49.169678 1.471957 35,000 264 501 0
2020-01-23 12:45:51 GMT 49.170364 1.480971 35,000 264 500 0
2020-01-23 12:45:48 GMT 49.171406 1.493852 35,000 264 500 0
2020-01-23 12:45:45 GMT 49.172470 1.507310 35,000 264 500 0
2020-01-23 12:45:41 GMT 49.173706 1.522381 35,000 264 500 0
2020-01-23 12:45:36 GMT 49.174576 1.533931 35,000 264 500 0
2020-01-23 12:45:33 GMT 49.175583 1.546255 35,000 264 500 0
2020-01-23 12:45:30 GMT 49.176361 1.556326 35,000 264 500 0
2020-01-23 12:45:26 GMT 49.177410 1.569238 35,000 264 500 0
2020-01-23 12:45:22 GMT 49.178558 1.583792 35,000 264 500 0
2020-01-23 12:45:19 GMT 49.179367 1.594102 35,000 264 500 0
2020-01-23 12:45:16 GMT 49.180573 1.609286 35,000 264 500 0
2020-01-23 12:45:13 GMT 49.180984 1.614568 35,000 264 500 0
2020-01-23 12:45:09 GMT 49.182018 1.628000 35,000 264 500 0
2020-01-23 12:45:06 GMT 49.183090 1.641444 35,000 264 500 0
2020-01-23 12:45:03 GMT 49.183929 1.651852 35,000 264 500 0
2020-01-23 12:45:00 GMT 49.185001 1.665802 35,000 264 500 0
2020-01-23 12:44:56 GMT 49.185883 1.676716 35,000 264 500 0
2020-01-23 12:44:52 GMT 49.187027 1.691542 35,000 264 499 0
2020-01-23 12:44:45 GMT 49.188812 1.714219 35,000 264 499 0
2020-01-23 12:44:42 GMT 49.189499 1.723445 35,000 264 499 0
2020-01-23 12:44:39 GMT 49.190262 1.733238 35,000 264 499 0
2020-01-23 12:44:36 GMT 49.191193 1.745277 35,000 264 499 0
2020-01-23 12:44:33 GMT 49.191879 1.753657 35,000 264 499 0
2020-01-23 12:44:30 GMT 49.193024 1.768799 35,000 264 499 0
2020-01-23 12:44:26 GMT 49.194775 1.791422 35,000 264 499 0
2020-01-23 12:44:23 GMT 49.194775 1.791422 35,000 264 499 0
2020-01-23 12:44:20 GMT 49.195614 1.802047 35,000 264 499 0
2020-01-23 12:44:17 GMT 49.196636 1.815780 35,000 264 499 0
2020-01-23 12:44:14 GMT 49.197464 1.826125 35,000 264 499 -64
2020-01-23 12:44:10 GMT 49.198315 1.837030 35,000 264 499 0
2020-01-23 12:44:07 GMT 49.199104 1.847655 35,000 264 499 0
2020-01-23 12:44:04 GMT 49.200027 1.859647 35,000 264 499 0
2020-01-23 12:44:01 GMT 49.201813 1.882888 35,000 264 499 0
2020-01-23 12:43:58 GMT 49.201813 1.882888 35,000 264 499 0
2020-01-23 12:43:53 GMT 49.202690 1.894563 35,000 264 499 64
2020-01-23 12:43:50 GMT 49.203621 1.906851 35,000 264 499 0
2020-01-23 12:43:47 GMT 49.204643 1.920295 35,000 264 498 -64
2020-01-23 12:43:44 GMT 49.205158 1.927016 35,000 264 498 0
2020-01-23 12:43:41 GMT 49.205978 1.937608 35,000 264 499 -64
2020-01-23 12:43:38 GMT 49.206665 1.946834 35,000 264 498 0
2020-01-23 12:43:35 GMT 49.207809 1.961905 35,000 264 498 64
2020-01-23 12:43:31 GMT 49.208927 1.976744 35,000 264 498 0
2020-01-23 12:43:28 GMT 49.210785 2.000709 35,000 264 498 0
2020-01-23 12:43:23 GMT 49.210785 2.000709 35,000 264 498 0
2020-01-23 12:43:19 GMT 49.212067 2.018315 35,000 264 498 0
2020-01-23 12:43:15 GMT 49.213116 2.032254 35,000 264 498 0
2020-01-23 12:43:09 GMT 49.215134 2.058810 35,000 264 497 0
2020-01-23 12:43:06 GMT 49.215134 2.058810 35,000 264 498 0
2020-01-23 12:43:03 GMT 49.215866 2.069092 35,000 264 498 0
2020-01-23 12:43:00 GMT 49.216934 2.083066 35,000 264 498 0
2020-01-23 12:42:57 GMT 49.217606 2.091980 35,000 264 497 0
2020-01-23 12:42:53 GMT 49.218426 2.103376 35,000 264 497 -64
2020-01-23 12:42:50 GMT 49.219528 2.117615 35,000 264 497 0
2020-01-23 12:42:47 GMT 49.220192 2.126577 35,000 264 497 0
2020-01-23 12:42:42 GMT 49.221638 2.146092 35,000 264 497 0
2020-01-23 12:42:37 GMT 49.222687 2.160574 35,000 264 498 0
2020-01-23 12:42:33 GMT 49.224010 2.178401 35,000 264 498 0
2020-01-23 12:42:30 GMT 49.224567 2.185701 35,000 264 498 0
2020-01-23 12:42:27 GMT 49.226120 2.206843 35,000 264 498 0
2020-01-23 12:42:24 GMT 49.226120 2.206843 35,000 264 498 0
2020-01-23 12:42:21 GMT 49.226990 2.218877 35,000 264 498 0
2020-01-23 12:42:18 GMT 49.227631 2.227830 35,000 264 498 0
2020-01-23 12:42:15 GMT 49.228386 2.237886 35,000 264 498 0
2020-01-23 12:42:12 GMT 49.230156 2.262461 35,000 264 498 0
2020-01-23 12:42:09 GMT 49.230156 2.262461 35,000 264 498 0
2020-01-23 12:42:06 GMT 49.230808 2.270773 35,000 264 499 0
2020-01-23 12:42:01 GMT 49.232666 2.296495 35,000 264 499 0
2020-01-23 12:41:58 GMT 49.232666 2.296495 35,000 264 499 0
2020-01-23 12:41:55 GMT 49.233505 2.308285 35,000 264 499 0
2020-01-23 12:41:52 GMT 49.234268 2.318890 35,000 264 499 0
2020-01-23 12:41:48 GMT 49.235325 2.333221 35,000 264 500 0
2020-01-23 12:41:45 GMT 49.236008 2.342694 35,000 264 500 0
2020-01-23 12:41:42 GMT 49.236694 2.351990 35,000 264 500 64
2020-01-23 12:41:39 GMT 49.237701 2.366004 35,000 264 500 -64
2020-01-23 12:41:35 GMT 49.238708 2.380301 35,000 264 501 64
2020-01-23 12:41:31 GMT 49.239372 2.389310 35,000 264 502 0
2020-01-23 12:41:28 GMT 49.240128 2.399949 35,000 264 502 0
2020-01-23 12:41:25 GMT 49.241932 2.424943 35,000 264 501 0
2020-01-23 12:41:22 GMT 49.241932 2.424943 35,000 264 502 0
2020-01-23 12:41:19 GMT 49.243237 2.442723 35,000 264 502 0
2020-01-23 12:41:16 GMT 49.244076 2.454794 35,000 264 502 0
2020-01-23 12:41:13 GMT 49.244076 2.454794 35,000 264 502 0
2020-01-23 12:41:10 GMT 49.244961 2.466937 35,000 264 502 0
2020-01-23 12:41:07 GMT 49.245842 2.479296 35,000 264 502 0
2020-01-23 12:41:04 GMT 49.247131 2.497066 35,000 264 502 0
2020-01-23 12:41:01 GMT 49.247131 2.497066 35,000 264 502 0
2020-01-23 12:40:58 GMT 49.247772 2.505798 35,000 264 503 0
2020-01-23 12:40:55 GMT 49.248497 2.516231 35,000 264 502 0
2020-01-23 12:40:52 GMT 49.249382 2.528373 35,000 264 503 0
2020-01-23 12:40:49 GMT 49.250198 2.539884 35,000 264 503 0
2020-01-23 12:40:45 GMT 49.251057 2.551213 35,000 264 503 0
2020-01-23 12:40:42 GMT 49.252808 2.575449 35,000 264 503 0
2020-01-23 12:40:36 GMT 49.253677 2.587280 35,000 264 502 0
2020-01-23 12:40:32 GMT 49.254547 2.599393 35,000 264 502 0
2020-01-23 12:40:29 GMT 49.255295 2.609542 35,000 264 502 0
2020-01-23 12:40:26 GMT 49.256363 2.624504 35,000 264 502 0
2020-01-23 12:40:23 GMT 49.256969 2.632382 35,000 264 502 64
2020-01-23 12:40:17 GMT 49.258553 2.654933 35,000 264 502 0
2020-01-23 12:40:14 GMT 49.259205 2.664257 35,000 265 502 0
2020-01-23 12:40:11 GMT 49.259670 2.671268 35,000 265 502 0
2020-01-23 12:40:08 GMT 49.260414 2.682254 35,000 265 502 0
2020-01-23 12:40:04 GMT 49.261532 2.699456 35,000 265 502 0
2020-01-23 12:40:01 GMT 49.262321 2.713334 35,000 265 501 0
2020-01-23 12:39:58 GMT 49.262604 2.717815 35,000 266 501 0
2020-01-23 12:39:55 GMT 49.263206 2.729163 35,000 266 502 0
2020-01-23 12:39:51 GMT 49.263931 2.743554 35,000 266 502 0
2020-01-23 12:39:48 GMT 49.264465 2.754605 35,000 266 502 0
2020-01-23 12:39:45 GMT 49.265625 2.778907 35,000 265 501 64
2020-01-23 12:39:42 GMT 49.265625 2.778907 35,000 253 498 0
2020-01-23 12:39:39 GMT 49.265991 2.785950 35,000 266 501 -64
2020-01-23 12:39:36 GMT 49.266560 2.796382 35,000 265 501 64
2020-01-23 12:39:32 GMT 49.267864 2.813801 35,000 262 500 0
2020-01-23 12:39:29 GMT 49.268654 2.822185 35,000 261 500 0
2020-01-23 12:39:26 GMT 49.269516 2.829965 35,000 253 498 64
2020-01-23 12:39:23 GMT 49.271255 2.843276 35,000 257 499 0
2020-01-23 12:39:19 GMT 49.272842 2.853699 35,000 256 498 0
2020-01-23 12:39:16 GMT 49.274963 2.865953 35,000 256 498 0
2020-01-23 12:39:13 GMT 49.276840 2.875953 35,000 253 497 0
2020-01-23 12:39:10 GMT 49.278755 2.885357 35,000 253 498 64
2020-01-23 12:39:07 GMT 49.280960 2.895813 35,000 253 497 0
2020-01-23 12:39:00 GMT 49.286018 2.919906 35,000 253 497 0
2020-01-23 12:38:57 GMT 49.287735 2.928209 35,000 253 497 -64
2020-01-23 12:38:52 GMT 49.293373 2.955033 35,000 253 497 0
2020-01-23 12:38:46 GMT 49.295422 2.964935 35,000 253 498 0
2020-01-23 12:38:43 GMT 49.300461 2.989056 35,000 253 498 0
2020-01-23 12:38:40 GMT 49.300461 2.989056 35,000 253 498 0
2020-01-23 12:38:37 GMT 49.301891 2.995798 35,000 253 498 0
2020-01-23 12:38:33 GMT 49.305336 3.012422 35,000 253 498 64
2020-01-23 12:38:30 GMT 49.307571 3.023119 35,000 253 498 0
2020-01-23 12:38:27 GMT 49.312088 3.044586 35,000 253 498 0
2020-01-23 12:38:23 GMT 49.312088 3.044586 35,000 253 498 0
2020-01-23 12:38:19 GMT 49.314880 3.058073 35,000 253 499 0
2020-01-23 12:38:15 GMT 49.318001 3.073136 35,000 253 499 0
2020-01-23 12:38:12 GMT 49.322144 3.093013 35,000 253 499 0
2020-01-23 12:38:09 GMT 49.322144 3.093013 35,000 253 499 0
2020-01-23 12:38:05 GMT 49.326416 3.113497 35,000 253 499 0
2020-01-23 12:37:59 GMT 49.330521 3.133416 35,000 253 500 0
2020-01-23 12:37:56 GMT 49.333080 3.145559 35,000 253 500 0
2020-01-23 12:37:53 GMT 49.333080 3.145559 35,000 253 500 0
2020-01-23 12:37:50 GMT 49.334946 3.154739 35,000 253 500 0
2020-01-23 12:37:47 GMT 49.340881 3.183359 35,000 253 501 0
2020-01-23 12:37:42 GMT 49.340881 3.183359 35,000 253 501 64
2020-01-23 12:37:38 GMT 49.344254 3.199551 35,000 253 502 0
2020-01-23 12:37:29 GMT 49.349625 3.225544 35,000 253 502 0
2020-01-23 12:37:26 GMT 49.351658 3.235257 35,000 253 502 0
2020-01-23 12:37:21 GMT 49.355057 3.251809 35,000 253 502 0
2020-01-23 12:37:18 GMT 49.357101 3.261783 35,000 253 502 -64
2020-01-23 12:37:14 GMT 49.359989 3.275660 35,000 253 502 0
2020-01-23 12:37:10 GMT 49.362644 3.288671 35,000 253 503 0
2020-01-23 12:37:07 GMT 49.365017 3.300018 35,000 253 502 0
2020-01-23 12:37:04 GMT 49.367111 3.310354 35,000 253 502 0
2020-01-23 12:37:01 GMT 49.369301 3.320907 35,000 253 503 64
2020-01-23 12:36:58 GMT 49.371254 3.330448 35,000 253 503 0
2020-01-23 12:36:55 GMT 49.373398 3.340711 35,000 253 503 0
2020-01-23 12:36:52 GMT 49.375122 3.349140 35,000 253 503 0
2020-01-23 12:36:49 GMT 49.378006 3.363262 35,000 253 503 0
2020-01-23 12:36:46 GMT 49.380333 3.374682 35,000 253 503 0
2020-01-23 12:36:42 GMT 49.383080 3.387981 35,000 253 504 0
2020-01-23 12:36:38 GMT 49.386196 3.403232 35,000 253 504 0
2020-01-23 12:36:35 GMT 49.387573 3.410058 35,000 253 504 0
2020-01-23 12:36:29 GMT 49.393845 3.440763 35,000 253 503 0
2020-01-23 12:36:26 GMT 49.393845 3.440763 35,000 253 503 0
2020-01-23 12:36:23 GMT 49.395370 3.448117 35,000 253 503 0
2020-01-23 12:36:19 GMT 49.399292 3.467454 35,000 253 503 0
2020-01-23 12:36:16 GMT 49.400665 3.474285 35,000 253 503 0
2020-01-23 12:36:12 GMT 49.403595 3.488441 35,000 253 503 0
2020-01-23 12:36:08 GMT 49.405701 3.498793 35,000 253 503 0
2020-01-23 12:36:05 GMT 49.408405 3.512156 35,000 253 503 0
2020-01-23 12:36:01 GMT 49.410500 3.522491 35,000 253 503 0
2020-01-23 12:35:58 GMT 49.415760 3.548367 35,000 253 504 0
2020-01-23 12:35:55 GMT 49.415760 3.548367 35,000 253 503 0
2020-01-23 12:35:52 GMT 49.418106 3.559852 35,000 253 503 0
2020-01-23 12:35:48 GMT 49.420460 3.571569 35,000 253 503 0
2020-01-23 12:35:41 GMT 49.425072 3.594192 35,000 253 504 0
2020-01-23 12:35:37 GMT 49.428452 3.610816 35,000 253 504 0
2020-01-23 12:35:33 GMT 49.432434 3.630765 35,000 253 504 0
2020-01-23 12:35:30 GMT 49.432434 3.630765 35,000 253 504 0
2020-01-23 12:35:27 GMT 49.434380 3.640260 35,000 253 504 64
2020-01-23 12:35:24 GMT 49.436848 3.652583 35,000 253 504 0
2020-01-23 12:35:21 GMT 49.438198 3.659115 35,000 253 504 0
2020-01-23 12:35:18 GMT 49.440899 3.672477 35,000 253 504 0
2020-01-23 12:35:15 GMT 49.442642 3.681215 35,000 253 504 0
2020-01-23 12:35:12 GMT 49.445480 3.695165 35,000 253 504 0
2020-01-23 12:35:09 GMT 49.447632 3.705790 35,000 253 504 0
2020-01-23 12:35:06 GMT 49.449005 3.712584 35,000 253 504 64
2020-01-23 12:35:02 GMT 49.451233 3.723771 35,000 253 504 0
2020-01-23 12:34:59 GMT 49.454258 3.738840 35,000 253 504 0
2020-01-23 12:34:56 GMT 49.456421 3.749446 35,000 253 504 0
2020-01-23 12:34:52 GMT 49.458633 3.760442 35,000 253 504 0
2020-01-23 12:34:49 GMT 49.460587 3.770262 35,000 253 504 0
2020-01-23 12:34:46 GMT 49.463287 3.783602 35,000 253 504 0
2020-01-23 12:34:41 GMT 49.466873 3.801418 35,000 253 504 0
2020-01-23 12:34:38 GMT 49.469009 3.812039 35,000 253 504 0
2020-01-23 12:34:35 GMT 49.470154 3.817821 35,000 253 504 0
2020-01-23 12:34:32 GMT 49.472134 3.827622 35,000 253 504 0
2020-01-23 12:34:29 GMT 49.474415 3.839128 35,000 253 504 0
2020-01-23 12:34:26 GMT 49.476929 3.851673 35,000 253 504 0
2020-01-23 12:34:23 GMT 49.478302 3.858514 35,000 253 504 0
2020-01-23 12:34:20 GMT 49.480560 3.869711 35,000 253 505 0
2020-01-23 12:34:17 GMT 49.482376 3.878768 35,000 254 505 0
2020-01-23 12:34:13 GMT 49.484802 3.891112 35,000 253 505 0
2020-01-23 12:34:10 GMT 49.487495 3.904526 35,000 253 505 0
2020-01-23 12:34:07 GMT 49.489517 3.914602 35,000 253 505 0
2020-01-23 12:34:03 GMT 49.491638 3.925311 35,000 253 505 0
2020-01-23 12:34:00 GMT 49.496979 3.952115 35,000 253 505 0
2020-01-23 12:33:56 GMT 49.498760 3.960942 35,000 253 505 0
2020-01-23 12:33:53 GMT 49.501041 3.972448 35,000 253 505 0
2020-01-23 12:33:50 GMT 49.501041 3.972448 35,000 253 505 0
2020-01-23 12:33:47 GMT 49.503044 3.982544 35,000 254 504 0
2020-01-23 12:33:44 GMT 49.505882 3.996796 35,000 254 504 0
2020-01-23 12:33:41 GMT 49.507690 4.005890 35,000 254 504 0
2020-01-23 12:33:37 GMT 49.510494 4.020105 35,000 254 505 0
2020-01-23 12:33:34 GMT 49.513824 4.036897 35,000 254 504 0
2020-01-23 12:33:28 GMT 49.516205 4.048968 35,000 254 505 0
2020-01-23 12:33:25 GMT 49.518173 4.058798 35,000 254 505 0
2020-01-23 12:33:22 GMT 49.520500 4.070583 35,000 254 505 0
2020-01-23 12:33:18 GMT 49.522980 4.083228 35,000 254 505 0
2020-01-23 12:33:12 GMT 49.527100 4.104116 35,000 254 504 0
2020-01-23 12:33:09 GMT 49.528427 4.110694 35,000 254 503 0
2020-01-23 12:33:06 GMT 49.530487 4.121102 35,000 254 504 0
2020-01-23 12:33:03 GMT 49.532654 4.132047 35,000 254 504 0
2020-01-23 12:33:00 GMT 49.535725 4.147710 35,000 254 504 0
2020-01-23 12:32:56 GMT 49.540421 4.171552 35,000 254 504 0
2020-01-23 12:32:53 GMT 49.540421 4.171552 35,000 254 503 0
2020-01-23 12:32:50 GMT 49.541748 4.178346 35,000 254 502 0
2020-01-23 12:32:47 GMT 49.544010 4.189874 35,000 254 503 0
2020-01-23 12:32:44 GMT 49.546387 4.201899 35,000 254 502 0
2020-01-23 12:32:38 GMT 49.551643 4.228697 35,000 254 503 0
2020-01-23 12:32:35 GMT 49.551643 4.228697 35,000 254 503 -64
2020-01-23 12:32:32 GMT 49.553322 4.237234 35,000 254 502 0
2020-01-23 12:32:29 GMT 49.555984 4.250842 35,000 254 502 0
2020-01-23 12:32:24 GMT 49.560768 4.275463 35,000 254 502 0
2020-01-23 12:32:21 GMT 49.560768 4.275463 35,000 254 502 0
2020-01-23 12:32:18 GMT 49.563080 4.287198 35,000 254 502 0
2020-01-23 12:32:15 GMT 49.565048 4.297317 35,000 254 502 0
2020-01-23 12:32:11 GMT 49.568218 4.313396 35,000 254 502 0
2020-01-23 12:32:07 GMT 49.571056 4.328168 35,000 254 502 0
2020-01-23 12:32:04 GMT 49.575062 4.348656 35,000 254 502 0
2020-01-23 12:32:00 GMT 49.575062 4.348656 35,000 254 502 0
2020-01-23 12:31:57 GMT 49.576691 4.356821 35,000 254 502 0
2020-01-23 12:31:54 GMT 49.578735 4.367499 35,000 254 502 0
2020-01-23 12:31:51 GMT 49.581848 4.383328 35,000 254 503 0
2020-01-23 12:31:48 GMT 49.583858 4.393715 35,000 254 502 0
2020-01-23 12:31:45 GMT 49.587166 4.410640 35,000 254 502 0
2020-01-23 12:31:42 GMT 49.587166 4.410640 35,000 254 502 0
2020-01-23 12:31:39 GMT 49.589218 4.421057 35,000 254 503 0
2020-01-23 12:31:35 GMT 49.591736 4.434140 35,000 254 502 0
2020-01-23 12:31:32 GMT 49.595917 4.455476 35,000 254 502 0
2020-01-23 12:31:29 GMT 49.595917 4.455476 35,000 254 502 0
2020-01-23 12:31:26 GMT 49.598522 4.468912 35,000 254 502 0
2020-01-23 12:31:23 GMT 49.599827 4.475741 35,000 254 502 0
2020-01-23 12:31:20 GMT 49.601597 4.484797 35,000 254 502 0
2020-01-23 12:31:13 GMT 49.608624 4.521171 35,000 254 502 0
2020-01-23 12:31:09 GMT 49.608624 4.521171 35,000 254 502 0
2020-01-23 12:31:05 GMT 49.611931 4.538170 35,000 254 502 0
2020-01-23 12:30:57 GMT 49.616455 4.561711 35,000 254 502 0
2020-01-23 12:30:53 GMT 49.619293 4.576528 35,000 254 502 0
2020-01-23 12:30:50 GMT 49.621536 4.588310 35,000 254 502 0
2020-01-23 12:30:44 GMT 49.626022 4.611584 35,000 254 502 0
2020-01-23 12:30:41 GMT 49.627850 4.621236 35,000 254 501 0
2020-01-23 12:30:37 GMT 49.630318 4.634078 35,000 254 502 0
2020-01-23 12:30:32 GMT 49.633484 4.650542 35,000 254 502 0
2020-01-23 12:30:29 GMT 49.634880 4.657906 35,000 254 501 0
2020-01-23 12:30:25 GMT 49.638092 4.674608 35,000 254 501 0
2020-01-23 12:30:22 GMT 49.639954 4.684184 35,000 254 501 0
2020-01-23 12:30:19 GMT 49.641956 4.694651 35,000 254 501 0
2020-01-23 12:30:15 GMT 49.645168 4.711576 35,000 254 501 0
2020-01-23 12:30:12 GMT 49.647079 4.721447 35,000 254 501 0
2020-01-23 12:30:09 GMT 49.651566 4.744937 35,000 254 500 0
2020-01-23 12:30:04 GMT 49.651566 4.744937 35,000 254 498 0
2020-01-23 12:30:00 GMT 49.654312 4.759393 35,000 254 500 0
2020-01-23 12:29:57 GMT 49.656738 4.772259 35,000 254 500 0
2020-01-23 12:29:52 GMT 49.659576 4.787003 35,000 254 500 0
2020-01-23 12:29:48 GMT 49.661789 4.798724 35,000 254 500 0
2020-01-23 12:29:45 GMT 49.664070 4.810750 35,000 254 499 0
2020-01-23 12:29:42 GMT 49.665802 4.819746 35,000 254 499 0
2020-01-23 12:29:39 GMT 49.671066 4.847573 35,000 254 499 0
2020-01-23 12:29:34 GMT 49.671066 4.847573 35,000 254 499 0
2020-01-23 12:29:31 GMT 49.673145 4.858481 35,000 254 498 0
2020-01-23 12:29:28 GMT 49.677887 4.883278 35,000 254 498 0
2020-01-23 12:29:23 GMT 49.677887 4.883278 35,000 254 499 0
2020-01-23 12:29:20 GMT 49.680454 4.896636 35,000 254 498 64
2020-01-23 12:29:17 GMT 49.682465 4.906986 35,000 254 498 0
2020-01-23 12:29:11 GMT 49.685715 4.923805 35,000 254 498 0
2020-01-23 12:29:08 GMT 49.688049 4.935825 35,000 254 497 0
2020-01-23 12:29:05 GMT 49.689999 4.945852 35,000 254 498 0
2020-01-23 12:29:02 GMT 49.692558 4.959214 35,000 254 498 0
2020-01-23 12:28:59 GMT 49.694237 4.967676 35,000 254 498 0
2020-01-23 12:28:55 GMT 49.696793 4.980999 35,000 254 498 0
2020-01-23 12:28:50 GMT 49.699814 4.996466 35,000 254 498 0
2020-01-23 12:28:46 GMT 49.702988 5.012809 35,000 254 498 0
2020-01-23 12:28:41 GMT 49.705811 5.027474 35,000 254 498 0
2020-01-23 12:28:38 GMT 49.708061 5.039161 35,000 264 494 -64
2020-01-23 12:28:35 GMT 49.711670 5.058554 35,000 256 496 -64
2020-01-23 12:28:32 GMT 49.711670 5.058554 35,000 256 496 0
2020-01-23 12:28:29 GMT 49.713741 5.069745 35,000 256 496 0
2020-01-23 12:28:26 GMT 49.715561 5.079803 35,000 256 497 0
2020-01-23 12:28:23 GMT 49.717373 5.089936 35,000 255 497 0
2020-01-23 12:28:20 GMT 49.719131 5.100041 35,000 255 497 0
2020-01-23 12:28:16 GMT 49.721516 5.114062 35,000 256 496 -64
2020-01-23 12:28:13 GMT 49.723068 5.123387 35,000 256 497 0
2020-01-23 12:28:10 GMT 49.724762 5.133795 35,000 256 497 0
2020-01-23 12:28:06 GMT 49.727379 5.149693 35,000 256 496 0
2020-01-23 12:28:03 GMT 49.728962 5.159046 35,000 256 496 -64
2020-01-23 12:27:59 GMT 49.731216 5.172175 35,000 255 495 64
2020-01-23 12:27:56 GMT 49.733013 5.182281 35,000 244 493 -64
2020-01-23 12:27:53 GMT 49.734970 5.192269 35,000 253 495 0
2020-01-23 12:27:50 GMT 49.739391 5.212270 35,000 251 495 0
2020-01-23 12:27:47 GMT 49.742844 5.225951 35,000 245 494 -64
2020-01-23 12:27:43 GMT 49.742844 5.225951 35,000 248 495 0
2020-01-23 12:27:39 GMT 49.746140 5.237880 35,000 246 494 0
2020-01-23 12:27:36 GMT 49.749165 5.248124 35,000 247 493 128
2020-01-23 12:27:33 GMT 49.756851 5.272426 35,000 244 493 0
2020-01-23 12:27:29 GMT 49.756851 5.272426 35,000 244 493 -64
2020-01-23 12:27:25 GMT 49.760571 5.283682 35,000 244 493 -64
2020-01-23 12:27:21 GMT 49.763855 5.293748 35,000 244 492 -64
2020-01-23 12:27:18 GMT 49.767368 5.304541 35,025 244 493 -128
2020-01-23 12:27:15 GMT 49.771362 5.316877 35,025 246 493 128
2020-01-23 12:27:11 GMT 49.773838 5.325029 35,025 245 492 128
2020-01-23 12:27:08 GMT 49.777470 5.337574 35,000 247 493 128
2020-01-23 12:27:05 GMT 49.782356 5.357617 35,000 253 493 0
2020-01-23 12:27:02 GMT 49.782356 5.357617 35,000 254 493 64
2020-01-23 12:26:57 GMT 49.785385 5.373279 35,000 267 495 64
2020-01-23 12:26:54 GMT 49.787109 5.384240 35,000 263 495 0
2020-01-23 12:26:51 GMT 49.788712 5.396455 35,000 263 495 0
2020-01-23 12:26:47 GMT 49.790085 5.410405 35,000 262 495 0
2020-01-23 12:26:43 GMT 49.791016 5.424203 35,000 268 494 0
2020-01-23 12:26:39 GMT 49.791504 5.434908 35,000 268 495 64
2020-01-23 12:26:36 GMT 49.792042 5.450110 35,000 268 495 0
2020-01-23 12:26:33 GMT 49.792320 5.458572 35,000 268 495 0
2020-01-23 12:26:30 GMT 49.792648 5.470469 35,000 268 495 0
2020-01-23 12:26:26 GMT 49.793018 5.481510 35,000 268 495 0
2020-01-23 12:26:23 GMT 49.793625 5.501775 35,000 268 495 0
2020-01-23 12:26:16 GMT 49.794067 5.516221 35,000 268 494 64
2020-01-23 12:26:13 GMT 49.794415 5.527756 35,000 268 494 0
2020-01-23 12:26:10 GMT 49.794662 5.535953 38,025 268 494 0
2020-01-23 12:26:06 GMT 49.795120 5.549758 35,000 268 494 0
2020-01-23 12:26:03 GMT 49.795532 5.563852 35,000 268 494 64
2020-01-23 12:25:57 GMT 49.796276 5.588107 35,000 268 494 0
2020-01-23 12:25:54 GMT 49.796494 5.594860 35,000 268 493 0
2020-01-23 12:25:51 GMT 49.796787 5.605032 35,000 268 494 0
2020-01-23 12:25:46 GMT 49.797318 5.622759 35,000 268 494 0
2020-01-23 12:25:43 GMT 49.797581 5.632052 35,000 268 494 0
2020-01-23 12:25:40 GMT 49.798050 5.646684 35,000 268 494 0
2020-01-23 12:25:37 GMT 49.798279 5.655138 35,000 268 493 64
2020-01-23 12:25:34 GMT 49.798553 5.664175 35,000 268 493 0
2020-01-23 12:25:31 GMT 49.798920 5.676535 35,000 268 494 0
2020-01-23 12:25:28 GMT 49.799194 5.686437 35,000 268 493 0
2020-01-23 12:25:25 GMT 49.799606 5.700459 35,000 268 493 0
2020-01-23 12:25:22 GMT 49.799862 5.709773 35,000 268 493 0
2020-01-23 12:25:19 GMT 49.800110 5.717950 35,000 268 493 0
2020-01-23 12:25:16 GMT 49.800476 5.732044 35,000 268 493 0
2020-01-23 12:25:13 GMT 49.800701 5.739317 35,000 268 493 0
2020-01-23 12:25:10 GMT 49.801025 5.750007 35,000 268 493 0
2020-01-23 12:25:07 GMT 49.801300 5.760161 35,000 268 493 0
2020-01-23 12:25:04 GMT 49.801941 5.783507 35,000 268 493 0
2020-01-23 12:25:01 GMT 49.801941 5.783507 35,000 268 493 0
2020-01-23 12:24:58 GMT 49.802170 5.791963 35,000 268 492 0
2020-01-23 12:24:54 GMT 49.802654 5.809912 35,000 268 493 0
2020-01-23 12:24:50 GMT 49.802902 5.818923 35,000 268 493 0
2020-01-23 12:24:46 GMT 49.803268 5.831283 35,000 268 493 0
2020-01-23 12:24:43 GMT 49.803589 5.843642 35,000 268 492 0
2020-01-23 12:24:39 GMT 49.804283 5.868407 35,000 268 493 0
2020-01-23 12:24:33 GMT 49.804596 5.879637 35,000 268 493 0
2020-01-23 12:24:30 GMT 49.804871 5.890334 35,000 268 493 0
2020-01-23 12:24:26 GMT 49.805355 5.906933 35,000 268 492 0
2020-01-23 12:24:22 GMT 49.805603 5.915632 35,000 268 492 0
2020-01-23 12:24:19 GMT 49.805923 5.927991 35,000 268 492 0
2020-01-23 12:24:16 GMT 49.806240 5.938407 35,000 268 492 0
2020-01-23 12:24:13 GMT 49.806564 5.950210 35,000 268 492 0
2020-01-23 12:24:10 GMT 49.806843 5.959712 35,000 268 492 0
2020-01-23 12:24:07 GMT 49.807262 5.974039 35,000 268 490 0
2020-01-23 12:24:04 GMT 49.807526 5.983284 35,000 268 492 0
2020-01-23 12:24:01 GMT 49.808193 6.005736 35,000 268 491 0
2020-01-23 12:23:58 GMT 49.808193 6.005736 35,000 268 491 0
2020-01-23 12:23:54 GMT 49.808521 6.017835 35,000 268 491 0
2020-01-23 12:23:51 GMT 49.809128 6.037710 35,000 268 491 0
2020-01-23 12:23:48 GMT 49.809128 6.037710 35,000 268 491 0
2020-01-23 12:23:45 GMT 49.809723 6.057587 35,000 268 491 0
2020-01-23 12:23:42 GMT 49.809723 6.057587 35,000 268 491 0
2020-01-23 12:23:39 GMT 49.810009 6.068239 35,000 268 491 0
2020-01-23 12:23:36 GMT 49.810318 6.078620 35,000 268 491 0
2020-01-23 12:23:33 GMT 49.811050 6.102110 35,000 268 492 1024
2020-01-23 12:23:26 GMT 49.811501 6.117009 35,000 268 491 0
2020-01-23 12:23:23 GMT 49.811829 6.127914 35,000 268 490 0
2020-01-23 12:23:20 GMT 49.812103 6.137720 35,000 268 490 0
2020-01-23 12:23:17 GMT 49.812332 6.144393 35,000 268 490 0
2020-01-23 12:23:13 GMT 49.812801 6.159247 35,000 268 490 0
2020-01-23 12:23:10 GMT 49.813221 6.172683 35,000 268 491 64
2020-01-23 12:23:07 GMT 49.813408 6.179364 34,575 268 492 960
2020-01-23 12:23:03 GMT 49.813889 6.195060 35,000 268 492 960
2020-01-23 12:23:00 GMT 49.814209 6.204312 34,975 268 491 256
2020-01-23 12:22:57 GMT 49.814526 6.214699 34,975 268 491 320
2020-01-23 12:22:53 GMT 49.815033 6.230405 34,900 268 491 960
2020-01-23 12:22:50 GMT 49.815308 6.239656 34,925 268 491 896
2020-01-23 12:22:47 GMT 49.815582 6.248330 34,825 268 491 960
2020-01-23 12:22:44 GMT 49.815994 6.261484 34,800 268 491 960
2020-01-23 12:22:41 GMT 49.816223 6.269869 34,625 268 492 960
2020-01-23 12:22:38 GMT 49.816898 6.291751 34,700 268 492 1024
2020-01-23 12:22:32 GMT 49.817230 6.303044 34,475 268 492 1024
2020-01-23 12:22:29 GMT 49.817780 6.322126 34,450 268 492 1024
2020-01-23 12:22:26 GMT 49.818295 6.338369 34,400 268 492 1024
2020-01-23 12:22:23 GMT 49.818295 6.338369 34,450 268 492 1024
2020-01-23 12:22:20 GMT 49.818481 6.345718 34,400 268 492 960
2020-01-23 12:22:17 GMT 49.818878 6.358627 34,275 268 492 960
2020-01-23 12:22:13 GMT 49.819275 6.372070 34,275 268 492 960
2020-01-23 12:22:10 GMT 49.819565 6.380744 34,250 268 491 640
2020-01-23 12:22:06 GMT 49.819931 6.393682 34,150 268 491 960
2020-01-23 12:22:03 GMT 49.820576 6.415273 34,125 268 491 832
2020-01-23 12:22:00 GMT 49.820576 6.415273 34,100 268 491 896
2020-01-23 12:21:57 GMT 49.820858 6.425666 34,050 268 491 0
2020-01-23 12:21:54 GMT 49.821648 6.453429 34,000 268 491 0
2020-01-23 12:21:50 GMT 49.821648 6.453429 34,000 268 490 64
2020-01-23 12:21:47 GMT 49.821899 6.461551 34,000 268 491 64
2020-01-23 12:21:42 GMT 49.822487 6.482305 34,000 268 491 0
2020-01-23 12:21:39 GMT 49.822723 6.489306 34,000 268 491 0
2020-01-23 12:21:36 GMT 49.822952 6.498562 34,000 268 491 64
2020-01-23 12:21:33 GMT 49.823318 6.511206 34,000 268 491 0
2020-01-23 12:21:30 GMT 49.824020 6.535900 34,000 268 491 0
2020-01-23 12:21:27 GMT 49.824020 6.535900 34,000 268 490 0
2020-01-23 12:21:24 GMT 49.824257 6.543992 34,000 268 491 0
2020-01-23 12:21:21 GMT 49.824535 6.553493 34,000 268 491 0
2020-01-23 12:21:18 GMT 49.824829 6.564476 34,000 268 491 0
2020-01-23 12:21:15 GMT 49.825424 6.584352 34,000 268 491 0
2020-01-23 12:21:12 GMT 49.825424 6.584352 34,000 268 491 0
2020-01-23 12:21:09 GMT 49.825699 6.594766 34,000 268 491 0
2020-01-23 12:21:06 GMT 49.826443 6.619708 34,000 267 490 0
2020-01-23 12:21:02 GMT 49.826443 6.619708 34,000 268 491 0
2020-01-23 12:20:59 GMT 49.827003 6.639602 34,000 268 491 0
2020-01-23 12:20:56 GMT 49.827328 6.650514 34,000 268 490 -64
2020-01-23 12:20:53 GMT 49.827328 6.650514 34,000 268 490 -64
2020-01-23 12:20:50 GMT 49.827621 6.660317 34,000 268 490 -64
2020-01-23 12:20:47 GMT 49.827988 6.674050 34,000 268 490 -64
2020-01-23 12:20:44 GMT 49.828217 6.680772 34,000 268 490 -64
2020-01-23 12:20:40 GMT 49.828720 6.699492 34,000 268 490 64
2020-01-23 12:20:37 GMT 49.828911 6.705372 34,000 268 490 64
2020-01-23 12:20:34 GMT 49.829269 6.719079 34,000 268 490 0
2020-01-23 12:20:30 GMT 49.829563 6.730314 34,000 268 490 -64
2020-01-23 12:20:27 GMT 49.829910 6.742642 34,000 268 490 0
2020-01-23 12:20:24 GMT 49.830139 6.751026 34,000 268 490 -64
2020-01-23 12:20:21 GMT 49.830414 6.760567 34,000 268 490 -64
2020-01-23 12:20:18 GMT 49.830864 6.774482 34,000 267 490 0
2020-01-23 12:20:14 GMT 49.831375 6.787918 34,000 267 489 0
2020-01-23 12:20:10 GMT 49.832123 6.803878 34,000 266 490 0
2020-01-23 12:20:07 GMT 49.832611 6.812752 34,000 265 490 0
2020-01-23 12:20:01 GMT 49.833797 6.831418 34,000 263 489 0
2020-01-23 12:19:58 GMT 49.834728 6.843889 34,000 263 489 -64
2020-01-23 12:19:55 GMT 49.835709 6.855840 34,000 263 489 -64
2020-01-23 12:19:51 GMT 49.836918 6.869721 34,000 263 489 -64
2020-01-23 12:19:45 GMT 49.838837 6.890741 34,000 263 489 0
2020-01-23 12:19:41 GMT 49.840027 6.904040 34,000 263 489 0
2020-01-23 12:19:38 GMT 49.840641 6.910994 34,000 263 489 0
2020-01-23 12:19:35 GMT 49.842690 6.933932 34,000 263 489 64
2020-01-23 12:19:32 GMT 49.842690 6.933932 34,000 263 489 0
2020-01-23 12:19:29 GMT 49.843781 6.945817 34,000 263 489 0
2020-01-23 12:19:26 GMT 49.844696 6.956370 34,000 263 488 0
2020-01-23 12:19:23 GMT 49.845299 6.962734 34,000 263 488 0
2020-01-23 12:19:20 GMT 49.846161 6.972704 34,000 263 488 0
2020-01-23 12:19:17 GMT 49.847576 6.988492 34,000 263 488 0
2020-01-23 12:19:14 GMT 49.848183 6.995099 34,000 263 488 0
2020-01-23 12:19:11 GMT 49.849228 7.006675 34,000 263 488 0
2020-01-23 12:19:07 GMT 49.850418 7.020264 34,000 263 488 0
2020-01-23 12:19:03 GMT 49.851425 7.031611 34,000 263 487 0
2020-01-23 12:19:00 GMT 49.852478 7.043465 34,000 263 488 0
2020-01-23 12:18:56 GMT 49.853851 7.059005 34,000 263 488 0
2020-01-23 12:18:53 GMT 49.854607 7.067252 34,000 263 487 0
2020-01-23 12:18:47 GMT 49.856689 7.090735 34,000 263 485 0
2020-01-23 12:18:43 GMT 49.857513 7.100131 34,000 263 488 0
2020-01-23 12:18:40 GMT 49.858612 7.112608 34,000 263 488 0
2020-01-23 12:18:37 GMT 49.859482 7.122538 34,000 263 487 0
2020-01-23 12:18:33 GMT 49.860718 7.136632 34,000 263 487 0
2020-01-23 12:18:29 GMT 49.862244 7.153733 34,000 263 487 0
2020-01-23 12:18:25 GMT 49.863220 7.164793 34,000 263 487 0
2020-01-23 12:18:22 GMT 49.863876 7.172554 34,000 263 487 0
2020-01-23 12:18:19 GMT 49.864895 7.184168 34,000 263 487 0
2020-01-23 12:18:16 GMT 49.866711 7.205101 34,000 263 487 0
2020-01-23 12:18:13 GMT 49.867970 7.219502 34,000 263 487 0
2020-01-23 12:18:10 GMT 49.867970 7.219502 34,000 263 487 0
2020-01-23 12:18:05 GMT 49.869316 7.235165 34,000 263 487 0
2020-01-23 12:18:02 GMT 49.870102 7.243749 34,000 263 487 0
2020-01-23 12:17:58 GMT 49.871063 7.254807 34,000 263 487 0
2020-01-23 12:17:55 GMT 49.872204 7.268273 34,000 263 485 0
2020-01-23 12:17:52 GMT 49.872849 7.275768 34,000 263 487 0
2020-01-23 12:17:49 GMT 49.873974 7.288686 34,000 263 486 0
2020-01-23 12:17:46 GMT 49.874863 7.298897 34,000 263 486 0
2020-01-23 12:17:42 GMT 49.877151 7.325423 34,000 263 486 0
2020-01-23 12:17:38 GMT 49.877151 7.325423 34,000 263 486 0
2020-01-23 12:17:35 GMT 49.878304 7.338644 34,000 263 486 0
2020-01-23 12:17:32 GMT 49.879002 7.346884 34,000 263 486 0
2020-01-23 12:17:29 GMT 49.879978 7.357945 34,000 263 485 0
2020-01-23 12:17:26 GMT 49.881001 7.370045 34,000 263 483 0
2020-01-23 12:17:21 GMT 49.882233 7.384114 34,000 263 486 0
2020-01-23 12:17:18 GMT 49.883049 7.393725 34,000 263 485 0
2020-01-23 12:17:14 GMT 49.884121 7.406418 34,000 263 485 0
2020-01-23 12:17:11 GMT 49.885437 7.421771 34,000 263 482 0
2020-01-23 12:17:07 GMT 49.886448 7.433661 34,000 263 485 0
2020-01-23 12:17:04 GMT 49.887287 7.443237 34,000 263 485 0
2020-01-23 12:17:01 GMT 49.888218 7.454521 34,000 263 484 0
2020-01-23 12:16:58 GMT 49.888962 7.463042 34,000 263 481 0
2020-01-23 12:16:55 GMT 49.890175 7.477607 34,000 263 480 0
2020-01-23 12:16:52 GMT 49.890778 7.484436 34,000 263 484 0
2020-01-23 12:16:48 GMT 49.891891 7.497880 34,000 263 484 0
2020-01-23 12:16:45 GMT 49.892967 7.510491 34,000 263 483 0
2020-01-23 12:16:42 GMT 49.893570 7.517915 34,000 263 483 0
2020-01-23 12:16:39 GMT 49.895432 7.539516 34,000 263 483 0
2020-01-23 12:16:33 GMT 49.896286 7.549631 34,000 263 483 0
2020-01-23 12:16:30 GMT 49.896973 7.558160 34,000 263 482 0
2020-01-23 12:16:27 GMT 49.898758 7.579193 34,000 263 482 0
2020-01-23 12:16:24 GMT 49.899948 7.593409 34,000 263 482 0
2020-01-23 12:16:20 GMT 49.899948 7.593409 34,000 263 482 0
2020-01-23 12:16:17 GMT 49.900787 7.603801 34,000 263 482 0
2020-01-23 12:16:14 GMT 49.902786 7.627620 34,000 263 482 0
2020-01-23 12:16:10 GMT 49.902786 7.627620 34,000 263 482 0
2020-01-23 12:16:07 GMT 49.903976 7.641569 34,000 263 482 0
2020-01-23 12:16:04 GMT 49.904572 7.649231 34,000 263 481 0
2020-01-23 12:15:59 GMT 49.906174 7.668168 34,000 263 482 0
2020-01-23 12:15:56 GMT 49.907070 7.678775 34,000 263 482 0
2020-01-23 12:15:53 GMT 49.907593 7.685370 34,000 263 481 0
2020-01-23 12:15:50 GMT 49.908653 7.697927 34,000 263 481 0
2020-01-23 12:15:47 GMT 49.910378 7.718712 34,000 263 481 0
2020-01-23 12:15:44 GMT 49.910378 7.718712 34,000 263 481 0
2020-01-23 12:15:41 GMT 49.911217 7.729105 34,000 263 480 -64
2020-01-23 12:15:37 GMT 49.912216 7.741169 34,000 263 481 0
2020-01-23 12:15:34 GMT 49.913029 7.750706 34,000 263 481 0
2020-01-23 12:15:31 GMT 49.914753 7.771788 34,000 263 481 0
2020-01-23 12:15:25 GMT 49.915871 7.785150 34,000 263 481 0
2020-01-23 12:15:21 GMT 49.916801 7.796359 34,000 263 481 0
2020-01-23 12:15:18 GMT 49.917686 7.807568 34,000 263 481 0
2020-01-23 12:15:15 GMT 49.918533 7.817929 34,000 263 481 0
2020-01-23 12:15:11 GMT 49.919449 7.828626 34,000 263 480 0
2020-01-23 12:15:08 GMT 49.920364 7.840046 34,000 263 480 0
2020-01-23 12:15:05 GMT 49.922012 7.859995 34,000 263 480 0
2020-01-23 12:14:59 GMT 49.922714 7.869032 34,000 263 480 0
2020-01-23 12:14:56 GMT 49.923706 7.880811 34,000 263 481 0
2020-01-23 12:14:53 GMT 49.924347 7.888979 34,000 263 481 0
2020-01-23 12:14:50 GMT 49.925461 7.902659 34,000 263 481 0
2020-01-23 12:14:47 GMT 49.926159 7.911418 34,000 263 480 0
2020-01-23 12:14:44 GMT 49.927139 7.923961 34,000 263 480 0
2020-01-23 12:14:40 GMT 49.928192 7.936827 34,000 263 480 0
2020-01-23 12:14:37 GMT 49.929092 7.948015 34,000 263 480 0
2020-01-23 12:14:34 GMT 49.929703 7.955909 34,000 263 480 0
2020-01-23 12:14:31 GMT 49.930527 7.966028 34,000 263 480 0
2020-01-23 12:14:28 GMT 49.931557 7.979118 34,000 263 480 0
2020-01-23 12:14:25 GMT 49.932907 7.996043 34,000 263 480 -64
2020-01-23 12:14:22 GMT 49.932907 7.996043 34,000 263 480 64
2020-01-23 12:14:19 GMT 49.933979 8.009479 34,000 263 480 64
2020-01-23 12:14:16 GMT 49.934631 8.017644 34,000 263 480 0
2020-01-23 12:14:13 GMT 49.935375 8.026923 34,000 263 480 0
2020-01-23 12:14:10 GMT 49.936295 8.038667 34,000 263 480 0
2020-01-23 12:14:07 GMT 49.937099 8.048525 34,000 263 480 0
2020-01-23 12:14:04 GMT 49.937843 8.057507 34,000 263 480 0
2020-01-23 12:14:01 GMT 49.938629 8.067362 34,000 263 480 0
2020-01-23 12:13:58 GMT 49.939636 8.080155 34,000 263 480 0
2020-01-23 12:13:55 GMT 49.940231 8.087022 34,000 263 480 0
2020-01-23 12:13:52 GMT 49.941288 8.100338 34,000 263 480 -64
2020-01-23 12:13:49 GMT 49.941879 8.107476 34,000 263 480 0
2020-01-23 12:13:46 GMT 49.943069 8.122221 34,000 263 480 0
2020-01-23 12:13:43 GMT 49.943756 8.130922 34,000 264 480 0
2020-01-23 12:13:40 GMT 49.944489 8.139640 34,000 263 480 0
2020-01-23 12:13:37 GMT 49.945522 8.152449 34,000 263 480 0
2020-01-23 12:13:33 GMT 49.946640 8.166405 34,000 263 480 0
2020-01-23 12:13:29 GMT 49.947617 8.178653 34,000 263 479 0
2020-01-23 12:13:25 GMT 49.948967 8.195875 34,000 263 479 0
2020-01-23 12:13:22 GMT 49.949707 8.205125 34,000 263 479 0
2020-01-23 12:13:19 GMT 49.950413 8.213839 34,000 263 478 0
2020-01-23 12:13:16 GMT 49.950943 8.220665 34,000 264 480 0
2020-01-23 12:13:13 GMT 49.951900 8.232694 34,000 264 480 0
2020-01-23 12:13:10 GMT 49.952644 8.242493 34,000 264 480 0
2020-01-23 12:13:07 GMT 49.953598 8.254491 34,000 264 480 0
2020-01-23 12:13:04 GMT 49.954514 8.266272 34,000 264 480 0
2020-01-23 12:13:01 GMT 49.955063 8.273572 34,000 264 480 0
2020-01-23 12:12:58 GMT 49.955704 8.281812 34,000 264 480 0
2020-01-23 12:12:55 GMT 49.956650 8.294381 34,000 264 480 0
2020-01-23 12:12:52 GMT 49.957443 8.305014 34,000 264 480 0
2020-01-23 12:12:49 GMT 49.958138 8.313978 34,000 264 479 0
2020-01-23 12:12:46 GMT 49.959164 8.327637 34,000 264 479 0
2020-01-23 12:12:42 GMT 49.960049 8.339885 34,000 264 479 0
2020-01-23 12:12:39 GMT 49.960793 8.350277 34,000 264 479 0
2020-01-23 12:12:36 GMT 49.962250 8.370209 34,000 264 479 0
2020-01-23 12:12:33 GMT 49.963348 8.385170 34,000 264 479 0
2020-01-23 12:12:29 GMT 49.963348 8.385170 34,000 264 479 0
2020-01-23 12:12:26 GMT 49.963989 8.394205 34,000 264 479 0
2020-01-23 12:12:23 GMT 49.964703 8.403428 34,000 264 479 0
2020-01-23 12:12:20 GMT 49.965542 8.414859 34,000 264 478 0
2020-01-23 12:12:17 GMT 49.966892 8.433417 34,000 264 478 0
2020-01-23 12:12:14 GMT 49.966892 8.433417 34,000 264 478 0
2020-01-23 12:12:11 GMT 49.967926 8.446752 34,000 264 478 0
2020-01-23 12:12:08 GMT 49.968567 8.454870 34,000 263 477 0
2020-01-23 12:12:05 GMT 49.970428 8.476843 34,000 262 476 0
2020-01-23 12:11:59 GMT 49.971130 8.485276 34,000 263 477 0
2020-01-23 12:11:55 GMT 49.972385 8.499113 34,000 262 476 0
2020-01-23 12:11:52 GMT 49.973221 8.508243 34,000 262 476 0
2020-01-23 12:11:49 GMT 49.975643 8.533630 34,000 262 476 0
2020-01-23 12:11:45 GMT 49.975643 8.533630 34,025 263 475 64
2020-01-23 12:11:41 GMT 49.976898 8.547438 34,025 263 475 0
2020-01-23 12:11:38 GMT 49.977646 8.556865 34,025 264 475 128
2020-01-23 12:11:35 GMT 49.978390 8.567480 34,000 267 476 0
2020-01-23 12:11:32 GMT 49.978764 8.575646 34,000 269 476 0
2020-01-23 12:11:29 GMT 49.978996 8.588933 34,000 270 476 64
2020-01-23 12:11:23 GMT 49.978111 8.616696 34,000 282 475 0
2020-01-23 12:11:17 GMT 49.977264 8.627303 34,000 279 475 -64
2020-01-23 12:11:14 GMT 49.975967 8.639931 34,000 281 476 0
2020-01-23 12:11:11 GMT 49.975410 8.645053 34,000 282 476 0
2020-01-23 12:11:08 GMT 49.973969 8.656262 34,000 282 475 0
2020-01-23 12:11:05 GMT 49.972523 8.667471 34,000 282 475 0
2020-01-23 12:11:02 GMT 49.969849 8.687800 34,000 282 475 0
2020-01-23 12:10:59 GMT 49.968567 8.697630 34,000 282 475 0
2020-01-23 12:10:56 GMT 49.968567 8.697630 34,000 282 475 0
2020-01-23 12:10:53 GMT 49.967125 8.708595 34,000 282 475 0
2020-01-23 12:10:50 GMT 49.966003 8.716856 34,000 282 475 192
2020-01-23 12:10:47 GMT 49.964767 8.726469 34,000 282 475 0
2020-01-23 12:10:44 GMT 49.963074 8.739030 33,975 282 476 192
2020-01-23 12:10:41 GMT 49.961723 8.749497 33,975 282 476 256
2020-01-23 12:10:38 GMT 49.960651 8.757514 33,975 282 476 896
2020-01-23 12:10:35 GMT 49.959366 8.767090 33,950 282 476 704
2020-01-23 12:10:32 GMT 49.957809 8.778871 33,950 282 476 640
2020-01-23 12:10:29 GMT 49.956974 8.785277 33,675 282 477 960
2020-01-23 12:10:26 GMT 49.955292 8.797880 33,825 282 476 960
2020-01-23 12:10:23 GMT 49.954010 8.807783 33,750 282 477 960
2020-01-23 12:10:20 GMT 49.952740 8.817419 33,750 282 477 960
2020-01-23 12:10:16 GMT 49.950943 8.831056 33,675 282 477 960
2020-01-23 12:10:13 GMT 49.949295 8.843400 33,625 282 477 960
2020-01-23 12:10:10 GMT 49.948380 8.850138 33,600 282 477 960
2020-01-23 12:10:07 GMT 49.947098 8.859751 33,550 282 477 960
2020-01-23 12:10:04 GMT 49.945618 8.871237 33,500 282 477 960
2020-01-23 12:10:01 GMT 49.944260 8.881218 33,200 282 477 1024
2020-01-23 12:09:58 GMT 49.942593 8.893804 33,375 282 477 960
2020-01-23 12:09:55 GMT 49.941471 8.902340 33,350 282 477 960
2020-01-23 12:09:52 GMT 49.940323 8.910924 33,200 282 477 1024
2020-01-23 12:09:49 GMT 49.938496 8.924610 33,225 282 477 1024
2020-01-23 12:09:46 GMT 49.937576 8.931596 33,175 282 477 1024
2020-01-23 12:09:43 GMT 49.936295 8.940992 33,125 282 477 1024
2020-01-23 12:09:40 GMT 49.934956 8.951185 33,100 282 478 1088
2020-01-23 12:09:37 GMT 49.933640 8.961085 33,025 282 478 1152
2020-01-23 12:09:34 GMT 49.932266 8.971277 32,925 282 478 1152
2020-01-23 12:09:31 GMT 49.930481 8.984648 32,950 282 478 1216
2020-01-23 12:09:28 GMT 49.929291 8.993538 32,825 282 478 1216
2020-01-23 12:09:25 GMT 49.928112 9.002108 32,700 282 479 1280
2020-01-23 12:09:22 GMT 49.925365 9.022745 32,250 282 480 1408
2020-01-23 12:09:19 GMT 49.925365 9.022745 32,675 282 479 1344
2020-01-23 12:09:16 GMT 49.923981 9.033002 32,625 282 479 1344
2020-01-23 12:09:12 GMT 49.921967 9.047761 32,525 282 480 1344
2020-01-23 12:09:08 GMT 49.920364 9.059818 32,450 282 480 1344
2020-01-23 12:09:05 GMT 49.919270 9.067878 32,300 282 480 1344
2020-01-23 12:09:01 GMT 49.916611 9.087573 32,225 282 481 1280
2020-01-23 12:08:58 GMT 49.915962 9.092374 32,200 282 481 1280
2020-01-23 12:08:55 GMT 49.914845 9.100466 32,125 282 481 1216
2020-01-23 12:08:52 GMT 49.912704 9.116425 32,050 282 481 1152
2020-01-23 12:08:49 GMT 49.910282 9.134464 31,825 282 481 1024
2020-01-23 12:08:46 GMT 49.910282 9.134464 31,850 282 481 1088
2020-01-23 12:08:43 GMT 49.909119 9.142778 31,900 282 481 1024
2020-01-23 12:08:39 GMT 49.907303 9.156288 31,800 282 481 960
2020-01-23 12:08:36 GMT 49.904388 9.177848 31,575 282 482 1472
2020-01-23 12:08:33 GMT 49.904388 9.177848 31,750 282 481 1024
2020-01-23 12:08:29 GMT 49.902557 9.191292 31,675 282 481 1088
2020-01-23 12:08:26 GMT 49.901344 9.200456 31,525 282 481 1088
2020-01-23 12:08:23 GMT 49.899811 9.211819 31,550 282 481 1088
2020-01-23 12:08:20 GMT 49.898575 9.220637 31,525 282 484 1280
2020-01-23 12:08:17 GMT 49.897247 9.230395 31,500 282 481 1152
2020-01-23 12:08:13 GMT 49.895527 9.243288 31,350 282 481 1216
2020-01-23 12:08:10 GMT 49.893990 9.254348 31,225 282 481 1344
2020-01-23 12:08:07 GMT 49.892578 9.264583 31,225 282 481 1408
2020-01-23 12:08:04 GMT 49.891434 9.273184 31,175 282 482 1472
2020-01-23 12:08:01 GMT 49.890106 9.282652 31,075 282 482 1472
2020-01-23 12:07:58 GMT 49.886589 9.308315 30,975 282 483 1408
2020-01-23 12:07:52 GMT 49.885284 9.317817 30,025 283 485 1344
2020-01-23 12:07:49 GMT 49.883888 9.328061 30,775 282 484 1280
2020-01-23 12:07:46 GMT 49.883011 9.334620 30,775 282 484 1280
2020-01-23 12:07:43 GMT 49.881607 9.344911 30,700 283 484 1280
2020-01-23 12:07:39 GMT 49.879189 9.362504 30,575 283 485 1344
2020-01-23 12:07:36 GMT 49.878258 9.369334 30,500 283 485 1344
2020-01-23 12:07:33 GMT 49.876720 9.380468 30,450 282 486 1344
2020-01-23 12:07:29 GMT 49.874577 9.395909 30,425 283 485 1280
2020-01-23 12:07:26 GMT 49.872532 9.410904 29,350 282 486 1344
2020-01-23 12:07:20 GMT 49.868820 9.437545 30,150 283 487 1280
2020-01-23 12:07:17 GMT 49.868820 9.437545 30,100 283 487 1280
2020-01-23 12:07:14 GMT 49.868107 9.442749 29,900 283 487 1216
2020-01-23 12:07:11 GMT 49.866386 9.455294 30,000 283 487 1280
2020-01-23 12:07:07 GMT 49.863174 9.478232 29,850 283 489 1280
2020-01-23 12:07:04 GMT 49.863174 9.478232 29,675 283 489 1280
2020-01-23 12:07:01 GMT 49.861359 9.491320 29,750 283 488 1344
2020-01-23 12:06:58 GMT 49.860241 9.499536 29,650 283 488 1344
2020-01-23 12:06:55 GMT 49.859077 9.507999 29,500 283 489 1280
2020-01-23 12:06:52 GMT 49.857742 9.517268 29,300 283 491 896
2020-01-23 12:06:49 GMT 49.855816 9.531234 29,500 283 490 768
2020-01-23 12:06:45 GMT 49.852615 9.554275 29,375 283 491 1152
2020-01-23 12:06:39 GMT 49.849487 9.576515 29,325 283 491 960
2020-01-23 12:06:36 GMT 49.849487 9.576515 29,275 283 491 896
2020-01-23 12:06:33 GMT 49.848358 9.584415 29,175 283 491 896
2020-01-23 12:06:29 GMT 49.846710 9.596196 28,775 283 488 704
2020-01-23 12:06:25 GMT 49.844646 9.611033 29,125 283 491 832
2020-01-23 12:06:22 GMT 49.842968 9.622836 29,075 283 491 768
2020-01-23 12:06:19 GMT 49.841385 9.634342 29,025 283 490 768
2020-01-23 12:06:16 GMT 49.839798 9.645562 29,000 283 490 768
2020-01-23 12:06:12 GMT 49.838451 9.655127 28,950 283 490 768
2020-01-23 12:06:09 GMT 49.836918 9.666039 28,900 283 490 768
2020-01-23 12:06:05 GMT 49.834682 9.681924 28,800 283 489 768
2020-01-23 12:06:02 GMT 49.833298 9.691748 28,825 283 489 768
2020-01-23 12:05:59 GMT 49.832169 9.699666 28,800 283 489 768
2020-01-23 12:05:55 GMT 49.830185 9.713866 28,650 283 488 704
2020-01-23 12:05:51 GMT 49.826889 9.737284 28,625 283 488 768
2020-01-23 12:05:45 GMT 49.825466 9.747397 28,625 283 488 768
2020-01-23 12:05:42 GMT 49.822624 9.767514 28,525 283 487 768
2020-01-23 12:05:39 GMT 49.821136 9.777832 28,525 283 487 768
2020-01-23 12:05:36 GMT 49.821136 9.777832 28,525 283 487 768
2020-01-23 12:05:33 GMT 49.819134 9.792307 28,475 283 487 768
2020-01-23 12:05:30 GMT 49.817871 9.800961 28,300 283 487 768
2020-01-23 12:05:27 GMT 49.816406 9.811297 28,375 283 486 768
2020-01-23 12:05:21 GMT 49.813797 9.830017 28,350 283 486 704
2020-01-23 12:05:18 GMT 49.812286 9.840570 28,275 283 486 704
2020-01-23 12:05:15 GMT 49.811371 9.847364 28,225 283 486 704
2020-01-23 12:05:12 GMT 49.809544 9.860378 28,050 283 484 640
2020-01-23 12:05:09 GMT 49.808243 9.869583 28,175 283 484 704
2020-01-23 12:05:06 GMT 49.806892 9.879381 28,150 283 484 640
2020-01-23 12:05:03 GMT 49.805492 9.889328 28,125 282 483 640
2020-01-23 12:05:00 GMT 49.804047 9.899910 28,075 283 484 640
2020-01-23 12:04:57 GMT 49.802235 9.913157 28,050 285 480 768
2020-01-23 12:04:54 GMT 49.800701 9.924514 28,000 282 483 640
2020-01-23 12:04:51 GMT 49.799561 9.932869 27,950 282 483 640
2020-01-23 12:04:47 GMT 49.797913 9.945301 27,975 283 480 768
2020-01-23 12:04:44 GMT 49.796604 9.955024 27,725 286 480 768
2020-01-23 12:04:41 GMT 49.794983 9.967129 27,900 282 481 640
2020-01-23 12:04:38 GMT 49.793518 9.977899 27,775 283 481 832
2020-01-23 12:04:35 GMT 49.792599 9.984568 27,575 289 480 704
2020-01-23 12:04:32 GMT 49.791111 9.995035 27,775 288 477 768
2020-01-23 12:04:28 GMT 49.787155 10.019820 27,725 288 480 704
2020-01-23 12:04:25 GMT 49.787155 10.019820 27,700 288 480 704
2020-01-23 12:04:21 GMT 49.784821 10.032180 27,550 288 480 704
2020-01-23 12:04:17 GMT 49.782257 10.044467 27,600 289 480 704
2020-01-23 12:04:14 GMT 49.777954 10.063910 27,525 290 479 768
2020-01-23 12:04:07 GMT 49.775517 10.074983 27,475 289 478 896
2020-01-23 12:04:04 GMT 49.773235 10.085375 27,450 289 478 896
2020-01-23 12:04:01 GMT 49.771233 10.094654 27,400 289 478 896
2020-01-23 12:03:58 GMT 49.766373 10.117541 27,300 288 477 832
2020-01-23 12:03:54 GMT 49.763809 10.129973 27,275 288 477 960
2020-01-23 12:03:51 GMT 49.763809 10.129973 27,200 288 477 768
2020-01-23 12:03:45 GMT 49.759827 10.149488 26,975 288 477 768
2020-01-23 12:03:41 GMT 49.757450 10.161166 27,100 288 477 768
2020-01-23 12:03:37 GMT 49.754799 10.173859 27,025 289 476 704
2020-01-23 12:03:34 GMT 49.751911 10.186999 27,000 290 476 640
2020-01-23 12:03:31 GMT 49.749802 10.195602 27,000 293 476 448
2020-01-23 12:03:28 GMT 49.748245 10.201384 26,950 295 474 384
2020-01-23 12:03:25 GMT 49.745773 10.210057 26,950 296 474 448
2020-01-23 12:03:22 GMT 49.741905 10.222184 26,925 298 474 448
2020-01-23 12:03:16 GMT 49.732269 10.247570 26,575 305 473 1472
2020-01-23 12:03:13 GMT 49.732269 10.247570 26,825 304 471 704
2020-01-23 12:03:09 GMT 49.727966 10.257689 26,825 305 471 896
2020-01-23 12:03:05 GMT 49.721558 10.272072 26,725 305 471 1152
2020-01-23 12:03:02 GMT 49.719093 10.277636 26,650 305 471 1344
2020-01-23 12:02:59 GMT 49.715607 10.285371 25,925 305 471 1664
2020-01-23 12:02:54 GMT 49.708294 10.301761 26,425 305 472 1792
2020-01-23 12:02:50 GMT 49.702835 10.313994 25,925 305 473 1728
2020-01-23 12:02:47 GMT 49.699776 10.320839 26,250 305 473 1600
2020-01-23 12:02:43 GMT 49.695419 10.330618 26,150 305 474 1472
2020-01-23 12:02:38 GMT 49.688416 10.346230 25,925 305 475 1408
2020-01-23 12:02:34 GMT 49.684040 10.356025 25,950 305 475 1088
2020-01-23 12:02:31 GMT 49.681152 10.362483 25,875 305 475 1024
2020-01-23 12:02:28 GMT 49.677383 10.370949 25,275 305 474 896
2020-01-23 12:02:25 GMT 49.673054 10.380447 25,800 305 474 1024
2020-01-23 12:02:22 GMT 49.669468 10.388464 25,775 305 474 960
2020-01-23 12:02:18 GMT 49.659897 10.409763 25,275 305 473 832
2020-01-23 12:02:15 GMT 49.659897 10.409763 25,650 305 472 768
2020-01-23 12:02:11 GMT 49.656326 10.417713 25,600 305 472 704
2020-01-23 12:02:08 GMT 49.652756 10.425654 25,575 305 472 704
2020-01-23 12:02:05 GMT 49.647682 10.436937 25,525 305 470 768
2020-01-23 12:02:02 GMT 49.638416 10.457648 25,450 305 469 960
2020-01-23 12:01:57 GMT 49.638416 10.457648 25,275 305 468 1024
2020-01-23 12:01:54 GMT 49.633484 10.468635 25,350 305 469 1024
2020-01-23 12:01:48 GMT 49.627434 10.481996 25,300 305 468 1024
2020-01-23 12:01:45 GMT 49.623596 10.490570 23,475 305 467 1152
2020-01-23 12:01:40 GMT 49.617561 10.503895 25,075 305 466 1152
2020-01-23 12:01:37 GMT 49.612534 10.515029 25,050 305 467 1152
2020-01-23 12:01:34 GMT 49.602722 10.536901 24,900 305 467 1216
2020-01-23 12:01:28 GMT 49.602722 10.536901 24,900 305 467 1216
2020-01-23 12:01:25 GMT 49.598969 10.545213 24,725 305 466 1088
2020-01-23 12:01:21 GMT 49.594666 10.554753 24,550 305 466 1088
2020-01-23 12:01:17 GMT 49.589447 10.566318 24,725 305 466 1088
2020-01-23 12:01:14 GMT 49.585693 10.574558 24,600 306 463 896
2020-01-23 12:01:10 GMT 49.579948 10.587109 24,575 306 465 896
2020-01-23 12:01:07 GMT 49.573059 10.602240 24,475 305 463 896
2020-01-23 12:01:04 GMT 49.573059 10.602240 23,475 306 460 960
2020-01-23 12:01:01 GMT 49.569427 10.610269 24,400 306 463 896
2020-01-23 12:00:58 GMT 49.564728 10.620587 24,400 306 463 896
2020-01-23 12:00:54 GMT 49.559189 10.632597 24,300 306 461 1024
2020-01-23 12:00:51 GMT 49.557323 10.636696 23,725 306 457 960
2020-01-23 12:00:47 GMT 49.551830 10.648647 24,150 306 461 1024
2020-01-23 12:00:44 GMT 49.548199 10.656590 24,175 306 460 960
2020-01-23 12:00:40 GMT 49.539734 10.674952 24,075 306 459 896
2020-01-23 12:00:37 GMT 49.539734 10.674952 24,025 306 459 896
2020-01-23 12:00:34 GMT 49.536327 10.682348 23,875 306 458 896
2020-01-23 12:00:30 GMT 49.531487 10.692741 23,875 306 457 960
2020-01-23 12:00:27 GMT 49.527283 10.701840 23,900 306 457 960
2020-01-23 12:00:24 GMT 49.523849 10.709285 23,875 306 456 896
2020-01-23 12:00:19 GMT 49.517395 10.723234 23,775 306 455 768
2020-01-23 12:00:16 GMT 49.514786 10.728872 23,750 306 455 768
2020-01-23 12:00:13 GMT 49.511078 10.736895 23,700 306 453 768
2020-01-23 12:00:10 GMT 49.507000 10.745668 23,650 306 452 960
2020-01-23 12:00:06 GMT 49.502209 10.756209 23,600 306 452 960
2020-01-23 12:00:03 GMT 49.499039 10.763132 23,550 306 452 1024
2020-01-23 12:00:00 GMT 49.494713 10.772540 23,475 305 450 1088
2020-01-23 11:59:56 GMT 49.490067 10.782864 23,450 305 450 1088
2020-01-23 11:59:53 GMT 49.485443 10.793128 23,275 305 449 1152
2020-01-23 11:59:49 GMT 49.480515 10.804311 23,325 305 449 1152
2020-01-23 11:59:45 GMT 49.477718 10.810621 23,225 305 448 1152
2020-01-23 11:59:42 GMT 49.473808 10.819529 23,075 305 448 1152
2020-01-23 11:59:39 GMT 49.470924 10.825987 23,125 305 447 1152
2020-01-23 11:59:36 GMT 49.466084 10.836899 23,025 305 447 1280
2020-01-23 11:59:33 GMT 49.463150 10.843361 22,950 307 447 1280
2020-01-23 11:59:30 GMT 49.459488 10.850878 22,850 309 448 1152
2020-01-23 11:59:27 GMT 49.454269 10.860780 22,825 311 448 1088
2020-01-23 11:59:24 GMT 49.450115 10.868002 22,725 318 448 960
2020-01-23 11:59:20 GMT 49.445644 10.875203 22,675 321 448 896
2020-01-23 11:59:17 GMT 49.441269 10.881813 22,675 317 448 1024
2020-01-23 11:59:14 GMT 49.435867 10.889330 22,600 320 448 960
2020-01-23 11:59:11 GMT 49.430283 10.896486 22,550 325 445 448
2020-01-23 11:59:08 GMT 49.422276 10.905882 22,525 325 446 448
2020-01-23 11:59:05 GMT 49.417713 10.910942 22,475 326 446 384
2020-01-23 11:58:59 GMT 49.411476 10.917519 22,475 326 445 384
2020-01-23 11:58:56 GMT 49.406570 10.922593 22,425 328 443 448
2020-01-23 11:58:53 GMT 49.401234 10.927927 22,375 333 441 2944
2020-01-23 11:58:48 GMT 49.394485 10.934504 22,400 331 438 640
2020-01-23 11:58:45 GMT 49.387070 10.941326 22,350 330 438 576
2020-01-23 11:58:42 GMT 49.382755 10.945202 22,325 331 437 704
2020-01-23 11:58:39 GMT 49.376404 10.950693 22,300 332 436 832
2020-01-23 11:58:36 GMT 49.372047 10.954381 22,225 332 435 960
2020-01-23 11:58:32 GMT 49.365326 10.959848 22,200 333 435 1216
2020-01-23 11:58:28 GMT 49.358643 10.965130 22,075 333 435 2112
2020-01-23 11:58:25 GMT 49.351730 10.970553 21,975 333 436 2944
2020-01-23 11:58:22 GMT 49.347290 10.974004 21,875 333 439 3200
2020-01-23 11:58:19 GMT 49.336342 10.982642 21,775 333 439 3200
2020-01-23 11:58:16 GMT 49.336342 10.982642 21,425 333 441 2752
2020-01-23 11:58:12 GMT 49.329079 10.988280 21,350 333 442 2368
2020-01-23 11:58:09 GMT 49.313278 11.000695 21,150 333 444 1344
2020-01-23 11:58:04 GMT 49.307617 11.005193 21,075 333 444 1216
2020-01-23 11:57:57 GMT 49.301891 11.009602 20,825 333 441 1152
2020-01-23 11:57:54 GMT 49.296387 11.014005 20,925 333 442 1152
2020-01-23 11:57:51 GMT 49.284344 11.023407 20,775 333 439 1216
2020-01-23 11:57:48 GMT 49.284344 11.023407 20,775 333 439 1216
2020-01-23 11:57:45 GMT 49.277069 11.029147 20,625 333 439 1216
2020-01-23 11:57:41 GMT 49.273590 11.031864 20,600 333 439 1280
2020-01-23 11:57:38 GMT 49.262321 11.040682 20,525 333 438 1216
2020-01-23 11:57:35 GMT 49.262321 11.040682 20,450 333 438 1152
2020-01-23 11:57:30 GMT 49.253815 11.047387 20,450 333 438 1152
2020-01-23 11:57:26 GMT 49.244492 11.054704 20,325 333 436 1024
2020-01-23 11:57:23 GMT 49.235184 11.061965 20,250 333 436 1024
2020-01-23 11:57:17 GMT 49.228180 11.067458 20,125 333 432 1280
2020-01-23 11:57:13 GMT 49.222752 11.071689 20,100 333 433 1280
2020-01-23 11:57:10 GMT 49.217445 11.075881 20,000 333 432 1280
2020-01-23 11:57:04 GMT 49.205246 11.085416 19,900 333 431 1280
2020-01-23 11:57:01 GMT 49.200256 11.089360 19,850 333 431 1280
2020-01-23 11:56:55 GMT 49.188950 11.098234 19,700 333 430 1152
2020-01-23 11:56:50 GMT 49.182449 11.103304 19,650 333 429 1152
2020-01-23 11:56:47 GMT 49.174805 11.109220 19,500 333 428 1152
2020-01-23 11:56:44 GMT 49.164093 11.117601 19,475 334 425 1792
2020-01-23 11:56:40 GMT 49.164093 11.117601 19,450 333 426 1344
2020-01-23 11:56:37 GMT 49.159607 11.121051 19,275 334 426 1664
2020-01-23 11:56:34 GMT 49.153839 11.125488 19,275 334 426 1664
2020-01-23 11:56:30 GMT 49.146828 11.130957 19,125 333 419 1920
2020-01-23 11:56:25 GMT 49.135746 11.139486 18,950 334 426 1664
2020-01-23 11:56:20 GMT 49.122849 11.149503 18,625 334 425 1728
2020-01-23 11:56:17 GMT 49.122849 11.149503 18,775 334 425 1792
2020-01-23 11:56:12 GMT 49.114151 11.156194 18,625 334 425 1792
2020-01-23 11:56:08 GMT 49.108841 11.160349 18,525 333 424 1280
2020-01-23 11:56:04 GMT 49.094833 11.171194 18,350 333 424 1408
2020-01-23 11:56:01 GMT 49.094833 11.171194 18,225 333 419 1408
2020-01-23 11:55:56 GMT 49.081009 11.181969 18,175 333 422 1024
2020-01-23 11:55:53 GMT 49.081009 11.181969 18,175 333 422 1024
2020-01-23 11:55:50 GMT 49.077698 11.184516 17,975 334 420 1216
2020-01-23 11:55:47 GMT 49.071854 11.189082 18,075 333 419 1664
2020-01-23 11:55:43 GMT 49.064663 11.194635 17,900 333 419 1728
2020-01-23 11:55:39 GMT 49.050156 11.205914 17,750 334 419 2048
2020-01-23 11:55:35 GMT 49.050156 11.205914 17,675 333 419 1920
2020-01-23 11:55:32 GMT 49.038963 11.214584 17,550 333 419 2048
2020-01-23 11:55:25 GMT 49.032867 11.219282 17,300 333 419 1408
2020-01-23 11:55:22 GMT 49.027771 11.223309 17,275 333 419 1472
2020-01-23 11:55:19 GMT 49.023605 11.226478 17,150 334 418 1216
2020-01-23 11:55:15 GMT 49.016712 11.231858 17,150 333 417 1152
2020-01-23 11:55:12 GMT 49.011360 11.235978 17,100 333 416 1216
2020-01-23 11:55:08 GMT 48.995255 11.248482 16,950 333 411 960
2020-01-23 11:55:03 GMT 48.987534 11.254507 16,275 334 408 1536
2020-01-23 11:54:57 GMT 48.984406 11.256866 16,800 333 409 1280
2020-01-23 11:54:52 GMT 48.976864 11.262721 16,700 334 408 1728
2020-01-23 11:54:48 GMT 48.970551 11.267606 16,575 333 407 2048
2020-01-23 11:54:44 GMT 48.962757 11.273635 16,300 334 408 2688
2020-01-23 11:54:41 GMT 48.958851 11.276671 16,300 334 408 2752
2020-01-23 11:54:35 GMT 48.949024 11.284260 16,100 334 403 1920
2020-01-23 11:54:32 GMT 48.941437 11.290115 15,825 333 408 1600
2020-01-23 11:54:26 GMT 48.932873 11.296764 15,625 333 411 1856
2020-01-23 11:54:22 GMT 48.926125 11.301968 15,350 334 410 1600
2020-01-23 11:54:18 GMT 48.919231 11.307317 15,450 333 409 1536
2020-01-23 11:54:14 GMT 48.911682 11.313171 15,325 333 408 1664
2020-01-23 11:54:11 GMT 48.908295 11.315777 15,250 333 408 1728
2020-01-23 11:54:07 GMT 48.900936 11.321483 15,150 333 407 1920
2020-01-23 11:54:02 GMT 48.891815 11.328494 14,950 334 406 2304
2020-01-23 11:53:56 GMT 48.883060 11.335216 14,725 334 406 2560
2020-01-23 11:53:51 GMT 48.867050 11.347539 14,400 333 408 2304
2020-01-23 11:53:47 GMT 48.867050 11.347539 14,325 333 409 2112
2020-01-23 11:53:43 GMT 48.861374 11.351905 14,250 333 409 2048
2020-01-23 11:53:40 GMT 48.856934 11.355356 13,900 334 408 1984
2020-01-23 11:53:36 GMT 48.849918 11.360731 14,000 334 408 1984
2020-01-23 11:53:32 GMT 48.842010 11.366835 13,800 334 406 1920
2020-01-23 11:53:29 GMT 48.835953 11.371500 13,725 334 406 1856
2020-01-23 11:53:26 GMT 48.832600 11.374030 13,650 334 406 1792
2020-01-23 11:53:23 GMT 48.828457 11.377282 13,500 334 405 1792
2020-01-23 11:53:20 GMT 48.822693 11.381625 13,500 334 405 1792
2020-01-23 11:53:17 GMT 48.817749 11.385428 13,425 334 404 1728
2020-01-23 11:53:13 GMT 48.810791 11.390710 13,275 334 404 1792
2020-01-23 11:53:09 GMT 48.803875 11.396003 12,975 334 401 1856
2020-01-23 11:53:04 GMT 48.793945 11.403668 12,925 334 398 1728
2020-01-23 11:53:01 GMT 48.788746 11.407567 12,850 334 401 1856
2020-01-23 11:52:57 GMT 48.779903 11.414361 12,750 334 399 1984
2020-01-23 11:52:51 GMT 48.775040 11.418105 12,425 334 399 1920
2020-01-23 11:52:48 GMT 48.769867 11.421978 12,475 334 398 1856
2020-01-23 11:52:45 GMT 48.764603 11.425993 12,425 334 398 1792
2020-01-23 11:52:40 GMT 48.756180 11.432401 12,225 334 397 1536
2020-01-23 11:52:37 GMT 48.746887 11.439373 12,025 334 394 1920
2020-01-23 11:52:31 GMT 48.740891 11.443923 11,975 334 394 1984
2020-01-23 11:52:27 GMT 48.734756 11.448529 11,875 334 391 1472
2020-01-23 11:52:24 GMT 48.730885 11.451440 11,725 334 390 1216
2020-01-23 11:52:20 GMT 48.722691 11.457584 11,650 334 390 1152
2020-01-23 11:52:16 GMT 48.716858 11.461980 11,600 334 389 1024
2020-01-23 11:52:11 GMT 48.708572 11.468177 11,375 311 292 1216
2020-01-23 11:52:07 GMT 48.702347 11.472825 11,475 334 380 704
2020-01-23 11:52:04 GMT 48.697693 11.476304 11,450 334 377 704
2020-01-23 11:52:01 GMT 48.693192 11.479657 11,425 334 375 704
2020-01-23 11:51:58 GMT 48.688801 11.482881 11,400 334 374 768
2020-01-23 11:51:55 GMT 48.683399 11.486929 11,350 334 367 768
2020-01-23 11:51:51 GMT 48.676300 11.492192 11,250 334 367 768
2020-01-23 11:51:48 GMT 48.673996 11.493940 11,250 334 364 768
2020-01-23 11:51:45 GMT 48.669525 11.497192 11,225 335 360 768
2020-01-23 11:51:42 GMT 48.664734 11.500734 11,200 335 359 768
2020-01-23 11:51:38 GMT 48.657944 11.505714 11,125 335 355 704
2020-01-23 11:51:34 GMT 48.653233 11.509118 11,075 335 350 704
2020-01-23 11:51:31 GMT 48.648205 11.512805 11,050 335 350 704
2020-01-23 11:51:28 GMT 48.642563 11.516911 11,000 335 344 768
2020-01-23 11:51:25 GMT 48.639778 11.518876 10,875 335 335 768
2020-01-23 11:51:22 GMT 48.636009 11.521550 10,950 335 339 768
2020-01-23 11:51:18 GMT 48.628143 11.527260 10,875 335 335 768
2020-01-23 11:51:15 GMT 48.624893 11.529588 10,850 335 330 768
2020-01-23 11:51:12 GMT 48.621017 11.532392 10,800 335 329 768
2020-01-23 11:51:09 GMT 48.617706 11.534729 10,775 334 326 832
2020-01-23 11:51:05 GMT 48.610916 11.539837 10,700 333 321 896
2020-01-23 11:50:59 GMT 48.603378 11.546067 10,600 328 315 768
2020-01-23 11:50:56 GMT 48.600349 11.549016 10,575 325 312 704
2020-01-23 11:50:53 GMT 48.597324 11.552413 10,575 322 310 704
2020-01-23 11:50:50 GMT 48.593040 11.558123 10,525 311 292 1152
2020-01-23 11:50:44 GMT 48.587952 11.566420 10,425 311 297 896
2020-01-23 11:50:38 GMT 48.581635 11.577494 10,325 311 292 1088
2020-01-23 11:50:34 GMT 48.578979 11.582196 10,200 311 288 1792
2020-01-23 11:50:30 GMT 48.573303 11.592239 10,100 311 287 2240
2020-01-23 11:50:27 GMT 48.572514 11.593540 9,975 311 287 2304
2020-01-23 11:50:23 GMT 48.569229 11.599379 9,850 311 286 2368
2020-01-23 11:50:20 GMT 48.566574 11.603957 9,725 311 286 2368
2020-01-23 11:50:16 GMT 48.563370 11.609661 9,550 311 285 2304
2020-01-23 11:50:13 GMT 48.561356 11.613183 9,500 311 285 2304
2020-01-23 11:50:09 GMT 48.558014 11.619169 9,375 311 285 2240
2020-01-23 11:50:06 GMT 48.554718 11.624944 8,925 311 284 2112
2020-01-23 11:50:03 GMT 48.552681 11.628522 9,125 311 283 2048
2020-01-23 11:50:00 GMT 48.549225 11.634662 8,975 311 281 2304
2020-01-23 11:49:54 GMT 48.543594 11.644592 8,725 311 281 2432
2020-01-23 11:49:49 GMT 48.540112 11.650712 8,550 311 281 2816
2020-01-23 11:49:46 GMT 48.537971 11.654470 8,425 311 281 3008
2020-01-23 11:49:43 GMT 48.535221 11.659241 8,375 311 285 2752
2020-01-23 11:49:39 GMT 48.532150 11.664663 8,075 311 284 2816
2020-01-23 11:49:36 GMT 48.529404 11.669504 7,900 311 285 2688
2020-01-23 11:49:33 GMT 48.526886 11.673960 7,900 311 285 2688
2020-01-23 11:49:29 GMT 48.523499 11.679875 7,625 311 285 2368
2020-01-23 11:49:26 GMT 48.520561 11.685044 7,500 311 284 2176
2020-01-23 11:49:23 GMT 48.517960 11.689664 7,400 311 284 2240
2020-01-23 11:49:16 GMT 48.511669 11.700656 7,075 311 282 2560
2020-01-23 11:49:13 GMT 48.509445 11.704595 6,750 311 282 2560
2020-01-23 11:49:08 GMT 48.505463 11.711567 6,800 311 282 2496
2020-01-23 11:49:03 GMT 48.499969 11.721074 6,500 311 282 2688
2020-01-23 11:48:58 GMT 48.496078 11.727835 6,300 311 282 2816
2020-01-23 11:48:53 GMT 48.491776 11.735370 6,075 311 283 2880
2020-01-23 11:48:48 GMT 48.488388 11.741356 5,825 311 283 2944
2020-01-23 11:48:45 GMT 48.485737 11.745975 5,725 311 283 2944
2020-01-23 11:48:38 GMT 48.479595 11.756817 5,400 311 284 2688
2020-01-23 11:48:35 GMT 48.477219 11.761081 4,950 311 283 2688
2020-01-23 11:48:32 GMT 48.474239 11.766430 5,000 310 283 2688
2020-01-23 11:48:27 GMT 48.470352 11.773470 4,900 310 284 2752
2020-01-23 11:48:24 GMT 48.467789 11.778118 4,650 310 284 2752
2020-01-23 11:48:21 GMT 48.462296 11.788048 4,650 310 280 2176
2020-01-23 11:48:17 GMT 48.459530 11.793028 4,225 310 282 2432
2020-01-23 11:48:14 GMT 48.459530 11.793028 4,325 310 280 2176
2020-01-23 11:48:08 GMT 48.455017 11.801288 4,125 310 282 2304
2020-01-23 11:48:03 GMT 48.450439 11.809669 3,550 309 276 1856
2020-01-23 11:47:58 GMT 48.446732 11.816500 3,750 309 276 1920
2020-01-23 11:47:54 GMT 48.443573 11.822345 3,650 309 275 1536
2020-01-23 11:47:51 GMT 48.440918 11.827275 3,575 310 271 1088
2020-01-23 11:47:48 GMT 48.438255 11.832203 3,525 310 263 896
2020-01-23 11:47:42 GMT 48.433693 11.840587 3,425 310 260 896
2020-01-23 11:47:38 GMT 48.430847 11.845727 3,375 313 246 640
2020-01-23 11:47:35 GMT 48.428898 11.849189 3,375 313 246 640
2020-01-23 11:47:32 GMT 48.426708 11.852947 3,300 319 240 384
2020-01-23 11:47:25 GMT 48.420776 11.861220 3,250 325 235 384
2020-01-23 11:47:22 GMT 48.417984 11.863826 3,225 330 230 448
2020-01-23 11:47:18 GMT 48.413490 11.866969 3,175 340 221 704
2020-01-23 11:47:13 GMT 48.409065 11.868921 3,075 349 207 1024
2020-01-23 11:47:04 GMT 48.400547 11.871595 2,975 349 205 960
2020-01-23 11:47:01 GMT 48.397385 11.872559 2,925 348 201 1024
2020-01-23 11:46:54 GMT 48.389050 11.875064 2,750 54 171 768
2020-01-23 11:46:43 GMT 48.381927 11.875137 2,525 54 171 768
2020-01-23 11:46:33 GMT 48.374523 11.869499 2,400 54 171 768
2020-01-23 11:46:23 GMT 48.370754 11.859091 2,275 79 162 1280
2020-01-23 11:46:13 GMT 48.369598 11.848614 2,075 82 161 1536
2020-01-23 11:46:02 GMT 48.368565 11.837046 1,800 82 161 1664
2020-01-23 11:45:52 GMT 48.367588 11.825843 1,525 81 160 1344
2020-01-23 11:45:42 GMT 48.366531 11.814599 1,300 82 158 1280
2020-01-23 11:45:31 GMT 48.365540 11.803147 1,050 83 158 896
2020-01-23 11:45:19 GMT 48.364517 11.790282 1,025 64 4
2020-01-23 11:45:11 GMT 48.363956 11.783054 1,050 64 4
2020-01-23 11:44:48 GMT 48.363007 11.770882 0 84 44
2020-01-23 11:44:34 GMT 48.362835 11.768998 0 81 4
2020-01-23 11:44:26 GMT 48.362835 11.768840 0 64 4
2020-01-23 11:44:19 GMT 48.362850 11.768670 0 64 4
2020-01-23 11:44:07 GMT 48.362835 11.768312 0 30 6
2020-01-23 11:43:54 GMT 48.362549 11.768012 0 5 8
2020-01-23 11:43:45 GMT 48.362217 11.767960 0 0 8
2020-01-23 11:43:38 GMT 48.361969 11.767966 0 357 7
2020-01-23 11:40:33 GMT 48.361561 11.767984 0 354 0
We lost coverage of the aircraft here for a total of 14 minutes
2020-01-23 11:26:27 GMT 48.359299 11.771692 0 326 7
2020-01-23 11:26:27 GMT 48.359299 11.771692 0 264 0
2020-01-23 11:24:19 GMT 48.359314 11.771706 0 264 0
2020-01-23 11:23:13 GMT 48.359676 11.776428 0 264 18
2020-01-23 11:23:01 GMT 48.359791 11.777819 0 264 17
2020-01-23 11:22:53 GMT 48.359875 11.778862 0 264 18
2020-01-23 11:22:42 GMT 48.359974 11.780161 0 264 19
2020-01-23 11:22:32 GMT 48.360069 11.781391 0 264 19
2020-01-23 11:22:22 GMT 48.360168 11.782661 0 264 18
2020-01-23 11:22:08 GMT 48.360294 11.784457 0 264 18
2020-01-23 11:21:53 GMT 48.360432 11.786235 0 264 17
2020-01-23 11:21:47 GMT 48.360477 11.786869 0 264 16
2020-01-23 11:21:39 GMT 48.360535 11.787643 0 264 15
2020-01-23 11:21:26 GMT 48.360619 11.788800 0 264 13
2020-01-23 11:21:20 GMT 48.360649 11.789334 0 264 13
2020-01-23 11:21:10 GMT 48.360710 11.790209 0 264 13
2020-01-23 11:21:00 GMT 48.360775 11.791059 0 264 12
2020-01-23 11:20:50 GMT 48.360844 11.791816 0 267 11
2020-01-23 11:20:38 GMT 48.360924 11.792520 0 292 10
2020-01-23 11:20:29 GMT 48.360851 11.793064 0 340 9
2020-01-23 11:20:17 GMT 48.360374 11.793245 0 354 13
2020-01-23 11:20:08 GMT 48.359745 11.793348 0 351 18
2020-01-23 11:19:58 GMT 48.358929 11.793606 0 340 18
2020-01-23 11:19:47 GMT 48.358086 11.793929 0 354 18
2020-01-23 11:19:37 GMT 48.357273 11.794070 0 354 18
2020-01-23 11:19:27 GMT 48.356449 11.794228 0 354 18
2020-01-23 11:19:17 GMT 48.355625 11.794387 0 354 18
2020-01-23 11:19:04 GMT 48.354618 11.794580 0 354 17
2020-01-23 11:18:56 GMT 48.354069 11.794686 0 354 16
2020-01-23 11:18:46 GMT 48.353371 11.794827 0 354 14
2020-01-23 11:18:30 GMT 48.352432 11.795003 0 351 13
2020-01-23 11:18:25 GMT 48.352135 11.795056 0 351 13
2020-01-23 11:18:15 GMT 48.351608 11.795142 0 340 12
2020-01-23 11:18:05 GMT 48.351059 11.795496 0 286 13
2020-01-23 11:17:54 GMT 48.350967 11.796341 0 264 13
2020-01-23 11:17:44 GMT 48.351048 11.797327 0 261 14
2020-01-23 11:17:34 GMT 48.351120 11.798142 0 264 12
2020-01-23 11:17:24 GMT 48.351185 11.798823 0 264 9
2020-01-23 11:17:13 GMT 48.351227 11.799389 0 264 9
2020-01-23 11:17:03 GMT 48.351284 11.799967 0 261 9
2020-01-23 11:16:51 GMT 48.351353 11.800654 0 261 8
2020-01-23 11:16:42 GMT 48.351379 11.801059 0 250 7
2020-01-23 11:16:32 GMT 48.351414 11.801535 0 219 7
2020-01-23 11:16:22 GMT 48.351608 11.801900 0 185 8
2020-01-23 11:16:11 GMT 48.351959 11.801937 0 174 8
2020-01-23 11:16:01 GMT 48.352295 11.801869 0 174 7
2020-01-23 11:15:51 GMT 48.352554 11.801828 0 171 5
2020-01-23 11:15:40 GMT 48.352695 11.801781 0 171 4
2020-01-23 11:15:26 GMT 48.352844 11.801764 0 174 0
2020-01-23 11:15:17 GMT 48.352856 11.801756 0 174 0
2020-01-23 11:14:47 GMT 48.352856 11.801746 0 174 0
2020-01-23 11:14:37 GMT 48.352856 11.801756 0 174 0
2020-01-23 11:14:27 GMT 48.352867 11.801746 0 174 0
2020-01-23 11:14:17 GMT 48.352867 11.801756 0 174 0
2020-01-23 11:14:07 GMT 48.352867 11.801746 0 174 0
2020-01-23 11:13:47 GMT 48.352879 11.801756 0 174 0
2020-01-23 11:12:56 GMT 48.352879 11.801738 0 174 0
2020-01-23 11:12:30 GMT 48.352867 11.801720 0 174 0
2020-01-23 11:12:20 GMT 48.352856 11.801711 0 174 0
2020-01-23 11:12:10 GMT 48.352856 11.801728 0 174 0
2020-01-23 11:12:00 GMT 48.352867 11.801746 0 174 0
2020-01-23 11:11:50 GMT 48.352867 11.801756 0 174 0
2020-01-23 11:11:40 GMT 48.352867 11.801764 0 174 0
2020-01-23 11:11:30 GMT 48.352867 11.801781 0 174 0
2020-01-23 11:11:15 GMT 48.352856 11.801774 0 174 0
2020-01-23 11:11:10 GMT 48.352856 11.801792 0 174 0
2020-01-23 11:11:02 GMT 48.352890 11.801774 0 174 2
2020-01-23 11:10:52 GMT 48.352947 11.801781 0 171 0
2020-01-23 11:10:42 GMT 48.352924 11.801781 0 171 2
2020-01-23 11:10:32 GMT 48.352798 11.801746 0 180 4
2020-01-23 11:10:21 GMT 48.352657 11.801611 0 194 4
2020-01-23 11:10:11 GMT 48.352543 11.801394 0 210 4
2020-01-23 11:10:00 GMT 48.352470 11.801160 0 227 4
2020-01-23 11:09:50 GMT 48.352448 11.800907 0 244 4
2020-01-23 11:09:36 GMT 48.352448 11.800581 0 255 4
2020-01-23 11:09:30 GMT 48.352444 11.800443 0 261 4
2020-01-23 11:09:08 GMT 48.352425 11.800148 0 264 0
2020-01-23 11:08:38 GMT 48.352425 11.800111 0 264 0
We lost coverage of the aircraft here for a total of 14 minutes
2020-01-23 10:54:09 GMT 48.352436 11.800075 0 264 0
2020-01-23 10:54:09 GMT 48.352436 11.800075 0 264 0
2020-01-23 10:54:09 GMT 48.352436 11.800075 0 264 0
2020-01-23 10:54:09 GMT 48.352436 11.800075 0 264 0
2020-01-23 10:54:09 GMT 48.352436 11.800075 0 264 0

Making use of Plane Finder data

You are free to use the raw flight data, aircraft information and images provided in this report for your own purposes provided the data is correctly attributed to Plane Finder. We ask that you please credit Plane Finder and link to planefinder.net in close proximity to the content.

Optionally one of the following logos (no smaller then 150x24px) can be used and must link to planefinder.net

Embedding the Plane Finder map

You are welcome to embed the Plane Finder playback map on your website to offer visitors a more interactive experience. We suggest using the following HTML code:

<iframe src="//planefinder.net/data/report/LH460-D-AIMG-7700-squawk-2020-01-23/map" width="800" height="600" seamless="seamless"></iframe>

Where our data comes from

Plane Finder has a global network of data feeds and antenna radars that receive data broadcast directly from aircraft. The primary technologies used are ADS-B and MLAT. We also show feeds from the FAA and a FLARM glider feed.

Click here to find out more about the Plane Finder network.

How we collect our data